<?xml version="1.0" encoding="UTF-8" standalone="no" ?>
<gpx xmlns="http://www.topografix.com/GPX/1/1" xmlns:xsi="http://www.w3.org/2001/XMLSchema-instance" xsi:schemaLocation="http://www.topografix.com/GPX/1/1 http://www.topografix.com/GPX/1/1/gpx.xsd" version="1.1" creator="VisuGPX - https://www.visugpx.com">
  <metadata>
    <name>Road trip fait P/E</name>
  </metadata>
  <trk>
    <name><![CDATA[Road trip fait P/E_2]]></name>
    <extensions>
      <line xmlns="http://www.topografix.com/GPX/gpx_style/0/2">
        <color>00FF00</color>
        <width>4</width>
      </line>
    </extensions>
    <trkseg>
      <trkpt lat="42.24" lon="-5.03234">
        <ele>804.555</ele>
        <time>2021-07-06T05:43:40Z</time>
      </trkpt>
      <trkpt lat="42.24" lon="-5.03234">
        <ele>804.555</ele>
        <time>2021-07-06T05:43:40Z</time>
      </trkpt>
      <trkpt lat="42.23998" lon="-5.03228">
        <ele>804.9025</ele>
        <time>2021-07-06T05:44:01Z</time>
      </trkpt>
      <trkpt lat="42.23998" lon="-5.03233">
        <ele>805.1911</ele>
        <time>2021-07-06T05:44:39Z</time>
      </trkpt>
      <trkpt lat="42.23994" lon="-5.03233">
        <ele>805.0919</ele>
        <time>2021-07-06T05:44:55Z</time>
      </trkpt>
      <trkpt lat="42.23998" lon="-5.03236">
        <ele>805.1672</ele>
        <time>2021-07-06T05:45:06Z</time>
      </trkpt>
      <trkpt lat="42.2401" lon="-5.03229">
        <ele>806.2883</ele>
        <time>2021-07-06T05:45:17Z</time>
      </trkpt>
      <trkpt lat="42.2401" lon="-5.0322">
        <ele>806.7544</ele>
        <time>2021-07-06T05:45:28Z</time>
      </trkpt>
      <trkpt lat="42.24008" lon="-5.03211">
        <ele>806.5956</ele>
        <time>2021-07-06T05:45:40Z</time>
      </trkpt>
      <trkpt lat="42.23993" lon="-5.03135">
        <ele>806.4226</ele>
        <time>2021-07-06T05:45:51Z</time>
      </trkpt>
      <trkpt lat="42.2398" lon="-5.0305">
        <ele>807.6604</ele>
        <time>2021-07-06T05:46:02Z</time>
      </trkpt>
      <trkpt lat="42.23972" lon="-5.02961">
        <ele>809.927</ele>
        <time>2021-07-06T05:46:13Z</time>
      </trkpt>
      <trkpt lat="42.23959" lon="-5.02852">
        <ele>810.7568</ele>
        <time>2021-07-06T05:46:24Z</time>
      </trkpt>
      <trkpt lat="42.23926" lon="-5.02744">
        <ele>812.829</ele>
        <time>2021-07-06T05:46:35Z</time>
      </trkpt>
      <trkpt lat="42.23899" lon="-5.0264">
        <ele>817.2034</ele>
        <time>2021-07-06T05:46:46Z</time>
      </trkpt>
      <trkpt lat="42.23875" lon="-5.02539">
        <ele>821.3067</ele>
        <time>2021-07-06T05:46:57Z</time>
      </trkpt>
      <trkpt lat="42.23852" lon="-5.02432">
        <ele>825.4886</ele>
        <time>2021-07-06T05:47:08Z</time>
      </trkpt>
      <trkpt lat="42.23809" lon="-5.02352">
        <ele>827.5821</ele>
        <time>2021-07-06T05:47:19Z</time>
      </trkpt>
      <trkpt lat="42.23781" lon="-5.02281">
        <ele>828.6118</ele>
        <time>2021-07-06T05:47:30Z</time>
      </trkpt>
      <trkpt lat="42.23782" lon="-5.02182">
        <ele>828.878</ele>
        <time>2021-07-06T05:47:41Z</time>
      </trkpt>
      <trkpt lat="42.23727" lon="-5.02208">
        <ele>828.6581</ele>
        <time>2021-07-06T05:47:52Z</time>
      </trkpt>
      <trkpt lat="42.23665" lon="-5.02333">
        <ele>828.9386</ele>
        <time>2021-07-06T05:48:03Z</time>
      </trkpt>
      <trkpt lat="42.23608" lon="-5.02472">
        <ele>829.5419</ele>
        <time>2021-07-06T05:48:14Z</time>
      </trkpt>
      <trkpt lat="42.2354" lon="-5.02752">
        <ele>829.9052</ele>
        <time>2021-07-06T05:48:25Z</time>
      </trkpt>
      <trkpt lat="42.23466" lon="-5.03031">
        <ele>822.484</ele>
        <time>2021-07-06T05:48:36Z</time>
      </trkpt>
      <trkpt lat="42.23385" lon="-5.03329">
        <ele>824.0111</ele>
        <time>2021-07-06T05:48:47Z</time>
      </trkpt>
      <trkpt lat="42.23288" lon="-5.03638">
        <ele>824.8751</ele>
        <time>2021-07-06T05:48:58Z</time>
      </trkpt>
      <trkpt lat="42.23201" lon="-5.03948">
        <ele>818.7277</ele>
        <time>2021-07-06T05:49:09Z</time>
      </trkpt>
      <trkpt lat="42.23112" lon="-5.04268">
        <ele>817.7732</ele>
        <time>2021-07-06T05:49:20Z</time>
      </trkpt>
      <trkpt lat="42.2301" lon="-5.04589">
        <ele>814.4106</ele>
        <time>2021-07-06T05:49:31Z</time>
      </trkpt>
      <trkpt lat="42.22875" lon="-5.04894">
        <ele>811.3704</ele>
        <time>2021-07-06T05:49:42Z</time>
      </trkpt>
      <trkpt lat="42.22742" lon="-5.05194">
        <ele>813.0174</ele>
        <time>2021-07-06T05:49:53Z</time>
      </trkpt>
      <trkpt lat="42.22635" lon="-5.05465">
        <ele>811.3243</ele>
        <time>2021-07-06T05:50:04Z</time>
      </trkpt>
      <trkpt lat="42.22506" lon="-5.05808">
        <ele>804.7751</ele>
        <time>2021-07-06T05:50:15Z</time>
      </trkpt>
      <trkpt lat="42.22397" lon="-5.0612">
        <ele>800.9049</ele>
        <time>2021-07-06T05:50:26Z</time>
      </trkpt>
      <trkpt lat="42.22367" lon="-5.0647">
        <ele>789.8429</ele>
        <time>2021-07-06T05:50:37Z</time>
      </trkpt>
      <trkpt lat="42.22324" lon="-5.06791">
        <ele>781.9627</ele>
        <time>2021-07-06T05:50:48Z</time>
      </trkpt>
      <trkpt lat="42.22179" lon="-5.07075">
        <ele>775.7902</ele>
        <time>2021-07-06T05:50:59Z</time>
      </trkpt>
      <trkpt lat="42.22052" lon="-5.07377">
        <ele>769.408</ele>
        <time>2021-07-06T05:51:10Z</time>
      </trkpt>
      <trkpt lat="42.21951" lon="-5.07702">
        <ele>765.4719</ele>
        <time>2021-07-06T05:51:21Z</time>
      </trkpt>
      <trkpt lat="42.21856" lon="-5.08029">
        <ele>763.8889</ele>
        <time>2021-07-06T05:51:32Z</time>
      </trkpt>
      <trkpt lat="42.21757" lon="-5.08358">
        <ele>760.956</ele>
        <time>2021-07-06T05:51:43Z</time>
      </trkpt>
      <trkpt lat="42.21656" lon="-5.08683">
        <ele>760.0276</ele>
        <time>2021-07-06T05:51:54Z</time>
      </trkpt>
      <trkpt lat="42.21564" lon="-5.08978">
        <ele>758.3981</ele>
        <time>2021-07-06T05:52:05Z</time>
      </trkpt>
      <trkpt lat="42.21527" lon="-5.09277">
        <ele>754.9193</ele>
        <time>2021-07-06T05:52:16Z</time>
      </trkpt>
      <trkpt lat="42.21368" lon="-5.09492">
        <ele>752.676</ele>
        <time>2021-07-06T05:52:27Z</time>
      </trkpt>
      <trkpt lat="42.21154" lon="-5.0969">
        <ele>753.3101</ele>
        <time>2021-07-06T05:52:38Z</time>
      </trkpt>
      <trkpt lat="42.20919" lon="-5.09829">
        <ele>751.0544</ele>
        <time>2021-07-06T05:52:49Z</time>
      </trkpt>
      <trkpt lat="42.20712" lon="-5.10036">
        <ele>751.1022</ele>
        <time>2021-07-06T05:53:00Z</time>
      </trkpt>
      <trkpt lat="42.20481" lon="-5.1025">
        <ele>750.614</ele>
        <time>2021-07-06T05:53:11Z</time>
      </trkpt>
      <trkpt lat="42.20254" lon="-5.10414">
        <ele>752.0413</ele>
        <time>2021-07-06T05:53:22Z</time>
      </trkpt>
      <trkpt lat="42.20008" lon="-5.10511">
        <ele>750.7557</ele>
        <time>2021-07-06T05:53:33Z</time>
      </trkpt>
      <trkpt lat="42.19773" lon="-5.10616">
        <ele>749.8296</ele>
        <time>2021-07-06T05:53:44Z</time>
      </trkpt>
      <trkpt lat="42.19558" lon="-5.10814">
        <ele>750.5621</ele>
        <time>2021-07-06T05:53:55Z</time>
      </trkpt>
      <trkpt lat="42.19349" lon="-5.11024">
        <ele>747.9057</ele>
        <time>2021-07-06T05:54:06Z</time>
      </trkpt>
      <trkpt lat="42.19173" lon="-5.11191">
        <ele>745.2916</ele>
        <time>2021-07-06T05:54:17Z</time>
      </trkpt>
      <trkpt lat="42.19012" lon="-5.11279">
        <ele>745.1223</ele>
        <time>2021-07-06T05:54:28Z</time>
      </trkpt>
      <trkpt lat="42.18967" lon="-5.11364">
        <ele>742.774</ele>
        <time>2021-07-06T05:54:39Z</time>
      </trkpt>
      <trkpt lat="42.18941" lon="-5.11355">
        <ele>746.5755</ele>
        <time>2021-07-06T05:54:50Z</time>
      </trkpt>
      <trkpt lat="42.18937" lon="-5.11368">
        <ele>748.0662</ele>
        <time>2021-07-06T05:55:01Z</time>
      </trkpt>
      <trkpt lat="42.18939" lon="-5.11369">
        <ele>752.3638</ele>
        <time>2021-07-06T05:56:00Z</time>
      </trkpt>
      <trkpt lat="42.18936" lon="-5.11368">
        <ele>753.7807</ele>
        <time>2021-07-06T05:57:00Z</time>
      </trkpt>
      <trkpt lat="42.18938" lon="-5.11357">
        <ele>753.7807</ele>
        <time>2021-07-06T05:57:15Z</time>
      </trkpt>
      <trkpt lat="42.18938" lon="-5.11357">
        <ele>753.7807</ele>
        <time>2021-07-06T05:58:14Z</time>
      </trkpt>
      <trkpt lat="42.18938" lon="-5.11357">
        <ele>753.7807</ele>
        <time>2021-07-06T05:59:14Z</time>
      </trkpt>
      <trkpt lat="42.18939" lon="-5.11358">
        <ele>757.4299</ele>
        <time>2021-07-06T06:00:13Z</time>
      </trkpt>
      <trkpt lat="42.18941" lon="-5.11356">
        <ele>756.6421</ele>
        <time>2021-07-06T06:01:13Z</time>
      </trkpt>
      <trkpt lat="42.18943" lon="-5.11351">
        <ele>756.2702</ele>
        <time>2021-07-06T06:01:34Z</time>
      </trkpt>
      <trkpt lat="42.18949" lon="-5.11339">
        <ele>754.8417</ele>
        <time>2021-07-06T06:01:45Z</time>
      </trkpt>
      <trkpt lat="42.18958" lon="-5.11354">
        <ele>756.6111</ele>
        <time>2021-07-06T06:02:00Z</time>
      </trkpt>
      <trkpt lat="42.18949" lon="-5.11347">
        <ele>742.9275</ele>
        <time>2021-07-06T06:02:27Z</time>
      </trkpt>
      <trkpt lat="42.18953" lon="-5.11355">
        <ele>746.577</ele>
        <time>2021-07-06T06:02:38Z</time>
      </trkpt>
      <trkpt lat="42.18958" lon="-5.11355">
        <ele>746.5004</ele>
        <time>2021-07-06T06:02:57Z</time>
      </trkpt>
      <trkpt lat="42.18959" lon="-5.11386">
        <ele>745.8571</ele>
        <time>2021-07-06T06:03:08Z</time>
      </trkpt>
      <trkpt lat="42.18867" lon="-5.11472">
        <ele>746.7419</ele>
        <time>2021-07-06T06:03:19Z</time>
      </trkpt>
      <trkpt lat="42.18784" lon="-5.11592">
        <ele>746.9776</ele>
        <time>2021-07-06T06:03:30Z</time>
      </trkpt>
      <trkpt lat="42.18682" lon="-5.11723">
        <ele>745.9135</ele>
        <time>2021-07-06T06:03:41Z</time>
      </trkpt>
      <trkpt lat="42.18571" lon="-5.11905">
        <ele>744.0939</ele>
        <time>2021-07-06T06:03:52Z</time>
      </trkpt>
      <trkpt lat="42.18412" lon="-5.12115">
        <ele>743.6858</ele>
        <time>2021-07-06T06:04:03Z</time>
      </trkpt>
      <trkpt lat="42.1824" lon="-5.12349">
        <ele>744.3223</ele>
        <time>2021-07-06T06:04:14Z</time>
      </trkpt>
      <trkpt lat="42.18054" lon="-5.12596">
        <ele>743.9867</ele>
        <time>2021-07-06T06:04:25Z</time>
      </trkpt>
      <trkpt lat="42.17867" lon="-5.12846">
        <ele>743.467</ele>
        <time>2021-07-06T06:04:36Z</time>
      </trkpt>
      <trkpt lat="42.17683" lon="-5.13064">
        <ele>741.7347</ele>
        <time>2021-07-06T06:04:47Z</time>
      </trkpt>
      <trkpt lat="42.17476" lon="-5.13306">
        <ele>741.5385</ele>
        <time>2021-07-06T06:04:58Z</time>
      </trkpt>
      <trkpt lat="42.17267" lon="-5.13549">
        <ele>740.6454</ele>
        <time>2021-07-06T06:05:09Z</time>
      </trkpt>
      <trkpt lat="42.17054" lon="-5.13796">
        <ele>742.4784</ele>
        <time>2021-07-06T06:05:20Z</time>
      </trkpt>
      <trkpt lat="42.16825" lon="-5.14061">
        <ele>740.0666</ele>
        <time>2021-07-06T06:05:31Z</time>
      </trkpt>
      <trkpt lat="42.16614" lon="-5.14306">
        <ele>740.2802</ele>
        <time>2021-07-06T06:05:42Z</time>
      </trkpt>
      <trkpt lat="42.16397" lon="-5.1455">
        <ele>739.7628</ele>
        <time>2021-07-06T06:05:53Z</time>
      </trkpt>
      <trkpt lat="42.16198" lon="-5.14722">
        <ele>737.9106</ele>
        <time>2021-07-06T06:06:04Z</time>
      </trkpt>
      <trkpt lat="42.16118" lon="-5.1479">
        <ele>737.6155</ele>
        <time>2021-07-06T06:06:15Z</time>
      </trkpt>
      <trkpt lat="42.1602" lon="-5.14844">
        <ele>738.0308</ele>
        <time>2021-07-06T06:06:26Z</time>
      </trkpt>
      <trkpt lat="42.15819" lon="-5.1498">
        <ele>739.2671</ele>
        <time>2021-07-06T06:06:37Z</time>
      </trkpt>
      <trkpt lat="42.15586" lon="-5.15141">
        <ele>737.9802</ele>
        <time>2021-07-06T06:06:48Z</time>
      </trkpt>
      <trkpt lat="42.15346" lon="-5.15308">
        <ele>737.7055</ele>
        <time>2021-07-06T06:06:59Z</time>
      </trkpt>
      <trkpt lat="42.15098" lon="-5.15482">
        <ele>736.7645</ele>
        <time>2021-07-06T06:07:10Z</time>
      </trkpt>
      <trkpt lat="42.14852" lon="-5.15679">
        <ele>735.1716</ele>
        <time>2021-07-06T06:07:21Z</time>
      </trkpt>
      <trkpt lat="42.14597" lon="-5.15844">
        <ele>733.7793</ele>
        <time>2021-07-06T06:07:32Z</time>
      </trkpt>
      <trkpt lat="42.14403" lon="-5.16064">
        <ele>733.1219</ele>
        <time>2021-07-06T06:07:43Z</time>
      </trkpt>
      <trkpt lat="42.14236" lon="-5.16358">
        <ele>732.4363</ele>
        <time>2021-07-06T06:07:54Z</time>
      </trkpt>
      <trkpt lat="42.14073" lon="-5.16659">
        <ele>732.6554</ele>
        <time>2021-07-06T06:08:05Z</time>
      </trkpt>
      <trkpt lat="42.13918" lon="-5.16963">
        <ele>732.2751</ele>
        <time>2021-07-06T06:08:16Z</time>
      </trkpt>
      <trkpt lat="42.13727" lon="-5.17207">
        <ele>730.9203</ele>
        <time>2021-07-06T06:08:27Z</time>
      </trkpt>
      <trkpt lat="42.13524" lon="-5.17449">
        <ele>731.6071</ele>
        <time>2021-07-06T06:08:38Z</time>
      </trkpt>
      <trkpt lat="42.1332" lon="-5.17692">
        <ele>730.2162</ele>
        <time>2021-07-06T06:08:49Z</time>
      </trkpt>
      <trkpt lat="42.13118" lon="-5.17932">
        <ele>729.6187</ele>
        <time>2021-07-06T06:09:00Z</time>
      </trkpt>
      <trkpt lat="42.12929" lon="-5.18117">
        <ele>728.5428</ele>
        <time>2021-07-06T06:09:11Z</time>
      </trkpt>
      <trkpt lat="42.12801" lon="-5.18235">
        <ele>729.2308</ele>
        <time>2021-07-06T06:09:22Z</time>
      </trkpt>
      <trkpt lat="42.12723" lon="-5.18399">
        <ele>729.9401</ele>
        <time>2021-07-06T06:09:33Z</time>
      </trkpt>
      <trkpt lat="42.12618" lon="-5.18565">
        <ele>729.1521</ele>
        <time>2021-07-06T06:09:44Z</time>
      </trkpt>
      <trkpt lat="42.1248" lon="-5.18693">
        <ele>729.8295</ele>
        <time>2021-07-06T06:09:55Z</time>
      </trkpt>
      <trkpt lat="42.12316" lon="-5.18834">
        <ele>729.4082</ele>
        <time>2021-07-06T06:10:06Z</time>
      </trkpt>
      <trkpt lat="42.12102" lon="-5.19011">
        <ele>728.312</ele>
        <time>2021-07-06T06:10:17Z</time>
      </trkpt>
      <trkpt lat="42.11884" lon="-5.19191">
        <ele>726.9603</ele>
        <time>2021-07-06T06:10:28Z</time>
      </trkpt>
      <trkpt lat="42.1166" lon="-5.19377">
        <ele>727.7701</ele>
        <time>2021-07-06T06:10:39Z</time>
      </trkpt>
      <trkpt lat="42.11407" lon="-5.1953">
        <ele>726.0184</ele>
        <time>2021-07-06T06:10:50Z</time>
      </trkpt>
      <trkpt lat="42.1115" lon="-5.19661">
        <ele>725.6039</ele>
        <time>2021-07-06T06:11:01Z</time>
      </trkpt>
      <trkpt lat="42.10892" lon="-5.19793">
        <ele>726.0052</ele>
        <time>2021-07-06T06:11:12Z</time>
      </trkpt>
      <trkpt lat="42.10638" lon="-5.19933">
        <ele>723.9466</ele>
        <time>2021-07-06T06:11:23Z</time>
      </trkpt>
      <trkpt lat="42.10406" lon="-5.20141">
        <ele>723.6307</ele>
        <time>2021-07-06T06:11:34Z</time>
      </trkpt>
      <trkpt lat="42.10175" lon="-5.20323">
        <ele>724.0301</ele>
        <time>2021-07-06T06:11:45Z</time>
      </trkpt>
      <trkpt lat="42.09929" lon="-5.2046">
        <ele>722.6345</ele>
        <time>2021-07-06T06:11:56Z</time>
      </trkpt>
      <trkpt lat="42.09756" lon="-5.20719">
        <ele>722.1185</ele>
        <time>2021-07-06T06:12:07Z</time>
      </trkpt>
      <trkpt lat="42.09611" lon="-5.20959">
        <ele>722.0644</ele>
        <time>2021-07-06T06:12:18Z</time>
      </trkpt>
      <trkpt lat="42.09553" lon="-5.21061">
        <ele>722.6674</ele>
        <time>2021-07-06T06:12:29Z</time>
      </trkpt>
      <trkpt lat="42.09616" lon="-5.2114">
        <ele>725.1018</ele>
        <time>2021-07-06T06:12:40Z</time>
      </trkpt>
      <trkpt lat="42.0979" lon="-5.21313">
        <ele>724.211</ele>
        <time>2021-07-06T06:12:51Z</time>
      </trkpt>
      <trkpt lat="42.09945" lon="-5.2147">
        <ele>724.4064</ele>
        <time>2021-07-06T06:13:02Z</time>
      </trkpt>
      <trkpt lat="42.0997" lon="-5.21572">
        <ele>721.6215</ele>
        <time>2021-07-06T06:13:13Z</time>
      </trkpt>
      <trkpt lat="42.09868" lon="-5.21721">
        <ele>724.1865</ele>
        <time>2021-07-06T06:13:24Z</time>
      </trkpt>
      <trkpt lat="42.09758" lon="-5.2182">
        <ele>729.6169</ele>
        <time>2021-07-06T06:13:35Z</time>
      </trkpt>
      <trkpt lat="42.09624" lon="-5.21946">
        <ele>729.0179</ele>
        <time>2021-07-06T06:13:46Z</time>
      </trkpt>
      <trkpt lat="42.09422" lon="-5.22158">
        <ele>725.4688</ele>
        <time>2021-07-06T06:13:57Z</time>
      </trkpt>
      <trkpt lat="42.09217" lon="-5.2241">
        <ele>727.1949</ele>
        <time>2021-07-06T06:14:08Z</time>
      </trkpt>
      <trkpt lat="42.09041" lon="-5.22707">
        <ele>729.0324</ele>
        <time>2021-07-06T06:14:19Z</time>
      </trkpt>
      <trkpt lat="42.08867" lon="-5.23">
        <ele>730.7013</ele>
        <time>2021-07-06T06:14:30Z</time>
      </trkpt>
      <trkpt lat="42.08686" lon="-5.23304">
        <ele>727.5565</ele>
        <time>2021-07-06T06:14:41Z</time>
      </trkpt>
      <trkpt lat="42.08504" lon="-5.23609">
        <ele>730.0332</ele>
        <time>2021-07-06T06:14:52Z</time>
      </trkpt>
      <trkpt lat="42.08326" lon="-5.23909">
        <ele>735.0201</ele>
        <time>2021-07-06T06:15:03Z</time>
      </trkpt>
      <trkpt lat="42.08148" lon="-5.24209">
        <ele>738.4812</ele>
        <time>2021-07-06T06:15:14Z</time>
      </trkpt>
      <trkpt lat="42.07967" lon="-5.24514">
        <ele>735.6636</ele>
        <time>2021-07-06T06:15:25Z</time>
      </trkpt>
      <trkpt lat="42.07786" lon="-5.24821">
        <ele>728.4369</ele>
        <time>2021-07-06T06:15:36Z</time>
      </trkpt>
      <trkpt lat="42.07608" lon="-5.25119">
        <ele>722.4445</ele>
        <time>2021-07-06T06:15:47Z</time>
      </trkpt>
      <trkpt lat="42.07432" lon="-5.2542">
        <ele>723.5088</ele>
        <time>2021-07-06T06:15:58Z</time>
      </trkpt>
      <trkpt lat="42.07256" lon="-5.25716">
        <ele>726.3197</ele>
        <time>2021-07-06T06:16:09Z</time>
      </trkpt>
      <trkpt lat="42.07077" lon="-5.26017">
        <ele>732.6792</ele>
        <time>2021-07-06T06:16:20Z</time>
      </trkpt>
      <trkpt lat="42.069" lon="-5.26317">
        <ele>736.5832</ele>
        <time>2021-07-06T06:16:31Z</time>
      </trkpt>
      <trkpt lat="42.06722" lon="-5.26618">
        <ele>742.3454</ele>
        <time>2021-07-06T06:16:42Z</time>
      </trkpt>
      <trkpt lat="42.06545" lon="-5.26916">
        <ele>736.1087</ele>
        <time>2021-07-06T06:16:53Z</time>
      </trkpt>
      <trkpt lat="42.0637" lon="-5.27209">
        <ele>738.5864</ele>
        <time>2021-07-06T06:17:04Z</time>
      </trkpt>
      <trkpt lat="42.06195" lon="-5.27508">
        <ele>739.5502</ele>
        <time>2021-07-06T06:17:15Z</time>
      </trkpt>
      <trkpt lat="42.06021" lon="-5.278">
        <ele>745.1981</ele>
        <time>2021-07-06T06:17:26Z</time>
      </trkpt>
      <trkpt lat="42.05851" lon="-5.28088">
        <ele>749.2339</ele>
        <time>2021-07-06T06:17:37Z</time>
      </trkpt>
      <trkpt lat="42.05681" lon="-5.28373">
        <ele>750.6705</ele>
        <time>2021-07-06T06:17:48Z</time>
      </trkpt>
      <trkpt lat="42.05518" lon="-5.28653">
        <ele>750.2213</ele>
        <time>2021-07-06T06:17:59Z</time>
      </trkpt>
      <trkpt lat="42.05355" lon="-5.28927">
        <ele>743.0085</ele>
        <time>2021-07-06T06:18:10Z</time>
      </trkpt>
      <trkpt lat="42.05191" lon="-5.29207">
        <ele>744.1071</ele>
        <time>2021-07-06T06:18:21Z</time>
      </trkpt>
      <trkpt lat="42.05025" lon="-5.29489">
        <ele>751.2146</ele>
        <time>2021-07-06T06:18:32Z</time>
      </trkpt>
      <trkpt lat="42.04858" lon="-5.29766">
        <ele>751.1874</ele>
        <time>2021-07-06T06:18:43Z</time>
      </trkpt>
      <trkpt lat="42.04684" lon="-5.30053">
        <ele>753.0743</ele>
        <time>2021-07-06T06:18:54Z</time>
      </trkpt>
      <trkpt lat="42.04511" lon="-5.30336">
        <ele>756.05</ele>
        <time>2021-07-06T06:19:05Z</time>
      </trkpt>
      <trkpt lat="42.04337" lon="-5.30607">
        <ele>753.7197</ele>
        <time>2021-07-06T06:19:16Z</time>
      </trkpt>
      <trkpt lat="42.04195" lon="-5.30821">
        <ele>746.7138</ele>
        <time>2021-07-06T06:19:27Z</time>
      </trkpt>
      <trkpt lat="42.04067" lon="-5.31014">
        <ele>740.6218</ele>
        <time>2021-07-06T06:19:38Z</time>
      </trkpt>
      <trkpt lat="42.03988" lon="-5.31215">
        <ele>737.807</ele>
        <time>2021-07-06T06:19:49Z</time>
      </trkpt>
      <trkpt lat="42.03866" lon="-5.31453">
        <ele>736.1436</ele>
        <time>2021-07-06T06:20:00Z</time>
      </trkpt>
      <trkpt lat="42.03706" lon="-5.31734">
        <ele>737.5041</ele>
        <time>2021-07-06T06:20:11Z</time>
      </trkpt>
      <trkpt lat="42.03542" lon="-5.32018">
        <ele>741.3166</ele>
        <time>2021-07-06T06:20:22Z</time>
      </trkpt>
      <trkpt lat="42.03378" lon="-5.32303">
        <ele>745.7282</ele>
        <time>2021-07-06T06:20:33Z</time>
      </trkpt>
      <trkpt lat="42.0321" lon="-5.32597">
        <ele>731.9418</ele>
        <time>2021-07-06T06:20:44Z</time>
      </trkpt>
      <trkpt lat="42.03041" lon="-5.32892">
        <ele>738.8258</ele>
        <time>2021-07-06T06:20:55Z</time>
      </trkpt>
      <trkpt lat="42.02871" lon="-5.3319">
        <ele>734.6428</ele>
        <time>2021-07-06T06:21:06Z</time>
      </trkpt>
      <trkpt lat="42.02702" lon="-5.33483">
        <ele>741.1541</ele>
        <time>2021-07-06T06:21:17Z</time>
      </trkpt>
      <trkpt lat="42.02535" lon="-5.33774">
        <ele>751.7643</ele>
        <time>2021-07-06T06:21:28Z</time>
      </trkpt>
      <trkpt lat="42.02367" lon="-5.34067">
        <ele>754.4982</ele>
        <time>2021-07-06T06:21:39Z</time>
      </trkpt>
      <trkpt lat="42.02197" lon="-5.34363">
        <ele>755.2213</ele>
        <time>2021-07-06T06:21:50Z</time>
      </trkpt>
      <trkpt lat="42.02026" lon="-5.34662">
        <ele>757.4342</ele>
        <time>2021-07-06T06:22:01Z</time>
      </trkpt>
      <trkpt lat="42.01855" lon="-5.34961">
        <ele>756.0247</ele>
        <time>2021-07-06T06:22:12Z</time>
      </trkpt>
      <trkpt lat="42.01686" lon="-5.35255">
        <ele>753.4886</ele>
        <time>2021-07-06T06:22:23Z</time>
      </trkpt>
      <trkpt lat="42.0152" lon="-5.3555">
        <ele>757.6345</ele>
        <time>2021-07-06T06:22:34Z</time>
      </trkpt>
      <trkpt lat="42.0135" lon="-5.35847">
        <ele>760.1663</ele>
        <time>2021-07-06T06:22:45Z</time>
      </trkpt>
      <trkpt lat="42.01166" lon="-5.36164">
        <ele>758.988</ele>
        <time>2021-07-06T06:22:56Z</time>
      </trkpt>
      <trkpt lat="42.01007" lon="-5.36443">
        <ele>763.5944</ele>
        <time>2021-07-06T06:23:07Z</time>
      </trkpt>
      <trkpt lat="42.00847" lon="-5.36726">
        <ele>763.8054</ele>
        <time>2021-07-06T06:23:18Z</time>
      </trkpt>
      <trkpt lat="42.00683" lon="-5.37016">
        <ele>763.6161</ele>
        <time>2021-07-06T06:23:29Z</time>
      </trkpt>
      <trkpt lat="42.00533" lon="-5.37284">
        <ele>763.5684</ele>
        <time>2021-07-06T06:23:40Z</time>
      </trkpt>
      <trkpt lat="42.0037" lon="-5.37581">
        <ele>764.4142</ele>
        <time>2021-07-06T06:23:51Z</time>
      </trkpt>
      <trkpt lat="42.00203" lon="-5.37879">
        <ele>766.7142</ele>
        <time>2021-07-06T06:24:02Z</time>
      </trkpt>
      <trkpt lat="42.00035" lon="-5.38178">
        <ele>770.0262</ele>
        <time>2021-07-06T06:24:13Z</time>
      </trkpt>
      <trkpt lat="41.99871" lon="-5.3847">
        <ele>766.663</ele>
        <time>2021-07-06T06:24:24Z</time>
      </trkpt>
      <trkpt lat="41.99707" lon="-5.38763">
        <ele>765.3751</ele>
        <time>2021-07-06T06:24:35Z</time>
      </trkpt>
      <trkpt lat="41.99544" lon="-5.39054">
        <ele>764.8177</ele>
        <time>2021-07-06T06:24:46Z</time>
      </trkpt>
      <trkpt lat="41.99375" lon="-5.39357">
        <ele>763.3753</ele>
        <time>2021-07-06T06:24:57Z</time>
      </trkpt>
      <trkpt lat="41.99207" lon="-5.39654">
        <ele>760.5275</ele>
        <time>2021-07-06T06:25:08Z</time>
      </trkpt>
      <trkpt lat="41.99038" lon="-5.39957">
        <ele>759.0031</ele>
        <time>2021-07-06T06:25:19Z</time>
      </trkpt>
      <trkpt lat="41.98914" lon="-5.40177">
        <ele>758.3813</ele>
        <time>2021-07-06T06:25:30Z</time>
      </trkpt>
      <trkpt lat="41.98836" lon="-5.40319">
        <ele>757.72</ele>
        <time>2021-07-06T06:25:41Z</time>
      </trkpt>
      <trkpt lat="41.98767" lon="-5.40444">
        <ele>760.1148</ele>
        <time>2021-07-06T06:25:52Z</time>
      </trkpt>
      <trkpt lat="41.98743" lon="-5.40589">
        <ele>759.9435</ele>
        <time>2021-07-06T06:26:03Z</time>
      </trkpt>
      <trkpt lat="41.98749" lon="-5.40748">
        <ele>757.48</ele>
        <time>2021-07-06T06:26:14Z</time>
      </trkpt>
      <trkpt lat="41.98753" lon="-5.40923">
        <ele>757.8666</ele>
        <time>2021-07-06T06:26:25Z</time>
      </trkpt>
      <trkpt lat="41.98757" lon="-5.41115">
        <ele>758.9802</ele>
        <time>2021-07-06T06:26:36Z</time>
      </trkpt>
      <trkpt lat="41.9876" lon="-5.41205">
        <ele>753.8458</ele>
        <time>2021-07-06T06:26:47Z</time>
      </trkpt>
      <trkpt lat="41.9876" lon="-5.41211">
        <ele>753.6048</ele>
        <time>2021-07-06T06:27:02Z</time>
      </trkpt>
      <trkpt lat="41.9874" lon="-5.4122">
        <ele>752.7322</ele>
        <time>2021-07-06T06:27:13Z</time>
      </trkpt>
      <trkpt lat="41.98738" lon="-5.41226">
        <ele>744.1837</ele>
        <time>2021-07-06T06:27:42Z</time>
      </trkpt>
      <trkpt lat="41.98739" lon="-5.41226">
        <ele>741.0497</ele>
        <time>2021-07-06T06:28:42Z</time>
      </trkpt>
      <trkpt lat="41.98739" lon="-5.41226">
        <ele>741.0497</ele>
        <time>2021-07-06T06:29:41Z</time>
      </trkpt>
      <trkpt lat="41.98738" lon="-5.41223">
        <ele>741.8536</ele>
        <time>2021-07-06T06:30:41Z</time>
      </trkpt>
      <trkpt lat="41.98735" lon="-5.41226">
        <ele>745.5182</ele>
        <time>2021-07-06T06:31:27Z</time>
      </trkpt>
      <trkpt lat="41.98735" lon="-5.41228">
        <ele>748.8468</ele>
        <time>2021-07-06T06:32:27Z</time>
      </trkpt>
      <trkpt lat="41.98734" lon="-5.41227">
        <ele>748.081</ele>
        <time>2021-07-06T06:33:26Z</time>
      </trkpt>
      <trkpt lat="41.98734" lon="-5.41227">
        <ele>748.081</ele>
        <time>2021-07-06T06:34:26Z</time>
      </trkpt>
      <trkpt lat="41.98734" lon="-5.41227">
        <ele>748.081</ele>
        <time>2021-07-06T06:35:25Z</time>
      </trkpt>
      <trkpt lat="41.98738" lon="-5.41224">
        <ele>748.4127</ele>
        <time>2021-07-06T06:36:18Z</time>
      </trkpt>
      <trkpt lat="41.98737" lon="-5.41224">
        <ele>746.9025</ele>
        <time>2021-07-06T06:37:18Z</time>
      </trkpt>
      <trkpt lat="41.98738" lon="-5.41224">
        <ele>746.8265</ele>
        <time>2021-07-06T06:38:18Z</time>
      </trkpt>
      <trkpt lat="41.98739" lon="-5.41226">
        <ele>748.1912</ele>
        <time>2021-07-06T06:39:17Z</time>
      </trkpt>
      <trkpt lat="41.9874" lon="-5.41225">
        <ele>749.2325</ele>
        <time>2021-07-06T06:40:16Z</time>
      </trkpt>
      <trkpt lat="41.98739" lon="-5.4124">
        <ele>749.457</ele>
        <time>2021-07-06T06:40:27Z</time>
      </trkpt>
      <trkpt lat="41.98755" lon="-5.41247">
        <ele>753.2156</ele>
        <time>2021-07-06T06:40:38Z</time>
      </trkpt>
      <trkpt lat="41.98767" lon="-5.41403">
        <ele>758.6501</ele>
        <time>2021-07-06T06:40:49Z</time>
      </trkpt>
      <trkpt lat="41.98779" lon="-5.41716">
        <ele>762.8083</ele>
        <time>2021-07-06T06:41:00Z</time>
      </trkpt>
      <trkpt lat="41.98786" lon="-5.42083">
        <ele>757.7749</ele>
        <time>2021-07-06T06:41:11Z</time>
      </trkpt>
      <trkpt lat="41.98792" lon="-5.42425">
        <ele>750.8969</ele>
        <time>2021-07-06T06:41:22Z</time>
      </trkpt>
      <trkpt lat="41.98796" lon="-5.42766">
        <ele>749.2281</ele>
        <time>2021-07-06T06:41:33Z</time>
      </trkpt>
      <trkpt lat="41.988" lon="-5.43121">
        <ele>748.6131</ele>
        <time>2021-07-06T06:41:44Z</time>
      </trkpt>
      <trkpt lat="41.98806" lon="-5.43478">
        <ele>748.4983</ele>
        <time>2021-07-06T06:41:55Z</time>
      </trkpt>
      <trkpt lat="41.98811" lon="-5.43848">
        <ele>746.4935</ele>
        <time>2021-07-06T06:42:06Z</time>
      </trkpt>
      <trkpt lat="41.98816" lon="-5.44228">
        <ele>744.2266</ele>
        <time>2021-07-06T06:42:17Z</time>
      </trkpt>
      <trkpt lat="41.98821" lon="-5.44595">
        <ele>741.5277</ele>
        <time>2021-07-06T06:42:28Z</time>
      </trkpt>
      <trkpt lat="41.98824" lon="-5.44904">
        <ele>740.2601</ele>
        <time>2021-07-06T06:42:39Z</time>
      </trkpt>
      <trkpt lat="41.9883" lon="-5.45218">
        <ele>736.3828</ele>
        <time>2021-07-06T06:42:50Z</time>
      </trkpt>
      <trkpt lat="41.98836" lon="-5.45576">
        <ele>736.2789</ele>
        <time>2021-07-06T06:43:01Z</time>
      </trkpt>
      <trkpt lat="41.98842" lon="-5.45871">
        <ele>737.302</ele>
        <time>2021-07-06T06:43:12Z</time>
      </trkpt>
      <trkpt lat="41.98846" lon="-5.46176">
        <ele>739.8654</ele>
        <time>2021-07-06T06:43:23Z</time>
      </trkpt>
      <trkpt lat="41.98852" lon="-5.46469">
        <ele>742.7727</ele>
        <time>2021-07-06T06:43:34Z</time>
      </trkpt>
      <trkpt lat="41.98858" lon="-5.46787">
        <ele>743.081</ele>
        <time>2021-07-06T06:43:45Z</time>
      </trkpt>
      <trkpt lat="41.98865" lon="-5.47135">
        <ele>743.3801</ele>
        <time>2021-07-06T06:43:56Z</time>
      </trkpt>
      <trkpt lat="41.98872" lon="-5.47475">
        <ele>743.8167</ele>
        <time>2021-07-06T06:44:07Z</time>
      </trkpt>
      <trkpt lat="41.98877" lon="-5.47813">
        <ele>747.4803</ele>
        <time>2021-07-06T06:44:18Z</time>
      </trkpt>
      <trkpt lat="41.98886" lon="-5.4822">
        <ele>745.1708</ele>
        <time>2021-07-06T06:44:29Z</time>
      </trkpt>
      <trkpt lat="41.98891" lon="-5.4862">
        <ele>744.3816</ele>
        <time>2021-07-06T06:44:40Z</time>
      </trkpt>
      <trkpt lat="41.98916" lon="-5.4901">
        <ele>742.265</ele>
        <time>2021-07-06T06:44:51Z</time>
      </trkpt>
      <trkpt lat="41.98968" lon="-5.49395">
        <ele>739.1065</ele>
        <time>2021-07-06T06:45:02Z</time>
      </trkpt>
      <trkpt lat="41.9902" lon="-5.49789">
        <ele>736.9336</ele>
        <time>2021-07-06T06:45:13Z</time>
      </trkpt>
      <trkpt lat="41.99073" lon="-5.50183">
        <ele>733.9568</ele>
        <time>2021-07-06T06:45:24Z</time>
      </trkpt>
      <trkpt lat="41.99126" lon="-5.50588">
        <ele>732.7908</ele>
        <time>2021-07-06T06:45:35Z</time>
      </trkpt>
      <trkpt lat="41.99181" lon="-5.50999">
        <ele>732.3641</ele>
        <time>2021-07-06T06:45:46Z</time>
      </trkpt>
      <trkpt lat="41.99235" lon="-5.51402">
        <ele>730.5573</ele>
        <time>2021-07-06T06:45:57Z</time>
      </trkpt>
      <trkpt lat="41.99287" lon="-5.51794">
        <ele>730.4332</ele>
        <time>2021-07-06T06:46:08Z</time>
      </trkpt>
      <trkpt lat="41.99341" lon="-5.52195">
        <ele>728.4266</ele>
        <time>2021-07-06T06:46:19Z</time>
      </trkpt>
      <trkpt lat="41.99398" lon="-5.52589">
        <ele>726.0187</ele>
        <time>2021-07-06T06:46:30Z</time>
      </trkpt>
      <trkpt lat="41.99513" lon="-5.52967">
        <ele>723.7047</ele>
        <time>2021-07-06T06:46:41Z</time>
      </trkpt>
      <trkpt lat="41.99626" lon="-5.53341">
        <ele>722.5445</ele>
        <time>2021-07-06T06:46:52Z</time>
      </trkpt>
      <trkpt lat="41.99738" lon="-5.5372">
        <ele>720.2713</ele>
        <time>2021-07-06T06:47:03Z</time>
      </trkpt>
      <trkpt lat="41.99884" lon="-5.54067">
        <ele>717.303</ele>
        <time>2021-07-06T06:47:14Z</time>
      </trkpt>
      <trkpt lat="42.00033" lon="-5.54367">
        <ele>715.3959</ele>
        <time>2021-07-06T06:47:25Z</time>
      </trkpt>
      <trkpt lat="42.00129" lon="-5.54614">
        <ele>715.1188</ele>
        <time>2021-07-06T06:47:36Z</time>
      </trkpt>
      <trkpt lat="42.00215" lon="-5.54841">
        <ele>715.3433</ele>
        <time>2021-07-06T06:47:47Z</time>
      </trkpt>
      <trkpt lat="42.0018" lon="-5.55096">
        <ele>717.8571</ele>
        <time>2021-07-06T06:47:58Z</time>
      </trkpt>
      <trkpt lat="42.00084" lon="-5.55424">
        <ele>718.2264</ele>
        <time>2021-07-06T06:48:09Z</time>
      </trkpt>
      <trkpt lat="41.99979" lon="-5.5577">
        <ele>717.2771</ele>
        <time>2021-07-06T06:48:20Z</time>
      </trkpt>
      <trkpt lat="41.99873" lon="-5.56119">
        <ele>716.1118</ele>
        <time>2021-07-06T06:48:31Z</time>
      </trkpt>
      <trkpt lat="41.99767" lon="-5.56476">
        <ele>716.1942</ele>
        <time>2021-07-06T06:48:42Z</time>
      </trkpt>
      <trkpt lat="41.99654" lon="-5.56845">
        <ele>717.0468</ele>
        <time>2021-07-06T06:48:53Z</time>
      </trkpt>
      <trkpt lat="41.9954" lon="-5.57225">
        <ele>717.8206</ele>
        <time>2021-07-06T06:49:04Z</time>
      </trkpt>
      <trkpt lat="41.99424" lon="-5.57611">
        <ele>718.543</ele>
        <time>2021-07-06T06:49:15Z</time>
      </trkpt>
      <trkpt lat="41.99308" lon="-5.57996">
        <ele>717.8734</ele>
        <time>2021-07-06T06:49:26Z</time>
      </trkpt>
      <trkpt lat="41.99195" lon="-5.58379">
        <ele>717.5699</ele>
        <time>2021-07-06T06:49:37Z</time>
      </trkpt>
      <trkpt lat="41.9908" lon="-5.58755">
        <ele>717.2453</ele>
        <time>2021-07-06T06:49:48Z</time>
      </trkpt>
      <trkpt lat="41.98984" lon="-5.59123">
        <ele>718.2594</ele>
        <time>2021-07-06T06:49:59Z</time>
      </trkpt>
      <trkpt lat="41.98915" lon="-5.59494">
        <ele>719.6691</ele>
        <time>2021-07-06T06:50:10Z</time>
      </trkpt>
      <trkpt lat="41.98851" lon="-5.5984">
        <ele>716.5531</ele>
        <time>2021-07-06T06:50:21Z</time>
      </trkpt>
      <trkpt lat="41.98761" lon="-5.60057">
        <ele>704.1659</ele>
        <time>2021-07-06T06:50:32Z</time>
      </trkpt>
      <trkpt lat="41.98658" lon="-5.60282">
        <ele>716.4524</ele>
        <time>2021-07-06T06:50:43Z</time>
      </trkpt>
      <trkpt lat="41.98563" lon="-5.60486">
        <ele>720.6984</ele>
        <time>2021-07-06T06:50:54Z</time>
      </trkpt>
      <trkpt lat="41.98445" lon="-5.60737">
        <ele>723.877</ele>
        <time>2021-07-06T06:51:05Z</time>
      </trkpt>
      <trkpt lat="41.98341" lon="-5.60955">
        <ele>723.047</ele>
        <time>2021-07-06T06:51:16Z</time>
      </trkpt>
      <trkpt lat="41.98301" lon="-5.61104">
        <ele>722.518</ele>
        <time>2021-07-06T06:51:27Z</time>
      </trkpt>
      <trkpt lat="41.98446" lon="-5.61191">
        <ele>726.8472</ele>
        <time>2021-07-06T06:51:38Z</time>
      </trkpt>
      <trkpt lat="41.98534" lon="-5.61318">
        <ele>737.2608</ele>
        <time>2021-07-06T06:51:49Z</time>
      </trkpt>
      <trkpt lat="41.98458" lon="-5.61498">
        <ele>736.7852</ele>
        <time>2021-07-06T06:52:00Z</time>
      </trkpt>
      <trkpt lat="41.98366" lon="-5.61713">
        <ele>729.9181</ele>
        <time>2021-07-06T06:52:11Z</time>
      </trkpt>
      <trkpt lat="41.98401" lon="-5.61892">
        <ele>723.8292</ele>
        <time>2021-07-06T06:52:22Z</time>
      </trkpt>
      <trkpt lat="41.98349" lon="-5.62109">
        <ele>711.7217</ele>
        <time>2021-07-06T06:52:33Z</time>
      </trkpt>
      <trkpt lat="41.98385" lon="-5.6227">
        <ele>705.3068</ele>
        <time>2021-07-06T06:52:44Z</time>
      </trkpt>
      <trkpt lat="41.98444" lon="-5.62453">
        <ele>705.1406</ele>
        <time>2021-07-06T06:52:55Z</time>
      </trkpt>
      <trkpt lat="41.98489" lon="-5.62607">
        <ele>703.0436</ele>
        <time>2021-07-06T06:53:06Z</time>
      </trkpt>
      <trkpt lat="41.98518" lon="-5.62769">
        <ele>704.4906</ele>
        <time>2021-07-06T06:53:17Z</time>
      </trkpt>
      <trkpt lat="41.98494" lon="-5.62897">
        <ele>702.3121</ele>
        <time>2021-07-06T06:53:28Z</time>
      </trkpt>
      <trkpt lat="41.98533" lon="-5.63081">
        <ele>703.9521</ele>
        <time>2021-07-06T06:53:39Z</time>
      </trkpt>
      <trkpt lat="41.98567" lon="-5.63287">
        <ele>700.3479</ele>
        <time>2021-07-06T06:53:50Z</time>
      </trkpt>
      <trkpt lat="41.98616" lon="-5.63407">
        <ele>699.055</ele>
        <time>2021-07-06T06:53:56Z</time>
      </trkpt>
      <trkpt lat="41.98678" lon="-5.63552">
        <ele>699.5361</ele>
        <time>2021-07-06T06:54:02Z</time>
      </trkpt>
      <trkpt lat="41.98733" lon="-5.63679">
        <ele>699.8586</ele>
        <time>2021-07-06T06:54:08Z</time>
      </trkpt>
      <trkpt lat="41.98826" lon="-5.63903">
        <ele>701.6779</ele>
        <time>2021-07-06T06:54:19Z</time>
      </trkpt>
      <trkpt lat="41.98924" lon="-5.64139">
        <ele>700.8891</ele>
        <time>2021-07-06T06:54:30Z</time>
      </trkpt>
      <trkpt lat="41.98997" lon="-5.64312">
        <ele>700.2119</ele>
        <time>2021-07-06T06:54:41Z</time>
      </trkpt>
      <trkpt lat="41.99046" lon="-5.64302">
        <ele>701.7013</ele>
        <time>2021-07-06T06:54:52Z</time>
      </trkpt>
      <trkpt lat="41.99047" lon="-5.64302">
        <ele>699.1228</ele>
        <time>2021-07-06T06:55:51Z</time>
      </trkpt>
      <trkpt lat="41.9905" lon="-5.643">
        <ele>701.6752</ele>
        <time>2021-07-06T06:56:15Z</time>
      </trkpt>
      <trkpt lat="41.99093" lon="-5.64282">
        <ele>702.4879</ele>
        <time>2021-07-06T06:56:26Z</time>
      </trkpt>
      <trkpt lat="41.99159" lon="-5.64481">
        <ele>704.4715</ele>
        <time>2021-07-06T06:56:37Z</time>
      </trkpt>
      <trkpt lat="41.99256" lon="-5.64728">
        <ele>705.0481</ele>
        <time>2021-07-06T06:56:48Z</time>
      </trkpt>
      <trkpt lat="41.99352" lon="-5.64965">
        <ele>705.4646</ele>
        <time>2021-07-06T06:56:59Z</time>
      </trkpt>
      <trkpt lat="41.99441" lon="-5.65111">
        <ele>704.0046</ele>
        <time>2021-07-06T06:57:10Z</time>
      </trkpt>
      <trkpt lat="41.99503" lon="-5.65343">
        <ele>704.9446</ele>
        <time>2021-07-06T06:57:21Z</time>
      </trkpt>
      <trkpt lat="41.99601" lon="-5.65585">
        <ele>707.087</ele>
        <time>2021-07-06T06:57:32Z</time>
      </trkpt>
      <trkpt lat="41.99672" lon="-5.65749">
        <ele>707.1226</ele>
        <time>2021-07-06T06:57:43Z</time>
      </trkpt>
      <trkpt lat="41.99628" lon="-5.65948">
        <ele>706.8844</ele>
        <time>2021-07-06T06:57:54Z</time>
      </trkpt>
      <trkpt lat="41.99561" lon="-5.66243">
        <ele>704.3164</ele>
        <time>2021-07-06T06:58:05Z</time>
      </trkpt>
      <trkpt lat="41.9949" lon="-5.66552">
        <ele>703.6766</ele>
        <time>2021-07-06T06:58:16Z</time>
      </trkpt>
      <trkpt lat="41.99423" lon="-5.66845">
        <ele>703.6204</ele>
        <time>2021-07-06T06:58:27Z</time>
      </trkpt>
      <trkpt lat="41.99351" lon="-5.67157">
        <ele>702.8515</ele>
        <time>2021-07-06T06:58:38Z</time>
      </trkpt>
      <trkpt lat="41.99268" lon="-5.67488">
        <ele>701.5684</ele>
        <time>2021-07-06T06:58:49Z</time>
      </trkpt>
      <trkpt lat="41.9923" lon="-5.67826">
        <ele>706.5758</ele>
        <time>2021-07-06T06:59:00Z</time>
      </trkpt>
      <trkpt lat="41.9933" lon="-5.68126">
        <ele>712.9407</ele>
        <time>2021-07-06T06:59:11Z</time>
      </trkpt>
      <trkpt lat="41.99455" lon="-5.684">
        <ele>705.6615</ele>
        <time>2021-07-06T06:59:22Z</time>
      </trkpt>
      <trkpt lat="41.99538" lon="-5.68699">
        <ele>708.0218</ele>
        <time>2021-07-06T06:59:33Z</time>
      </trkpt>
      <trkpt lat="41.99618" lon="-5.69013">
        <ele>706.1484</ele>
        <time>2021-07-06T06:59:44Z</time>
      </trkpt>
      <trkpt lat="41.99702" lon="-5.69336">
        <ele>707.862</ele>
        <time>2021-07-06T06:59:55Z</time>
      </trkpt>
      <trkpt lat="41.99787" lon="-5.69663">
        <ele>706.3923</ele>
        <time>2021-07-06T07:00:06Z</time>
      </trkpt>
      <trkpt lat="41.99885" lon="-5.69998">
        <ele>708.0947</ele>
        <time>2021-07-06T07:00:17Z</time>
      </trkpt>
      <trkpt lat="42.00046" lon="-5.7029">
        <ele>712.0276</ele>
        <time>2021-07-06T07:00:28Z</time>
      </trkpt>
      <trkpt lat="42.00169" lon="-5.70582">
        <ele>712.9567</ele>
        <time>2021-07-06T07:00:39Z</time>
      </trkpt>
      <trkpt lat="42.00114" lon="-5.7086">
        <ele>710.0656</ele>
        <time>2021-07-06T07:00:50Z</time>
      </trkpt>
      <trkpt lat="42.00086" lon="-5.71084">
        <ele>707.791</ele>
        <time>2021-07-06T07:01:01Z</time>
      </trkpt>
      <trkpt lat="42.00087" lon="-5.71285">
        <ele>708.1645</ele>
        <time>2021-07-06T07:01:12Z</time>
      </trkpt>
      <trkpt lat="42.00084" lon="-5.71473">
        <ele>708.717</ele>
        <time>2021-07-06T07:01:23Z</time>
      </trkpt>
      <trkpt lat="42.0007" lon="-5.71664">
        <ele>710.3489</ele>
        <time>2021-07-06T07:01:34Z</time>
      </trkpt>
      <trkpt lat="42.00069" lon="-5.71841">
        <ele>710.0014</ele>
        <time>2021-07-06T07:01:45Z</time>
      </trkpt>
      <trkpt lat="42.00068" lon="-5.72035">
        <ele>710.8915</ele>
        <time>2021-07-06T07:01:56Z</time>
      </trkpt>
      <trkpt lat="42.00066" lon="-5.72248">
        <ele>709.8012</ele>
        <time>2021-07-06T07:02:07Z</time>
      </trkpt>
      <trkpt lat="42.00064" lon="-5.7247">
        <ele>711.6316</ele>
        <time>2021-07-06T07:02:18Z</time>
      </trkpt>
      <trkpt lat="42.00059" lon="-5.72717">
        <ele>710.0165</ele>
        <time>2021-07-06T07:02:29Z</time>
      </trkpt>
      <trkpt lat="42.00056" lon="-5.72991">
        <ele>709.2443</ele>
        <time>2021-07-06T07:02:40Z</time>
      </trkpt>
      <trkpt lat="42.0005" lon="-5.73306">
        <ele>707.4654</ele>
        <time>2021-07-06T07:02:51Z</time>
      </trkpt>
      <trkpt lat="42.00049" lon="-5.73695">
        <ele>707.3056</ele>
        <time>2021-07-06T07:03:02Z</time>
      </trkpt>
      <trkpt lat="42.00046" lon="-5.74066">
        <ele>709.0556</ele>
        <time>2021-07-06T07:03:13Z</time>
      </trkpt>
      <trkpt lat="42.00042" lon="-5.74442">
        <ele>710.3656</ele>
        <time>2021-07-06T07:03:24Z</time>
      </trkpt>
      <trkpt lat="42.00038" lon="-5.74809">
        <ele>721.5084</ele>
        <time>2021-07-06T07:03:35Z</time>
      </trkpt>
      <trkpt lat="42.00033" lon="-5.75161">
        <ele>729.6722</ele>
        <time>2021-07-06T07:03:46Z</time>
      </trkpt>
      <trkpt lat="42.00029" lon="-5.75511">
        <ele>732.8849</ele>
        <time>2021-07-06T07:03:57Z</time>
      </trkpt>
      <trkpt lat="42.00005" lon="-5.7586">
        <ele>738.958</ele>
        <time>2021-07-06T07:04:08Z</time>
      </trkpt>
      <trkpt lat="41.99964" lon="-5.76186">
        <ele>750.4373</ele>
        <time>2021-07-06T07:04:19Z</time>
      </trkpt>
      <trkpt lat="41.99923" lon="-5.76527">
        <ele>753.4365</ele>
        <time>2021-07-06T07:04:30Z</time>
      </trkpt>
      <trkpt lat="41.9988" lon="-5.76879">
        <ele>754.7402</ele>
        <time>2021-07-06T07:04:41Z</time>
      </trkpt>
      <trkpt lat="41.99844" lon="-5.77235">
        <ele>753.7064</ele>
        <time>2021-07-06T07:04:52Z</time>
      </trkpt>
      <trkpt lat="41.99883" lon="-5.77568">
        <ele>754.8856</ele>
        <time>2021-07-06T07:05:03Z</time>
      </trkpt>
      <trkpt lat="41.99949" lon="-5.77856">
        <ele>747.1857</ele>
        <time>2021-07-06T07:05:14Z</time>
      </trkpt>
      <trkpt lat="41.99984" lon="-5.78203">
        <ele>746.4606</ele>
        <time>2021-07-06T07:05:25Z</time>
      </trkpt>
      <trkpt lat="41.99965" lon="-5.78579">
        <ele>742.1314</ele>
        <time>2021-07-06T07:05:36Z</time>
      </trkpt>
      <trkpt lat="41.99943" lon="-5.78918">
        <ele>738.9127</ele>
        <time>2021-07-06T07:05:47Z</time>
      </trkpt>
      <trkpt lat="41.99959" lon="-5.79263">
        <ele>735.0687</ele>
        <time>2021-07-06T07:05:58Z</time>
      </trkpt>
      <trkpt lat="42.00024" lon="-5.79596">
        <ele>728.3805</ele>
        <time>2021-07-06T07:06:09Z</time>
      </trkpt>
      <trkpt lat="42.00088" lon="-5.79922">
        <ele>719.8877</ele>
        <time>2021-07-06T07:06:20Z</time>
      </trkpt>
      <trkpt lat="42.00146" lon="-5.8022">
        <ele>714.1522</ele>
        <time>2021-07-06T07:06:31Z</time>
      </trkpt>
      <trkpt lat="42.00193" lon="-5.80457">
        <ele>712.3229</ele>
        <time>2021-07-06T07:06:42Z</time>
      </trkpt>
      <trkpt lat="42.00241" lon="-5.807">
        <ele>711.687</ele>
        <time>2021-07-06T07:06:53Z</time>
      </trkpt>
      <trkpt lat="42.00284" lon="-5.80924">
        <ele>708.9158</ele>
        <time>2021-07-06T07:07:04Z</time>
      </trkpt>
      <trkpt lat="42.00325" lon="-5.81124">
        <ele>708.3229</ele>
        <time>2021-07-06T07:07:15Z</time>
      </trkpt>
      <trkpt lat="42.0036" lon="-5.8129">
        <ele>707.5802</ele>
        <time>2021-07-06T07:07:26Z</time>
      </trkpt>
      <trkpt lat="42.00406" lon="-5.8155">
        <ele>711.7778</ele>
        <time>2021-07-06T07:07:37Z</time>
      </trkpt>
      <trkpt lat="42.00436" lon="-5.81938">
        <ele>709.7538</ele>
        <time>2021-07-06T07:07:48Z</time>
      </trkpt>
      <trkpt lat="42.0045" lon="-5.82314">
        <ele>710.7194</ele>
        <time>2021-07-06T07:07:59Z</time>
      </trkpt>
      <trkpt lat="42.00464" lon="-5.82719">
        <ele>710.4319</ele>
        <time>2021-07-06T07:08:10Z</time>
      </trkpt>
      <trkpt lat="42.00479" lon="-5.83117">
        <ele>706.6945</ele>
        <time>2021-07-06T07:08:21Z</time>
      </trkpt>
      <trkpt lat="42.00494" lon="-5.83507">
        <ele>707.105</ele>
        <time>2021-07-06T07:08:32Z</time>
      </trkpt>
      <trkpt lat="42.00509" lon="-5.83898">
        <ele>707.295</ele>
        <time>2021-07-06T07:08:44Z</time>
      </trkpt>
      <trkpt lat="42.00522" lon="-5.84284">
        <ele>707.1582</ele>
        <time>2021-07-06T07:08:55Z</time>
      </trkpt>
      <trkpt lat="42.00539" lon="-5.84647">
        <ele>707.7385</ele>
        <time>2021-07-06T07:09:06Z</time>
      </trkpt>
      <trkpt lat="42.00551" lon="-5.85014">
        <ele>710.3868</ele>
        <time>2021-07-06T07:09:17Z</time>
      </trkpt>
      <trkpt lat="42.00564" lon="-5.8536">
        <ele>712.8664</ele>
        <time>2021-07-06T07:09:28Z</time>
      </trkpt>
      <trkpt lat="42.00573" lon="-5.85728">
        <ele>712.1017</ele>
        <time>2021-07-06T07:09:39Z</time>
      </trkpt>
      <trkpt lat="42.00593" lon="-5.86193">
        <ele>714.599</ele>
        <time>2021-07-06T07:09:50Z</time>
      </trkpt>
      <trkpt lat="42.00608" lon="-5.86605">
        <ele>715.8053</ele>
        <time>2021-07-06T07:10:01Z</time>
      </trkpt>
      <trkpt lat="42.00623" lon="-5.87017">
        <ele>715.2957</ele>
        <time>2021-07-06T07:10:12Z</time>
      </trkpt>
      <trkpt lat="42.00637" lon="-5.87429">
        <ele>714.9053</ele>
        <time>2021-07-06T07:10:23Z</time>
      </trkpt>
      <trkpt lat="42.00652" lon="-5.87843">
        <ele>716.6484</ele>
        <time>2021-07-06T07:10:34Z</time>
      </trkpt>
      <trkpt lat="42.00666" lon="-5.88224">
        <ele>714.6809</ele>
        <time>2021-07-06T07:10:45Z</time>
      </trkpt>
      <trkpt lat="42.00679" lon="-5.8863">
        <ele>715.7668</ele>
        <time>2021-07-06T07:10:56Z</time>
      </trkpt>
      <trkpt lat="42.00694" lon="-5.89022">
        <ele>714.9697</ele>
        <time>2021-07-06T07:11:07Z</time>
      </trkpt>
      <trkpt lat="42.00707" lon="-5.89401">
        <ele>714.643</ele>
        <time>2021-07-06T07:11:18Z</time>
      </trkpt>
      <trkpt lat="42.0072" lon="-5.89769">
        <ele>714.7902</ele>
        <time>2021-07-06T07:11:29Z</time>
      </trkpt>
      <trkpt lat="42.0073" lon="-5.90067">
        <ele>715.8918</ele>
        <time>2021-07-06T07:11:40Z</time>
      </trkpt>
      <trkpt lat="42.00742" lon="-5.90353">
        <ele>718.2074</ele>
        <time>2021-07-06T07:11:51Z</time>
      </trkpt>
      <trkpt lat="42.00751" lon="-5.90591">
        <ele>725.339</ele>
        <time>2021-07-06T07:12:02Z</time>
      </trkpt>
      <trkpt lat="42.00718" lon="-5.9082">
        <ele>726.7309</ele>
        <time>2021-07-06T07:12:13Z</time>
      </trkpt>
      <trkpt lat="42.00573" lon="-5.91158">
        <ele>726.8347</ele>
        <time>2021-07-06T07:12:24Z</time>
      </trkpt>
      <trkpt lat="42.00442" lon="-5.91463">
        <ele>729.7358</ele>
        <time>2021-07-06T07:12:35Z</time>
      </trkpt>
      <trkpt lat="42.00309" lon="-5.91797">
        <ele>734.9155</ele>
        <time>2021-07-06T07:12:46Z</time>
      </trkpt>
      <trkpt lat="42.00294" lon="-5.92197">
        <ele>728.6923</ele>
        <time>2021-07-06T07:12:57Z</time>
      </trkpt>
      <trkpt lat="42.00261" lon="-5.92583">
        <ele>721.4337</ele>
        <time>2021-07-06T07:13:08Z</time>
      </trkpt>
      <trkpt lat="42.00213" lon="-5.92977">
        <ele>719.7069</ele>
        <time>2021-07-06T07:13:19Z</time>
      </trkpt>
      <trkpt lat="42.00162" lon="-5.93374">
        <ele>720.7005</ele>
        <time>2021-07-06T07:13:30Z</time>
      </trkpt>
      <trkpt lat="42.00113" lon="-5.93767">
        <ele>721.017</ele>
        <time>2021-07-06T07:13:41Z</time>
      </trkpt>
      <trkpt lat="42.0006" lon="-5.94168">
        <ele>726.4002</ele>
        <time>2021-07-06T07:13:52Z</time>
      </trkpt>
      <trkpt lat="42.00008" lon="-5.94604">
        <ele>730.0049</ele>
        <time>2021-07-06T07:14:03Z</time>
      </trkpt>
      <trkpt lat="41.99971" lon="-5.9497">
        <ele>731.1122</ele>
        <time>2021-07-06T07:14:14Z</time>
      </trkpt>
      <trkpt lat="41.99922" lon="-5.95398">
        <ele>733.9575</ele>
        <time>2021-07-06T07:14:25Z</time>
      </trkpt>
      <trkpt lat="41.99831" lon="-5.95736">
        <ele>733.473</ele>
        <time>2021-07-06T07:14:36Z</time>
      </trkpt>
      <trkpt lat="41.99731" lon="-5.96102">
        <ele>733.7635</ele>
        <time>2021-07-06T07:14:47Z</time>
      </trkpt>
      <trkpt lat="41.99632" lon="-5.96468">
        <ele>733.1845</ele>
        <time>2021-07-06T07:14:58Z</time>
      </trkpt>
      <trkpt lat="41.99564" lon="-5.96752">
        <ele>734.3239</ele>
        <time>2021-07-06T07:15:09Z</time>
      </trkpt>
      <trkpt lat="41.99527" lon="-5.96996">
        <ele>738.4556</ele>
        <time>2021-07-06T07:15:20Z</time>
      </trkpt>
      <trkpt lat="41.99506" lon="-5.97234">
        <ele>739.4232</ele>
        <time>2021-07-06T07:15:31Z</time>
      </trkpt>
      <trkpt lat="41.99583" lon="-5.97461">
        <ele>746.7243</ele>
        <time>2021-07-06T07:15:42Z</time>
      </trkpt>
      <trkpt lat="41.99678" lon="-5.97753">
        <ele>746.797</ele>
        <time>2021-07-06T07:15:53Z</time>
      </trkpt>
      <trkpt lat="41.99655" lon="-5.98138">
        <ele>738.2942</ele>
        <time>2021-07-06T07:16:04Z</time>
      </trkpt>
      <trkpt lat="41.99632" lon="-5.98535">
        <ele>728.8171</ele>
        <time>2021-07-06T07:16:15Z</time>
      </trkpt>
      <trkpt lat="41.99674" lon="-5.98907">
        <ele>726.7645</ele>
        <time>2021-07-06T07:16:26Z</time>
      </trkpt>
      <trkpt lat="41.99712" lon="-5.99233">
        <ele>728.3948</ele>
        <time>2021-07-06T07:16:37Z</time>
      </trkpt>
      <trkpt lat="41.99751" lon="-5.99546">
        <ele>726.8045</ele>
        <time>2021-07-06T07:16:48Z</time>
      </trkpt>
      <trkpt lat="41.9979" lon="-5.99872">
        <ele>727.101</ele>
        <time>2021-07-06T07:16:59Z</time>
      </trkpt>
      <trkpt lat="41.99819" lon="-6.00204">
        <ele>727.1028</ele>
        <time>2021-07-06T07:17:10Z</time>
      </trkpt>
      <trkpt lat="41.99831" lon="-6.00544">
        <ele>727.9418</ele>
        <time>2021-07-06T07:17:21Z</time>
      </trkpt>
      <trkpt lat="41.99872" lon="-6.00876">
        <ele>729.248</ele>
        <time>2021-07-06T07:17:32Z</time>
      </trkpt>
      <trkpt lat="41.99918" lon="-6.01195">
        <ele>731.8374</ele>
        <time>2021-07-06T07:17:43Z</time>
      </trkpt>
      <trkpt lat="41.99952" lon="-6.01457">
        <ele>735.0592</ele>
        <time>2021-07-06T07:17:54Z</time>
      </trkpt>
      <trkpt lat="41.99975" lon="-6.01672">
        <ele>730.8895</ele>
        <time>2021-07-06T07:18:05Z</time>
      </trkpt>
      <trkpt lat="41.99962" lon="-6.01771">
        <ele>735.7284</ele>
        <time>2021-07-06T07:18:16Z</time>
      </trkpt>
      <trkpt lat="41.99862" lon="-6.0202">
        <ele>734.4967</ele>
        <time>2021-07-06T07:18:27Z</time>
      </trkpt>
      <trkpt lat="41.99732" lon="-6.02269">
        <ele>734.912</ele>
        <time>2021-07-06T07:18:38Z</time>
      </trkpt>
      <trkpt lat="41.9964" lon="-6.02492">
        <ele>733.7037</ele>
        <time>2021-07-06T07:18:49Z</time>
      </trkpt>
      <trkpt lat="41.99561" lon="-6.02708">
        <ele>736.9217</ele>
        <time>2021-07-06T07:19:00Z</time>
      </trkpt>
      <trkpt lat="41.99486" lon="-6.02917">
        <ele>740.0732</ele>
        <time>2021-07-06T07:19:11Z</time>
      </trkpt>
      <trkpt lat="41.99412" lon="-6.03131">
        <ele>741.9965</ele>
        <time>2021-07-06T07:19:22Z</time>
      </trkpt>
      <trkpt lat="41.99327" lon="-6.03373">
        <ele>741.4443</ele>
        <time>2021-07-06T07:19:33Z</time>
      </trkpt>
      <trkpt lat="41.99228" lon="-6.03643">
        <ele>741.2318</ele>
        <time>2021-07-06T07:19:44Z</time>
      </trkpt>
      <trkpt lat="41.99118" lon="-6.03968">
        <ele>741.4685</ele>
        <time>2021-07-06T07:19:55Z</time>
      </trkpt>
      <trkpt lat="41.9908" lon="-6.04332">
        <ele>744.4646</ele>
        <time>2021-07-06T07:20:06Z</time>
      </trkpt>
      <trkpt lat="41.9909" lon="-6.04705">
        <ele>744.1201</ele>
        <time>2021-07-06T07:20:17Z</time>
      </trkpt>
      <trkpt lat="41.9913" lon="-6.05086">
        <ele>741.3583</ele>
        <time>2021-07-06T07:20:28Z</time>
      </trkpt>
      <trkpt lat="41.99172" lon="-6.05468">
        <ele>742.2766</ele>
        <time>2021-07-06T07:20:39Z</time>
      </trkpt>
      <trkpt lat="41.99211" lon="-6.05833">
        <ele>743.2361</ele>
        <time>2021-07-06T07:20:50Z</time>
      </trkpt>
      <trkpt lat="41.99251" lon="-6.06193">
        <ele>742.5224</ele>
        <time>2021-07-06T07:21:01Z</time>
      </trkpt>
      <trkpt lat="41.99292" lon="-6.06562">
        <ele>740.6642</ele>
        <time>2021-07-06T07:21:12Z</time>
      </trkpt>
      <trkpt lat="41.99332" lon="-6.06933">
        <ele>740.6278</ele>
        <time>2021-07-06T07:21:23Z</time>
      </trkpt>
      <trkpt lat="41.99369" lon="-6.073">
        <ele>742.3692</ele>
        <time>2021-07-06T07:21:34Z</time>
      </trkpt>
      <trkpt lat="41.99408" lon="-6.07657">
        <ele>742.7375</ele>
        <time>2021-07-06T07:21:45Z</time>
      </trkpt>
      <trkpt lat="41.99446" lon="-6.08015">
        <ele>745.6394</ele>
        <time>2021-07-06T07:21:56Z</time>
      </trkpt>
      <trkpt lat="41.99487" lon="-6.0838">
        <ele>747.8217</ele>
        <time>2021-07-06T07:22:07Z</time>
      </trkpt>
      <trkpt lat="41.99535" lon="-6.0875">
        <ele>752.6298</ele>
        <time>2021-07-06T07:22:18Z</time>
      </trkpt>
      <trkpt lat="41.99643" lon="-6.09106">
        <ele>761.8427</ele>
        <time>2021-07-06T07:22:29Z</time>
      </trkpt>
      <trkpt lat="41.99728" lon="-6.09486">
        <ele>753.7222</ele>
        <time>2021-07-06T07:22:40Z</time>
      </trkpt>
      <trkpt lat="41.99813" lon="-6.09879">
        <ele>748.3163</ele>
        <time>2021-07-06T07:22:51Z</time>
      </trkpt>
      <trkpt lat="41.99892" lon="-6.10262">
        <ele>748.7145</ele>
        <time>2021-07-06T07:23:02Z</time>
      </trkpt>
      <trkpt lat="41.99973" lon="-6.10644">
        <ele>747.8914</ele>
        <time>2021-07-06T07:23:13Z</time>
      </trkpt>
      <trkpt lat="42.00058" lon="-6.11029">
        <ele>748.7397</ele>
        <time>2021-07-06T07:23:24Z</time>
      </trkpt>
      <trkpt lat="42.00066" lon="-6.11421">
        <ele>750.7888</ele>
        <time>2021-07-06T07:23:35Z</time>
      </trkpt>
      <trkpt lat="41.99938" lon="-6.11797">
        <ele>749.6507</ele>
        <time>2021-07-06T07:23:46Z</time>
      </trkpt>
      <trkpt lat="41.99827" lon="-6.12117">
        <ele>748.0794</ele>
        <time>2021-07-06T07:23:57Z</time>
      </trkpt>
      <trkpt lat="41.99743" lon="-6.12369">
        <ele>747.584</ele>
        <time>2021-07-06T07:24:08Z</time>
      </trkpt>
      <trkpt lat="41.99697" lon="-6.12589">
        <ele>752.2958</ele>
        <time>2021-07-06T07:24:19Z</time>
      </trkpt>
      <trkpt lat="41.99732" lon="-6.12879">
        <ele>755.6677</ele>
        <time>2021-07-06T07:24:30Z</time>
      </trkpt>
      <trkpt lat="41.99776" lon="-6.13247">
        <ele>757.8357</ele>
        <time>2021-07-06T07:24:41Z</time>
      </trkpt>
      <trkpt lat="41.99821" lon="-6.13629">
        <ele>759.6254</ele>
        <time>2021-07-06T07:24:52Z</time>
      </trkpt>
      <trkpt lat="41.99867" lon="-6.1402">
        <ele>761.0892</ele>
        <time>2021-07-06T07:25:03Z</time>
      </trkpt>
      <trkpt lat="41.99915" lon="-6.1441">
        <ele>765.2986</ele>
        <time>2021-07-06T07:25:14Z</time>
      </trkpt>
      <trkpt lat="41.99963" lon="-6.14805">
        <ele>766.1595</ele>
        <time>2021-07-06T07:25:25Z</time>
      </trkpt>
      <trkpt lat="42.00014" lon="-6.15207">
        <ele>768.0432</ele>
        <time>2021-07-06T07:25:36Z</time>
      </trkpt>
      <trkpt lat="42.00059" lon="-6.15548">
        <ele>768.115</ele>
        <time>2021-07-06T07:25:47Z</time>
      </trkpt>
      <trkpt lat="42.00091" lon="-6.15807">
        <ele>775.1091</ele>
        <time>2021-07-06T07:25:58Z</time>
      </trkpt>
      <trkpt lat="42.00121" lon="-6.16053">
        <ele>782.1771</ele>
        <time>2021-07-06T07:26:09Z</time>
      </trkpt>
      <trkpt lat="42.00146" lon="-6.16312">
        <ele>790.2998</ele>
        <time>2021-07-06T07:26:20Z</time>
      </trkpt>
      <trkpt lat="42.00181" lon="-6.16647">
        <ele>790.5637</ele>
        <time>2021-07-06T07:26:31Z</time>
      </trkpt>
      <trkpt lat="42.00219" lon="-6.17014">
        <ele>785.9448</ele>
        <time>2021-07-06T07:26:42Z</time>
      </trkpt>
      <trkpt lat="42.00258" lon="-6.17389">
        <ele>782.8396</ele>
        <time>2021-07-06T07:26:53Z</time>
      </trkpt>
      <trkpt lat="42.00299" lon="-6.17777">
        <ele>785.6645</ele>
        <time>2021-07-06T07:27:04Z</time>
      </trkpt>
      <trkpt lat="42.00339" lon="-6.18165">
        <ele>790.5035</ele>
        <time>2021-07-06T07:27:15Z</time>
      </trkpt>
      <trkpt lat="42.0038" lon="-6.18562">
        <ele>797.0886</ele>
        <time>2021-07-06T07:27:26Z</time>
      </trkpt>
      <trkpt lat="42.00421" lon="-6.18955">
        <ele>797.3313</ele>
        <time>2021-07-06T07:27:37Z</time>
      </trkpt>
      <trkpt lat="42.00461" lon="-6.19349">
        <ele>800.309</ele>
        <time>2021-07-06T07:27:48Z</time>
      </trkpt>
      <trkpt lat="42.00496" lon="-6.19746">
        <ele>805.8714</ele>
        <time>2021-07-06T07:27:59Z</time>
      </trkpt>
      <trkpt lat="42.00523" lon="-6.20142">
        <ele>805.4616</ele>
        <time>2021-07-06T07:28:10Z</time>
      </trkpt>
      <trkpt lat="42.00553" lon="-6.20548">
        <ele>805.1252</ele>
        <time>2021-07-06T07:28:21Z</time>
      </trkpt>
      <trkpt lat="42.00518" lon="-6.20949">
        <ele>798.0876</ele>
        <time>2021-07-06T07:28:32Z</time>
      </trkpt>
      <trkpt lat="42.00525" lon="-6.21354">
        <ele>794.4676</ele>
        <time>2021-07-06T07:28:43Z</time>
      </trkpt>
      <trkpt lat="42.00546" lon="-6.21743">
        <ele>791.6183</ele>
        <time>2021-07-06T07:28:54Z</time>
      </trkpt>
      <trkpt lat="42.00562" lon="-6.2204">
        <ele>792.0415</ele>
        <time>2021-07-06T07:29:05Z</time>
      </trkpt>
      <trkpt lat="42.00577" lon="-6.22326">
        <ele>791.649</ele>
        <time>2021-07-06T07:29:16Z</time>
      </trkpt>
      <trkpt lat="42.00593" lon="-6.22584">
        <ele>790.6576</ele>
        <time>2021-07-06T07:29:27Z</time>
      </trkpt>
      <trkpt lat="42.00643" lon="-6.22814">
        <ele>799.2805</ele>
        <time>2021-07-06T07:29:38Z</time>
      </trkpt>
      <trkpt lat="42.00694" lon="-6.23064">
        <ele>807.9433</ele>
        <time>2021-07-06T07:29:49Z</time>
      </trkpt>
      <trkpt lat="42.00733" lon="-6.23379">
        <ele>816.7394</ele>
        <time>2021-07-06T07:30:00Z</time>
      </trkpt>
      <trkpt lat="42.00775" lon="-6.23718">
        <ele>817.154</ele>
        <time>2021-07-06T07:30:11Z</time>
      </trkpt>
      <trkpt lat="42.00819" lon="-6.24069">
        <ele>826.9599</ele>
        <time>2021-07-06T07:30:22Z</time>
      </trkpt>
      <trkpt lat="42.00862" lon="-6.24412">
        <ele>839.6262</ele>
        <time>2021-07-06T07:30:33Z</time>
      </trkpt>
      <trkpt lat="42.00903" lon="-6.24749">
        <ele>849.8733</ele>
        <time>2021-07-06T07:30:44Z</time>
      </trkpt>
      <trkpt lat="42.00948" lon="-6.25105">
        <ele>854.8778</ele>
        <time>2021-07-06T07:30:55Z</time>
      </trkpt>
      <trkpt lat="42.00993" lon="-6.25469">
        <ele>855.5548</ele>
        <time>2021-07-06T07:31:06Z</time>
      </trkpt>
      <trkpt lat="42.01041" lon="-6.25847">
        <ele>860.0346</ele>
        <time>2021-07-06T07:31:17Z</time>
      </trkpt>
      <trkpt lat="42.01085" lon="-6.26207">
        <ele>859.8825</ele>
        <time>2021-07-06T07:31:28Z</time>
      </trkpt>
      <trkpt lat="42.0113" lon="-6.26555">
        <ele>860.7877</ele>
        <time>2021-07-06T07:31:39Z</time>
      </trkpt>
      <trkpt lat="42.01175" lon="-6.26923">
        <ele>861.3287</ele>
        <time>2021-07-06T07:31:50Z</time>
      </trkpt>
      <trkpt lat="42.01221" lon="-6.27304">
        <ele>861.6303</ele>
        <time>2021-07-06T07:32:01Z</time>
      </trkpt>
      <trkpt lat="42.0127" lon="-6.27699">
        <ele>865.9382</ele>
        <time>2021-07-06T07:32:12Z</time>
      </trkpt>
      <trkpt lat="42.01316" lon="-6.28096">
        <ele>870.5704</ele>
        <time>2021-07-06T07:32:23Z</time>
      </trkpt>
      <trkpt lat="42.01369" lon="-6.28499">
        <ele>877.6568</ele>
        <time>2021-07-06T07:32:34Z</time>
      </trkpt>
      <trkpt lat="42.01421" lon="-6.28907">
        <ele>886.7743</ele>
        <time>2021-07-06T07:32:45Z</time>
      </trkpt>
      <trkpt lat="42.01471" lon="-6.29314">
        <ele>890.5414</ele>
        <time>2021-07-06T07:32:56Z</time>
      </trkpt>
      <trkpt lat="42.01549" lon="-6.29713">
        <ele>888.6789</ele>
        <time>2021-07-06T07:33:07Z</time>
      </trkpt>
      <trkpt lat="42.01647" lon="-6.30104">
        <ele>887.6081</ele>
        <time>2021-07-06T07:33:18Z</time>
      </trkpt>
      <trkpt lat="42.01746" lon="-6.305">
        <ele>893.9603</ele>
        <time>2021-07-06T07:33:29Z</time>
      </trkpt>
      <trkpt lat="42.01841" lon="-6.30879">
        <ele>897.4975</ele>
        <time>2021-07-06T07:33:40Z</time>
      </trkpt>
      <trkpt lat="42.01934" lon="-6.31251">
        <ele>898.9265</ele>
        <time>2021-07-06T07:33:51Z</time>
      </trkpt>
      <trkpt lat="42.02015" lon="-6.31577">
        <ele>899.9825</ele>
        <time>2021-07-06T07:34:02Z</time>
      </trkpt>
      <trkpt lat="42.02093" lon="-6.31893">
        <ele>906.5033</ele>
        <time>2021-07-06T07:34:13Z</time>
      </trkpt>
      <trkpt lat="42.02156" lon="-6.32146">
        <ele>906.5977</ele>
        <time>2021-07-06T07:34:24Z</time>
      </trkpt>
      <trkpt lat="42.02216" lon="-6.32385">
        <ele>902.8055</ele>
        <time>2021-07-06T07:34:35Z</time>
      </trkpt>
      <trkpt lat="42.02275" lon="-6.32627">
        <ele>901.5786</ele>
        <time>2021-07-06T07:34:46Z</time>
      </trkpt>
      <trkpt lat="42.02302" lon="-6.32851">
        <ele>897.2597</ele>
        <time>2021-07-06T07:34:57Z</time>
      </trkpt>
      <trkpt lat="42.02341" lon="-6.33068">
        <ele>891.4958</ele>
        <time>2021-07-06T07:35:08Z</time>
      </trkpt>
      <trkpt lat="42.02364" lon="-6.33257">
        <ele>892.9996</ele>
        <time>2021-07-06T07:35:19Z</time>
      </trkpt>
      <trkpt lat="42.02368" lon="-6.33451">
        <ele>899.8134</ele>
        <time>2021-07-06T07:35:30Z</time>
      </trkpt>
      <trkpt lat="42.0237" lon="-6.33698">
        <ele>896.2027</ele>
        <time>2021-07-06T07:35:41Z</time>
      </trkpt>
      <trkpt lat="42.02371" lon="-6.33997">
        <ele>901.3585</ele>
        <time>2021-07-06T07:35:52Z</time>
      </trkpt>
      <trkpt lat="42.02377" lon="-6.34379">
        <ele>911.0612</ele>
        <time>2021-07-06T07:36:03Z</time>
      </trkpt>
      <trkpt lat="42.02379" lon="-6.34762">
        <ele>917.5536</ele>
        <time>2021-07-06T07:36:14Z</time>
      </trkpt>
      <trkpt lat="42.02383" lon="-6.3514">
        <ele>912.6425</ele>
        <time>2021-07-06T07:36:25Z</time>
      </trkpt>
      <trkpt lat="42.02387" lon="-6.35515">
        <ele>921.1243</ele>
        <time>2021-07-06T07:36:36Z</time>
      </trkpt>
      <trkpt lat="42.02391" lon="-6.35888">
        <ele>929.778</ele>
        <time>2021-07-06T07:36:47Z</time>
      </trkpt>
      <trkpt lat="42.02419" lon="-6.36262">
        <ele>937.934</ele>
        <time>2021-07-06T07:36:58Z</time>
      </trkpt>
      <trkpt lat="42.02489" lon="-6.3663">
        <ele>946.0495</ele>
        <time>2021-07-06T07:37:09Z</time>
      </trkpt>
      <trkpt lat="42.02558" lon="-6.37004">
        <ele>948.314</ele>
        <time>2021-07-06T07:37:20Z</time>
      </trkpt>
      <trkpt lat="42.02627" lon="-6.37372">
        <ele>944.3848</ele>
        <time>2021-07-06T07:37:31Z</time>
      </trkpt>
      <trkpt lat="42.02699" lon="-6.37755">
        <ele>938.9671</ele>
        <time>2021-07-06T07:37:42Z</time>
      </trkpt>
      <trkpt lat="42.02772" lon="-6.38149">
        <ele>938.258</ele>
        <time>2021-07-06T07:37:53Z</time>
      </trkpt>
      <trkpt lat="42.02845" lon="-6.3853">
        <ele>937.8484</ele>
        <time>2021-07-06T07:38:04Z</time>
      </trkpt>
      <trkpt lat="42.02917" lon="-6.3891">
        <ele>934.9307</ele>
        <time>2021-07-06T07:38:15Z</time>
      </trkpt>
      <trkpt lat="42.02989" lon="-6.39296">
        <ele>937.7655</ele>
        <time>2021-07-06T07:38:26Z</time>
      </trkpt>
      <trkpt lat="42.03061" lon="-6.39687">
        <ele>935.3237</ele>
        <time>2021-07-06T07:38:37Z</time>
      </trkpt>
      <trkpt lat="42.03136" lon="-6.40083">
        <ele>933.499</ele>
        <time>2021-07-06T07:38:48Z</time>
      </trkpt>
      <trkpt lat="42.03213" lon="-6.40487">
        <ele>932.0407</ele>
        <time>2021-07-06T07:38:59Z</time>
      </trkpt>
      <trkpt lat="42.03287" lon="-6.40892">
        <ele>930.3738</ele>
        <time>2021-07-06T07:39:10Z</time>
      </trkpt>
      <trkpt lat="42.03364" lon="-6.41297">
        <ele>929.1376</ele>
        <time>2021-07-06T07:39:21Z</time>
      </trkpt>
      <trkpt lat="42.03442" lon="-6.41709">
        <ele>931.3812</ele>
        <time>2021-07-06T07:39:32Z</time>
      </trkpt>
      <trkpt lat="42.0352" lon="-6.42118">
        <ele>934.1794</ele>
        <time>2021-07-06T07:39:43Z</time>
      </trkpt>
      <trkpt lat="42.03596" lon="-6.42523">
        <ele>936.4364</ele>
        <time>2021-07-06T07:39:54Z</time>
      </trkpt>
      <trkpt lat="42.0367" lon="-6.42922">
        <ele>937.3284</ele>
        <time>2021-07-06T07:40:05Z</time>
      </trkpt>
      <trkpt lat="42.03746" lon="-6.43325">
        <ele>930.7903</ele>
        <time>2021-07-06T07:40:16Z</time>
      </trkpt>
      <trkpt lat="42.03819" lon="-6.43722">
        <ele>929.6507</ele>
        <time>2021-07-06T07:40:27Z</time>
      </trkpt>
      <trkpt lat="42.03893" lon="-6.44117">
        <ele>928.5594</ele>
        <time>2021-07-06T07:40:38Z</time>
      </trkpt>
      <trkpt lat="42.03963" lon="-6.44492">
        <ele>938.1421</ele>
        <time>2021-07-06T07:40:49Z</time>
      </trkpt>
      <trkpt lat="42.04032" lon="-6.44867">
        <ele>938.8293</ele>
        <time>2021-07-06T07:41:00Z</time>
      </trkpt>
      <trkpt lat="42.04102" lon="-6.45239">
        <ele>937.8619</ele>
        <time>2021-07-06T07:41:11Z</time>
      </trkpt>
      <trkpt lat="42.04172" lon="-6.4561">
        <ele>944.4814</ele>
        <time>2021-07-06T07:41:22Z</time>
      </trkpt>
      <trkpt lat="42.04244" lon="-6.45979">
        <ele>950.075</ele>
        <time>2021-07-06T07:41:33Z</time>
      </trkpt>
      <trkpt lat="42.04312" lon="-6.46356">
        <ele>953.0934</ele>
        <time>2021-07-06T07:41:44Z</time>
      </trkpt>
      <trkpt lat="42.04392" lon="-6.46718">
        <ele>955.3997</ele>
        <time>2021-07-06T07:41:55Z</time>
      </trkpt>
      <trkpt lat="42.04515" lon="-6.47064">
        <ele>959.2753</ele>
        <time>2021-07-06T07:42:06Z</time>
      </trkpt>
      <trkpt lat="42.0464" lon="-6.4741">
        <ele>962.5201</ele>
        <time>2021-07-06T07:42:17Z</time>
      </trkpt>
      <trkpt lat="42.04778" lon="-6.47792">
        <ele>962.5009</ele>
        <time>2021-07-06T07:42:28Z</time>
      </trkpt>
      <trkpt lat="42.04893" lon="-6.48104">
        <ele>964.1344</ele>
        <time>2021-07-06T07:42:39Z</time>
      </trkpt>
      <trkpt lat="42.04977" lon="-6.48335">
        <ele>963.5522</ele>
        <time>2021-07-06T07:42:50Z</time>
      </trkpt>
      <trkpt lat="42.05034" lon="-6.48575">
        <ele>966.0902</ele>
        <time>2021-07-06T07:43:01Z</time>
      </trkpt>
      <trkpt lat="42.05124" lon="-6.48804">
        <ele>969.7464</ele>
        <time>2021-07-06T07:43:12Z</time>
      </trkpt>
      <trkpt lat="42.05141" lon="-6.49047">
        <ele>970.8501</ele>
        <time>2021-07-06T07:43:23Z</time>
      </trkpt>
      <trkpt lat="42.05199" lon="-6.49313">
        <ele>976.5933</ele>
        <time>2021-07-06T07:43:34Z</time>
      </trkpt>
      <trkpt lat="42.05274" lon="-6.49661">
        <ele>981.4063</ele>
        <time>2021-07-06T07:43:45Z</time>
      </trkpt>
      <trkpt lat="42.05369" lon="-6.50024">
        <ele>975.59</ele>
        <time>2021-07-06T07:43:56Z</time>
      </trkpt>
      <trkpt lat="42.05506" lon="-6.50354">
        <ele>967.6438</ele>
        <time>2021-07-06T07:44:07Z</time>
      </trkpt>
      <trkpt lat="42.05683" lon="-6.50673">
        <ele>961.4885</ele>
        <time>2021-07-06T07:44:18Z</time>
      </trkpt>
      <trkpt lat="42.0574" lon="-6.51065">
        <ele>957.8401</ele>
        <time>2021-07-06T07:44:29Z</time>
      </trkpt>
      <trkpt lat="42.05772" lon="-6.51469">
        <ele>963.1607</ele>
        <time>2021-07-06T07:44:40Z</time>
      </trkpt>
      <trkpt lat="42.05821" lon="-6.51766">
        <ele>975.8131</ele>
        <time>2021-07-06T07:44:51Z</time>
      </trkpt>
      <trkpt lat="42.05877" lon="-6.52029">
        <ele>979.9747</ele>
        <time>2021-07-06T07:45:02Z</time>
      </trkpt>
      <trkpt lat="42.0587" lon="-6.52289">
        <ele>979.6165</ele>
        <time>2021-07-06T07:45:13Z</time>
      </trkpt>
      <trkpt lat="42.05826" lon="-6.52571">
        <ele>976.3151</ele>
        <time>2021-07-06T07:45:24Z</time>
      </trkpt>
      <trkpt lat="42.05782" lon="-6.52851">
        <ele>982.9957</ele>
        <time>2021-07-06T07:45:35Z</time>
      </trkpt>
      <trkpt lat="42.05769" lon="-6.53227">
        <ele>978.3614</ele>
        <time>2021-07-06T07:45:46Z</time>
      </trkpt>
      <trkpt lat="42.05751" lon="-6.53614">
        <ele>977.4166</ele>
        <time>2021-07-06T07:45:57Z</time>
      </trkpt>
      <trkpt lat="42.05583" lon="-6.53973">
        <ele>993.7171</ele>
        <time>2021-07-06T07:46:08Z</time>
      </trkpt>
      <trkpt lat="42.05451" lon="-6.54322">
        <ele>991.2653</ele>
        <time>2021-07-06T07:46:19Z</time>
      </trkpt>
      <trkpt lat="42.05411" lon="-6.54703">
        <ele>990.091</ele>
        <time>2021-07-06T07:46:30Z</time>
      </trkpt>
      <trkpt lat="42.05422" lon="-6.55051">
        <ele>982.3047</ele>
        <time>2021-07-06T07:46:41Z</time>
      </trkpt>
      <trkpt lat="42.05396" lon="-6.55415">
        <ele>976.0514</ele>
        <time>2021-07-06T07:46:52Z</time>
      </trkpt>
      <trkpt lat="42.05326" lon="-6.55735">
        <ele>977.6669</ele>
        <time>2021-07-06T07:47:03Z</time>
      </trkpt>
      <trkpt lat="42.05215" lon="-6.5605">
        <ele>977.8693</ele>
        <time>2021-07-06T07:47:14Z</time>
      </trkpt>
      <trkpt lat="42.05067" lon="-6.56321">
        <ele>976.8211</ele>
        <time>2021-07-06T07:47:25Z</time>
      </trkpt>
      <trkpt lat="42.04984" lon="-6.56634">
        <ele>969.2283</ele>
        <time>2021-07-06T07:47:36Z</time>
      </trkpt>
      <trkpt lat="42.0494" lon="-6.56901">
        <ele>959.0908</ele>
        <time>2021-07-06T07:47:47Z</time>
      </trkpt>
      <trkpt lat="42.0493" lon="-6.5717">
        <ele>957.2808</ele>
        <time>2021-07-06T07:47:58Z</time>
      </trkpt>
      <trkpt lat="42.04925" lon="-6.57423">
        <ele>956.0393</ele>
        <time>2021-07-06T07:48:09Z</time>
      </trkpt>
      <trkpt lat="42.04951" lon="-6.57682">
        <ele>949.882</ele>
        <time>2021-07-06T07:48:20Z</time>
      </trkpt>
      <trkpt lat="42.04902" lon="-6.57989">
        <ele>943.2964</ele>
        <time>2021-07-06T07:48:31Z</time>
      </trkpt>
      <trkpt lat="42.04848" lon="-6.5837">
        <ele>940.9762</ele>
        <time>2021-07-06T07:48:42Z</time>
      </trkpt>
      <trkpt lat="42.04838" lon="-6.58745">
        <ele>928.808</ele>
        <time>2021-07-06T07:48:53Z</time>
      </trkpt>
      <trkpt lat="42.04958" lon="-6.59097">
        <ele>915.9955</ele>
        <time>2021-07-06T07:49:04Z</time>
      </trkpt>
      <trkpt lat="42.05104" lon="-6.59434">
        <ele>920.6065</ele>
        <time>2021-07-06T07:49:15Z</time>
      </trkpt>
      <trkpt lat="42.05293" lon="-6.59735">
        <ele>932.992</ele>
        <time>2021-07-06T07:49:26Z</time>
      </trkpt>
      <trkpt lat="42.054" lon="-6.60096">
        <ele>944.9275</ele>
        <time>2021-07-06T07:49:37Z</time>
      </trkpt>
      <trkpt lat="42.05452" lon="-6.6048">
        <ele>952.9498</ele>
        <time>2021-07-06T07:49:48Z</time>
      </trkpt>
      <trkpt lat="42.05522" lon="-6.60853">
        <ele>956.5094</ele>
        <time>2021-07-06T07:49:59Z</time>
      </trkpt>
      <trkpt lat="42.05646" lon="-6.61162">
        <ele>942.66</ele>
        <time>2021-07-06T07:50:10Z</time>
      </trkpt>
      <trkpt lat="42.05723" lon="-6.6146">
        <ele>933.2467</ele>
        <time>2021-07-06T07:50:21Z</time>
      </trkpt>
      <trkpt lat="42.05752" lon="-6.61763">
        <ele>923.6739</ele>
        <time>2021-07-06T07:50:32Z</time>
      </trkpt>
      <trkpt lat="42.05805" lon="-6.61983">
        <ele>916.9715</ele>
        <time>2021-07-06T07:50:43Z</time>
      </trkpt>
      <trkpt lat="42.05825" lon="-6.62198">
        <ele>914.342</ele>
        <time>2021-07-06T07:50:54Z</time>
      </trkpt>
      <trkpt lat="42.05888" lon="-6.62521">
        <ele>917.1831</ele>
        <time>2021-07-06T07:51:05Z</time>
      </trkpt>
      <trkpt lat="42.05951" lon="-6.62855">
        <ele>916.3866</ele>
        <time>2021-07-06T07:51:16Z</time>
      </trkpt>
      <trkpt lat="42.06012" lon="-6.63177">
        <ele>914.0439</ele>
        <time>2021-07-06T07:51:27Z</time>
      </trkpt>
      <trkpt lat="42.06056" lon="-6.63539">
        <ele>915.5337</ele>
        <time>2021-07-06T07:51:38Z</time>
      </trkpt>
      <trkpt lat="42.06057" lon="-6.63889">
        <ele>923.5886</ele>
        <time>2021-07-06T07:51:49Z</time>
      </trkpt>
      <trkpt lat="42.06055" lon="-6.64145">
        <ele>929.5962</ele>
        <time>2021-07-06T07:52:00Z</time>
      </trkpt>
      <trkpt lat="42.06055" lon="-6.6437">
        <ele>925.5917</ele>
        <time>2021-07-06T07:52:11Z</time>
      </trkpt>
      <trkpt lat="42.06086" lon="-6.64652">
        <ele>916.4898</ele>
        <time>2021-07-06T07:52:22Z</time>
      </trkpt>
      <trkpt lat="42.06133" lon="-6.64963">
        <ele>901.7326</ele>
        <time>2021-07-06T07:52:33Z</time>
      </trkpt>
      <trkpt lat="42.06077" lon="-6.65274">
        <ele>898.2056</ele>
        <time>2021-07-06T07:52:44Z</time>
      </trkpt>
      <trkpt lat="42.05981" lon="-6.65658">
        <ele>902.3697</ele>
        <time>2021-07-06T07:52:55Z</time>
      </trkpt>
      <trkpt lat="42.0589" lon="-6.66006">
        <ele>908.4692</ele>
        <time>2021-07-06T07:53:06Z</time>
      </trkpt>
      <trkpt lat="42.05745" lon="-6.66318">
        <ele>910.8169</ele>
        <time>2021-07-06T07:53:17Z</time>
      </trkpt>
      <trkpt lat="42.0558" lon="-6.66617">
        <ele>912.0204</ele>
        <time>2021-07-06T07:53:28Z</time>
      </trkpt>
      <trkpt lat="42.05412" lon="-6.66927">
        <ele>912.3361</ele>
        <time>2021-07-06T07:53:39Z</time>
      </trkpt>
      <trkpt lat="42.05242" lon="-6.67234">
        <ele>915.7149</ele>
        <time>2021-07-06T07:53:50Z</time>
      </trkpt>
      <trkpt lat="42.05093" lon="-6.67559">
        <ele>917.905</ele>
        <time>2021-07-06T07:54:01Z</time>
      </trkpt>
      <trkpt lat="42.05024" lon="-6.67936">
        <ele>920.5048</ele>
        <time>2021-07-06T07:54:12Z</time>
      </trkpt>
      <trkpt lat="42.04954" lon="-6.68314">
        <ele>921.9504</ele>
        <time>2021-07-06T07:54:23Z</time>
      </trkpt>
      <trkpt lat="42.04884" lon="-6.6869">
        <ele>918.3411</ele>
        <time>2021-07-06T07:54:34Z</time>
      </trkpt>
      <trkpt lat="42.04762" lon="-6.69051">
        <ele>918.32</ele>
        <time>2021-07-06T07:54:45Z</time>
      </trkpt>
      <trkpt lat="42.04601" lon="-6.69386">
        <ele>920.986</ele>
        <time>2021-07-06T07:54:56Z</time>
      </trkpt>
      <trkpt lat="42.04442" lon="-6.69718">
        <ele>924.4244</ele>
        <time>2021-07-06T07:55:07Z</time>
      </trkpt>
      <trkpt lat="42.0428" lon="-6.70051">
        <ele>926.2748</ele>
        <time>2021-07-06T07:55:18Z</time>
      </trkpt>
      <trkpt lat="42.04118" lon="-6.70386">
        <ele>929.6727</ele>
        <time>2021-07-06T07:55:29Z</time>
      </trkpt>
      <trkpt lat="42.03943" lon="-6.70707">
        <ele>934.6817</ele>
        <time>2021-07-06T07:55:40Z</time>
      </trkpt>
      <trkpt lat="42.0374" lon="-6.70985">
        <ele>940.5276</ele>
        <time>2021-07-06T07:55:51Z</time>
      </trkpt>
      <trkpt lat="42.03543" lon="-6.71249">
        <ele>951.3877</ele>
        <time>2021-07-06T07:56:02Z</time>
      </trkpt>
      <trkpt lat="42.03364" lon="-6.71509">
        <ele>956.6257</ele>
        <time>2021-07-06T07:56:13Z</time>
      </trkpt>
      <trkpt lat="42.03308" lon="-6.71822">
        <ele>956.2685</ele>
        <time>2021-07-06T07:56:24Z</time>
      </trkpt>
      <trkpt lat="42.03272" lon="-6.72139">
        <ele>951.7685</ele>
        <time>2021-07-06T07:56:35Z</time>
      </trkpt>
      <trkpt lat="42.03234" lon="-6.72489">
        <ele>958.2568</ele>
        <time>2021-07-06T07:56:46Z</time>
      </trkpt>
      <trkpt lat="42.03195" lon="-6.72852">
        <ele>965.2625</ele>
        <time>2021-07-06T07:56:57Z</time>
      </trkpt>
      <trkpt lat="42.03153" lon="-6.73218">
        <ele>970.8814</ele>
        <time>2021-07-06T07:57:08Z</time>
      </trkpt>
      <trkpt lat="42.03111" lon="-6.73578">
        <ele>977.614</ele>
        <time>2021-07-06T07:57:19Z</time>
      </trkpt>
      <trkpt lat="42.03079" lon="-6.7387">
        <ele>981.0815</ele>
        <time>2021-07-06T07:57:30Z</time>
      </trkpt>
      <trkpt lat="42.03053" lon="-6.74145">
        <ele>988.8939</ele>
        <time>2021-07-06T07:57:41Z</time>
      </trkpt>
      <trkpt lat="42.03107" lon="-6.74327">
        <ele>998.3272</ele>
        <time>2021-07-06T07:57:52Z</time>
      </trkpt>
      <trkpt lat="42.03115" lon="-6.74332">
        <ele>1000.229</ele>
        <time>2021-07-06T07:58:03Z</time>
      </trkpt>
      <trkpt lat="42.03119" lon="-6.7434">
        <ele>1000.864</ele>
        <time>2021-07-06T07:58:40Z</time>
      </trkpt>
      <trkpt lat="42.03091" lon="-6.7453">
        <ele>1003.32</ele>
        <time>2021-07-06T07:58:51Z</time>
      </trkpt>
      <trkpt lat="42.03046" lon="-6.7482">
        <ele>1007.191</ele>
        <time>2021-07-06T07:59:02Z</time>
      </trkpt>
      <trkpt lat="42.03057" lon="-6.75161">
        <ele>1007.791</ele>
        <time>2021-07-06T07:59:13Z</time>
      </trkpt>
      <trkpt lat="42.03077" lon="-6.7544">
        <ele>1011.488</ele>
        <time>2021-07-06T07:59:24Z</time>
      </trkpt>
      <trkpt lat="42.0309" lon="-6.75483">
        <ele>1014.028</ele>
        <time>2021-07-06T07:59:35Z</time>
      </trkpt>
      <trkpt lat="42.03092" lon="-6.75482">
        <ele>1018.625</ele>
        <time>2021-07-06T08:00:33Z</time>
      </trkpt>
      <trkpt lat="42.03088" lon="-6.75485">
        <ele>1018.416</ele>
        <time>2021-07-06T08:01:03Z</time>
      </trkpt>
      <trkpt lat="42.03089" lon="-6.7548">
        <ele>1020.778</ele>
        <time>2021-07-06T08:01:45Z</time>
      </trkpt>
      <trkpt lat="42.03089" lon="-6.75481">
        <ele>1014.298</ele>
        <time>2021-07-06T08:02:44Z</time>
      </trkpt>
      <trkpt lat="42.03089" lon="-6.75481">
        <ele>1014.298</ele>
        <time>2021-07-06T08:03:43Z</time>
      </trkpt>
      <trkpt lat="42.03089" lon="-6.75481">
        <ele>1014.298</ele>
        <time>2021-07-06T08:04:43Z</time>
      </trkpt>
      <trkpt lat="42.03089" lon="-6.75481">
        <ele>1014.298</ele>
        <time>2021-07-06T08:05:43Z</time>
      </trkpt>
      <trkpt lat="42.03088" lon="-6.75484">
        <ele>1020.121</ele>
        <time>2021-07-06T08:06:43Z</time>
      </trkpt>
      <trkpt lat="42.03089" lon="-6.7549">
        <ele>1018.283</ele>
        <time>2021-07-06T08:07:01Z</time>
      </trkpt>
      <trkpt lat="42.03065" lon="-6.75391">
        <ele>1012.529</ele>
        <time>2021-07-06T08:07:12Z</time>
      </trkpt>
      <trkpt lat="42.03051" lon="-6.75105">
        <ele>1006.747</ele>
        <time>2021-07-06T08:07:23Z</time>
      </trkpt>
      <trkpt lat="42.0304" lon="-6.74777">
        <ele>1007.041</ele>
        <time>2021-07-06T08:07:34Z</time>
      </trkpt>
      <trkpt lat="42.0309" lon="-6.7453">
        <ele>1005.174</ele>
        <time>2021-07-06T08:07:45Z</time>
      </trkpt>
      <trkpt lat="42.03109" lon="-6.74349">
        <ele>1000.312</ele>
        <time>2021-07-06T08:07:56Z</time>
      </trkpt>
      <trkpt lat="42.03234" lon="-6.74313">
        <ele>1008.674</ele>
        <time>2021-07-06T08:08:07Z</time>
      </trkpt>
      <trkpt lat="42.03423" lon="-6.74366">
        <ele>1018.051</ele>
        <time>2021-07-06T08:08:18Z</time>
      </trkpt>
      <trkpt lat="42.03504" lon="-6.74226">
        <ele>1022.966</ele>
        <time>2021-07-06T08:08:29Z</time>
      </trkpt>
      <trkpt lat="42.03425" lon="-6.74332">
        <ele>1020.457</ele>
        <time>2021-07-06T08:08:40Z</time>
      </trkpt>
      <trkpt lat="42.03379" lon="-6.74707">
        <ele>1030.494</ele>
        <time>2021-07-06T08:08:51Z</time>
      </trkpt>
      <trkpt lat="42.03319" lon="-6.75073">
        <ele>1045.06</ele>
        <time>2021-07-06T08:09:02Z</time>
      </trkpt>
      <trkpt lat="42.03358" lon="-6.75402">
        <ele>1059.376</ele>
        <time>2021-07-06T08:09:13Z</time>
      </trkpt>
      <trkpt lat="42.03444" lon="-6.75704">
        <ele>1069.413</ele>
        <time>2021-07-06T08:09:24Z</time>
      </trkpt>
      <trkpt lat="42.03489" lon="-6.76068">
        <ele>1080.973</ele>
        <time>2021-07-06T08:09:35Z</time>
      </trkpt>
      <trkpt lat="42.03511" lon="-6.76477">
        <ele>1093.115</ele>
        <time>2021-07-06T08:09:46Z</time>
      </trkpt>
      <trkpt lat="42.03606" lon="-6.76876">
        <ele>1106.279</ele>
        <time>2021-07-06T08:09:57Z</time>
      </trkpt>
      <trkpt lat="42.03779" lon="-6.77237">
        <ele>1121.802</ele>
        <time>2021-07-06T08:10:08Z</time>
      </trkpt>
      <trkpt lat="42.03963" lon="-6.77572">
        <ele>1138.751</ele>
        <time>2021-07-06T08:10:19Z</time>
      </trkpt>
      <trkpt lat="42.04133" lon="-6.77933">
        <ele>1155.593</ele>
        <time>2021-07-06T08:10:30Z</time>
      </trkpt>
      <trkpt lat="42.04215" lon="-6.78343">
        <ele>1173.237</ele>
        <time>2021-07-06T08:10:41Z</time>
      </trkpt>
      <trkpt lat="42.04192" lon="-6.7874">
        <ele>1188.921</ele>
        <time>2021-07-06T08:10:52Z</time>
      </trkpt>
      <trkpt lat="42.04086" lon="-6.79093">
        <ele>1203.525</ele>
        <time>2021-07-06T08:11:03Z</time>
      </trkpt>
      <trkpt lat="42.03959" lon="-6.79439">
        <ele>1218.247</ele>
        <time>2021-07-06T08:11:14Z</time>
      </trkpt>
      <trkpt lat="42.03922" lon="-6.79829">
        <ele>1236.316</ele>
        <time>2021-07-06T08:11:25Z</time>
      </trkpt>
      <trkpt lat="42.03962" lon="-6.80167">
        <ele>1252.889</ele>
        <time>2021-07-06T08:11:36Z</time>
      </trkpt>
      <trkpt lat="42.04001" lon="-6.80506">
        <ele>1266.085</ele>
        <time>2021-07-06T08:11:47Z</time>
      </trkpt>
      <trkpt lat="42.03996" lon="-6.8084">
        <ele>1278.628</ele>
        <time>2021-07-06T08:11:58Z</time>
      </trkpt>
      <trkpt lat="42.03935" lon="-6.81177">
        <ele>1293.93</ele>
        <time>2021-07-06T08:12:09Z</time>
      </trkpt>
      <trkpt lat="42.03836" lon="-6.81476">
        <ele>1310.989</ele>
        <time>2021-07-06T08:12:20Z</time>
      </trkpt>
      <trkpt lat="42.03754" lon="-6.81682">
        <ele>1311.077</ele>
        <time>2021-07-06T08:12:32Z</time>
      </trkpt>
      <trkpt lat="42.03509" lon="-6.82284">
        <ele>1317.199</ele>
        <time>2021-07-06T08:12:51Z</time>
      </trkpt>
      <trkpt lat="42.0339" lon="-6.82571">
        <ele>1324.605</ele>
        <time>2021-07-06T08:13:02Z</time>
      </trkpt>
      <trkpt lat="42.0331" lon="-6.82825">
        <ele>1329.701</ele>
        <time>2021-07-06T08:13:13Z</time>
      </trkpt>
      <trkpt lat="42.03276" lon="-6.83098">
        <ele>1329.532</ele>
        <time>2021-07-06T08:13:24Z</time>
      </trkpt>
      <trkpt lat="42.03295" lon="-6.83407">
        <ele>1321.548</ele>
        <time>2021-07-06T08:13:35Z</time>
      </trkpt>
      <trkpt lat="42.03352" lon="-6.83683">
        <ele>1314.66</ele>
        <time>2021-07-06T08:13:46Z</time>
      </trkpt>
      <trkpt lat="42.03385" lon="-6.8397">
        <ele>1309.258</ele>
        <time>2021-07-06T08:13:57Z</time>
      </trkpt>
      <trkpt lat="42.03513" lon="-6.84268">
        <ele>1296.324</ele>
        <time>2021-07-06T08:14:08Z</time>
      </trkpt>
      <trkpt lat="42.03566" lon="-6.84634">
        <ele>1278.745</ele>
        <time>2021-07-06T08:14:19Z</time>
      </trkpt>
      <trkpt lat="42.03535" lon="-6.84989">
        <ele>1265.687</ele>
        <time>2021-07-06T08:14:30Z</time>
      </trkpt>
      <trkpt lat="42.03525" lon="-6.85342">
        <ele>1249.47</ele>
        <time>2021-07-06T08:14:41Z</time>
      </trkpt>
      <trkpt lat="42.03622" lon="-6.85693">
        <ele>1236.328</ele>
        <time>2021-07-06T08:14:52Z</time>
      </trkpt>
      <trkpt lat="42.03705" lon="-6.85947">
        <ele>1226.079</ele>
        <time>2021-07-06T08:15:04Z</time>
      </trkpt>
      <trkpt lat="42.03827" lon="-6.86096">
        <ele>1217.488</ele>
        <time>2021-07-06T08:15:15Z</time>
      </trkpt>
      <trkpt lat="42.03891" lon="-6.86294">
        <ele>1207.758</ele>
        <time>2021-07-06T08:15:26Z</time>
      </trkpt>
      <trkpt lat="42.03831" lon="-6.865">
        <ele>1197.995</ele>
        <time>2021-07-06T08:15:37Z</time>
      </trkpt>
      <trkpt lat="42.03932" lon="-6.86683">
        <ele>1190.152</ele>
        <time>2021-07-06T08:15:48Z</time>
      </trkpt>
      <trkpt lat="42.0402" lon="-6.86834">
        <ele>1184.459</ele>
        <time>2021-07-06T08:15:59Z</time>
      </trkpt>
      <trkpt lat="42.04048" lon="-6.87068">
        <ele>1175.288</ele>
        <time>2021-07-06T08:16:10Z</time>
      </trkpt>
      <trkpt lat="42.04098" lon="-6.87202">
        <ele>1169.223</ele>
        <time>2021-07-06T08:16:21Z</time>
      </trkpt>
      <trkpt lat="42.04072" lon="-6.87382">
        <ele>1163.049</ele>
        <time>2021-07-06T08:16:32Z</time>
      </trkpt>
      <trkpt lat="42.04151" lon="-6.87594">
        <ele>1153.719</ele>
        <time>2021-07-06T08:16:43Z</time>
      </trkpt>
      <trkpt lat="42.04285" lon="-6.87748">
        <ele>1146.051</ele>
        <time>2021-07-06T08:16:54Z</time>
      </trkpt>
      <trkpt lat="42.04404" lon="-6.87774">
        <ele>1141.199</ele>
        <time>2021-07-06T08:17:05Z</time>
      </trkpt>
      <trkpt lat="42.0444" lon="-6.87916">
        <ele>1134.997</ele>
        <time>2021-07-06T08:17:16Z</time>
      </trkpt>
      <trkpt lat="42.04644" lon="-6.87933">
        <ele>1123.907</ele>
        <time>2021-07-06T08:17:27Z</time>
      </trkpt>
      <trkpt lat="42.0485" lon="-6.87949">
        <ele>1110.34</ele>
        <time>2021-07-06T08:17:38Z</time>
      </trkpt>
      <trkpt lat="42.05044" lon="-6.87887">
        <ele>1101.859</ele>
        <time>2021-07-06T08:17:49Z</time>
      </trkpt>
      <trkpt lat="42.05226" lon="-6.87793">
        <ele>1095.423</ele>
        <time>2021-07-06T08:18:00Z</time>
      </trkpt>
      <trkpt lat="42.05385" lon="-6.87756">
        <ele>1085.579</ele>
        <time>2021-07-06T08:18:11Z</time>
      </trkpt>
      <trkpt lat="42.0532" lon="-6.87905">
        <ele>1089.364</ele>
        <time>2021-07-06T08:18:22Z</time>
      </trkpt>
      <trkpt lat="42.05198" lon="-6.88128">
        <ele>1093.324</ele>
        <time>2021-07-06T08:18:33Z</time>
      </trkpt>
      <trkpt lat="42.05002" lon="-6.88282">
        <ele>1101.677</ele>
        <time>2021-07-06T08:18:44Z</time>
      </trkpt>
      <trkpt lat="42.04785" lon="-6.88418">
        <ele>1102.819</ele>
        <time>2021-07-06T08:18:55Z</time>
      </trkpt>
      <trkpt lat="42.04712" lon="-6.88545">
        <ele>1119.683</ele>
        <time>2021-07-06T08:19:06Z</time>
      </trkpt>
      <trkpt lat="42.04617" lon="-6.88662">
        <ele>1119.542</ele>
        <time>2021-07-06T08:19:17Z</time>
      </trkpt>
      <trkpt lat="42.04444" lon="-6.88727">
        <ele>1113.446</ele>
        <time>2021-07-06T08:19:28Z</time>
      </trkpt>
      <trkpt lat="42.04299" lon="-6.88678">
        <ele>1107.056</ele>
        <time>2021-07-06T08:19:39Z</time>
      </trkpt>
      <trkpt lat="42.04182" lon="-6.8877">
        <ele>1102.014</ele>
        <time>2021-07-06T08:19:50Z</time>
      </trkpt>
      <trkpt lat="42.04015" lon="-6.88793">
        <ele>1092.947</ele>
        <time>2021-07-06T08:20:01Z</time>
      </trkpt>
      <trkpt lat="42.0388" lon="-6.88946">
        <ele>1086.168</ele>
        <time>2021-07-06T08:20:12Z</time>
      </trkpt>
      <trkpt lat="42.03865" lon="-6.89185">
        <ele>1079.78</ele>
        <time>2021-07-06T08:20:23Z</time>
      </trkpt>
      <trkpt lat="42.03847" lon="-6.89358">
        <ele>1083.37</ele>
        <time>2021-07-06T08:20:34Z</time>
      </trkpt>
      <trkpt lat="42.03921" lon="-6.8947">
        <ele>1082.397</ele>
        <time>2021-07-06T08:20:45Z</time>
      </trkpt>
      <trkpt lat="42.03984" lon="-6.89638">
        <ele>1080.066</ele>
        <time>2021-07-06T08:20:56Z</time>
      </trkpt>
      <trkpt lat="42.03981" lon="-6.89688">
        <ele>1073.54</ele>
        <time>2021-07-06T08:21:07Z</time>
      </trkpt>
      <trkpt lat="42.03929" lon="-6.8954">
        <ele>1082.823</ele>
        <time>2021-07-06T08:21:18Z</time>
      </trkpt>
      <trkpt lat="42.03924" lon="-6.89444">
        <ele>1082.051</ele>
        <time>2021-07-06T08:21:29Z</time>
      </trkpt>
      <trkpt lat="42.04034" lon="-6.89571">
        <ele>1095.903</ele>
        <time>2021-07-06T08:21:40Z</time>
      </trkpt>
      <trkpt lat="42.04229" lon="-6.89749">
        <ele>1097.928</ele>
        <time>2021-07-06T08:21:51Z</time>
      </trkpt>
      <trkpt lat="42.04433" lon="-6.89881">
        <ele>1076.301</ele>
        <time>2021-07-06T08:22:02Z</time>
      </trkpt>
      <trkpt lat="42.04366" lon="-6.90091">
        <ele>1086.73</ele>
        <time>2021-07-06T08:22:13Z</time>
      </trkpt>
      <trkpt lat="42.04158" lon="-6.90142">
        <ele>1092.284</ele>
        <time>2021-07-06T08:22:24Z</time>
      </trkpt>
      <trkpt lat="42.0393" lon="-6.90161">
        <ele>1065.286</ele>
        <time>2021-07-06T08:22:35Z</time>
      </trkpt>
      <trkpt lat="42.03733" lon="-6.90032">
        <ele>1040.256</ele>
        <time>2021-07-06T08:22:46Z</time>
      </trkpt>
      <trkpt lat="42.03602" lon="-6.90123">
        <ele>1040.682</ele>
        <time>2021-07-06T08:22:57Z</time>
      </trkpt>
      <trkpt lat="42.03623" lon="-6.90281">
        <ele>1045.637</ele>
        <time>2021-07-06T08:23:08Z</time>
      </trkpt>
      <trkpt lat="42.03672" lon="-6.90424">
        <ele>1042.646</ele>
        <time>2021-07-06T08:23:19Z</time>
      </trkpt>
      <trkpt lat="42.03613" lon="-6.90545">
        <ele>1044.199</ele>
        <time>2021-07-06T08:23:30Z</time>
      </trkpt>
      <trkpt lat="42.03534" lon="-6.90702">
        <ele>1040.215</ele>
        <time>2021-07-06T08:23:41Z</time>
      </trkpt>
      <trkpt lat="42.03443" lon="-6.90877">
        <ele>1030.791</ele>
        <time>2021-07-06T08:23:52Z</time>
      </trkpt>
      <trkpt lat="42.03354" lon="-6.91072">
        <ele>1028.296</ele>
        <time>2021-07-06T08:24:03Z</time>
      </trkpt>
      <trkpt lat="42.03425" lon="-6.91326">
        <ele>1021.209</ele>
        <time>2021-07-06T08:24:14Z</time>
      </trkpt>
      <trkpt lat="42.03406" lon="-6.91585">
        <ele>1015.167</ele>
        <time>2021-07-06T08:24:25Z</time>
      </trkpt>
      <trkpt lat="42.03377" lon="-6.9172">
        <ele>1008.151</ele>
        <time>2021-07-06T08:24:36Z</time>
      </trkpt>
      <trkpt lat="42.03372" lon="-6.91924">
        <ele>1002.529</ele>
        <time>2021-07-06T08:24:47Z</time>
      </trkpt>
      <trkpt lat="42.03514" lon="-6.91974">
        <ele>998.2709</ele>
        <time>2021-07-06T08:24:58Z</time>
      </trkpt>
      <trkpt lat="42.03655" lon="-6.91898">
        <ele>991.9989</ele>
        <time>2021-07-06T08:25:09Z</time>
      </trkpt>
      <trkpt lat="42.03818" lon="-6.91963">
        <ele>982.8492</ele>
        <time>2021-07-06T08:25:20Z</time>
      </trkpt>
      <trkpt lat="42.03893" lon="-6.92066">
        <ele>980.1372</ele>
        <time>2021-07-06T08:25:31Z</time>
      </trkpt>
      <trkpt lat="42.03753" lon="-6.92039">
        <ele>987.7113</ele>
        <time>2021-07-06T08:25:42Z</time>
      </trkpt>
      <trkpt lat="42.03648" lon="-6.9213">
        <ele>996.1538</ele>
        <time>2021-07-06T08:25:53Z</time>
      </trkpt>
      <trkpt lat="42.03572" lon="-6.92303">
        <ele>1003.939</ele>
        <time>2021-07-06T08:26:04Z</time>
      </trkpt>
      <trkpt lat="42.03404" lon="-6.923">
        <ele>1010.402</ele>
        <time>2021-07-06T08:26:15Z</time>
      </trkpt>
      <trkpt lat="42.03355" lon="-6.92461">
        <ele>1015.505</ele>
        <time>2021-07-06T08:26:26Z</time>
      </trkpt>
      <trkpt lat="42.03392" lon="-6.92659">
        <ele>1023.29</ele>
        <time>2021-07-06T08:26:37Z</time>
      </trkpt>
      <trkpt lat="42.03554" lon="-6.92763">
        <ele>1034.189</ele>
        <time>2021-07-06T08:26:48Z</time>
      </trkpt>
      <trkpt lat="42.03529" lon="-6.92896">
        <ele>1042.484</ele>
        <time>2021-07-06T08:26:59Z</time>
      </trkpt>
      <trkpt lat="42.03527" lon="-6.92911">
        <ele>1044.949</ele>
        <time>2021-07-06T08:27:10Z</time>
      </trkpt>
      <trkpt lat="42.03527" lon="-6.9292">
        <ele>1043.54</ele>
        <time>2021-07-06T08:27:40Z</time>
      </trkpt>
      <trkpt lat="42.03535" lon="-6.9309">
        <ele>1034.871</ele>
        <time>2021-07-06T08:27:51Z</time>
      </trkpt>
      <trkpt lat="42.03553" lon="-6.93296">
        <ele>1025.758</ele>
        <time>2021-07-06T08:28:02Z</time>
      </trkpt>
      <trkpt lat="42.03599" lon="-6.93417">
        <ele>1025.554</ele>
        <time>2021-07-06T08:28:13Z</time>
      </trkpt>
      <trkpt lat="42.03776" lon="-6.93605">
        <ele>1039.225</ele>
        <time>2021-07-06T08:28:24Z</time>
      </trkpt>
      <trkpt lat="42.03846" lon="-6.93899">
        <ele>1055.935</ele>
        <time>2021-07-06T08:28:35Z</time>
      </trkpt>
      <trkpt lat="42.03867" lon="-6.94217">
        <ele>1070.027</ele>
        <time>2021-07-06T08:28:46Z</time>
      </trkpt>
      <trkpt lat="42.03878" lon="-6.94584">
        <ele>1086.865</ele>
        <time>2021-07-06T08:28:57Z</time>
      </trkpt>
      <trkpt lat="42.03913" lon="-6.94936">
        <ele>1110.246</ele>
        <time>2021-07-06T08:29:08Z</time>
      </trkpt>
      <trkpt lat="42.03988" lon="-6.95229">
        <ele>1117.544</ele>
        <time>2021-07-06T08:29:19Z</time>
      </trkpt>
      <trkpt lat="42.03963" lon="-6.95539">
        <ele>1133.922</ele>
        <time>2021-07-06T08:29:30Z</time>
      </trkpt>
      <trkpt lat="42.03977" lon="-6.95857">
        <ele>1150.903</ele>
        <time>2021-07-06T08:29:41Z</time>
      </trkpt>
      <trkpt lat="42.03923" lon="-6.96054">
        <ele>1154.996</ele>
        <time>2021-07-06T08:29:52Z</time>
      </trkpt>
      <trkpt lat="42.0387" lon="-6.96296">
        <ele>1169.75</ele>
        <time>2021-07-06T08:30:03Z</time>
      </trkpt>
      <trkpt lat="42.03821" lon="-6.96631">
        <ele>1188.088</ele>
        <time>2021-07-06T08:30:14Z</time>
      </trkpt>
      <trkpt lat="42.03751" lon="-6.96897">
        <ele>1198.347</ele>
        <time>2021-07-06T08:30:25Z</time>
      </trkpt>
      <trkpt lat="42.03618" lon="-6.97099">
        <ele>1203.248</ele>
        <time>2021-07-06T08:30:36Z</time>
      </trkpt>
      <trkpt lat="42.03495" lon="-6.97359">
        <ele>1208.535</ele>
        <time>2021-07-06T08:30:50Z</time>
      </trkpt>
      <trkpt lat="42.03615" lon="-6.97587">
        <ele>1216.354</ele>
        <time>2021-07-06T08:31:01Z</time>
      </trkpt>
      <trkpt lat="42.03688" lon="-6.97838">
        <ele>1216.584</ele>
        <time>2021-07-06T08:31:12Z</time>
      </trkpt>
      <trkpt lat="42.03699" lon="-6.98173">
        <ele>1212.259</ele>
        <time>2021-07-06T08:31:23Z</time>
      </trkpt>
      <trkpt lat="42.03723" lon="-6.98539">
        <ele>1206.401</ele>
        <time>2021-07-06T08:31:34Z</time>
      </trkpt>
      <trkpt lat="42.03777" lon="-6.9888">
        <ele>1196.854</ele>
        <time>2021-07-06T08:31:45Z</time>
      </trkpt>
      <trkpt lat="42.03921" lon="-6.99121">
        <ele>1185.16</ele>
        <time>2021-07-06T08:31:56Z</time>
      </trkpt>
      <trkpt lat="42.04015" lon="-6.99412">
        <ele>1171.687</ele>
        <time>2021-07-06T08:32:07Z</time>
      </trkpt>
      <trkpt lat="42.04227" lon="-6.99586">
        <ele>1160.595</ele>
        <time>2021-07-06T08:32:18Z</time>
      </trkpt>
      <trkpt lat="42.04382" lon="-6.99814">
        <ele>1146.013</ele>
        <time>2021-07-06T08:32:29Z</time>
      </trkpt>
      <trkpt lat="42.04369" lon="-7.00064">
        <ele>1130.289</ele>
        <time>2021-07-06T08:32:40Z</time>
      </trkpt>
      <trkpt lat="42.04157" lon="-7.00174">
        <ele>1111.6</ele>
        <time>2021-07-06T08:32:51Z</time>
      </trkpt>
      <trkpt lat="42.04077" lon="-7.00443">
        <ele>1097.432</ele>
        <time>2021-07-06T08:33:02Z</time>
      </trkpt>
      <trkpt lat="42.04081" lon="-7.0077">
        <ele>1081.396</ele>
        <time>2021-07-06T08:33:13Z</time>
      </trkpt>
      <trkpt lat="42.03907" lon="-7.00922">
        <ele>1080.996</ele>
        <time>2021-07-06T08:33:24Z</time>
      </trkpt>
      <trkpt lat="42.03834" lon="-7.01152">
        <ele>1069.896</ele>
        <time>2021-07-06T08:33:35Z</time>
      </trkpt>
      <trkpt lat="42.03946" lon="-7.01398">
        <ele>1062.721</ele>
        <time>2021-07-06T08:33:46Z</time>
      </trkpt>
      <trkpt lat="42.04109" lon="-7.01628">
        <ele>1055.693</ele>
        <time>2021-07-06T08:33:58Z</time>
      </trkpt>
      <trkpt lat="42.04125" lon="-7.01871">
        <ele>1046.619</ele>
        <time>2021-07-06T08:34:09Z</time>
      </trkpt>
      <trkpt lat="42.03889" lon="-7.01981">
        <ele>1048.605</ele>
        <time>2021-07-06T08:34:20Z</time>
      </trkpt>
      <trkpt lat="42.0381" lon="-7.02245">
        <ele>1049.895</ele>
        <time>2021-07-06T08:34:31Z</time>
      </trkpt>
      <trkpt lat="42.0378" lon="-7.0252">
        <ele>1057.518</ele>
        <time>2021-07-06T08:34:42Z</time>
      </trkpt>
      <trkpt lat="42.03711" lon="-7.0274">
        <ele>1057.779</ele>
        <time>2021-07-06T08:34:53Z</time>
      </trkpt>
      <trkpt lat="42.03826" lon="-7.0308">
        <ele>1043.536</ele>
        <time>2021-07-06T08:35:04Z</time>
      </trkpt>
      <trkpt lat="42.03918" lon="-7.03467">
        <ele>1039.115</ele>
        <time>2021-07-06T08:35:15Z</time>
      </trkpt>
      <trkpt lat="42.03872" lon="-7.03771">
        <ele>1034.647</ele>
        <time>2021-07-06T08:35:26Z</time>
      </trkpt>
      <trkpt lat="42.03803" lon="-7.0408">
        <ele>1022.641</ele>
        <time>2021-07-06T08:35:37Z</time>
      </trkpt>
      <trkpt lat="42.03772" lon="-7.0439">
        <ele>1018.394</ele>
        <time>2021-07-06T08:35:48Z</time>
      </trkpt>
      <trkpt lat="42.03838" lon="-7.04619">
        <ele>1007.376</ele>
        <time>2021-07-06T08:35:59Z</time>
      </trkpt>
      <trkpt lat="42.03761" lon="-7.04855">
        <ele>1009.921</ele>
        <time>2021-07-06T08:36:10Z</time>
      </trkpt>
      <trkpt lat="42.03694" lon="-7.05176">
        <ele>1020.12</ele>
        <time>2021-07-06T08:36:21Z</time>
      </trkpt>
      <trkpt lat="42.0373" lon="-7.05437">
        <ele>1025.6</ele>
        <time>2021-07-06T08:36:32Z</time>
      </trkpt>
      <trkpt lat="42.03883" lon="-7.0564">
        <ele>1028.061</ele>
        <time>2021-07-06T08:36:43Z</time>
      </trkpt>
      <trkpt lat="42.04086" lon="-7.0586">
        <ele>1030.492</ele>
        <time>2021-07-06T08:36:54Z</time>
      </trkpt>
      <trkpt lat="42.04225" lon="-7.06207">
        <ele>1040.513</ele>
        <time>2021-07-06T08:37:05Z</time>
      </trkpt>
      <trkpt lat="42.04285" lon="-7.06556">
        <ele>1053.028</ele>
        <time>2021-07-06T08:37:16Z</time>
      </trkpt>
      <trkpt lat="42.04469" lon="-7.06795">
        <ele>1050.65</ele>
        <time>2021-07-06T08:37:27Z</time>
      </trkpt>
      <trkpt lat="42.04706" lon="-7.06938">
        <ele>1051.934</ele>
        <time>2021-07-06T08:37:38Z</time>
      </trkpt>
      <trkpt lat="42.04868" lon="-7.07106">
        <ele>1054.562</ele>
        <time>2021-07-06T08:37:49Z</time>
      </trkpt>
      <trkpt lat="42.04715" lon="-7.07361">
        <ele>1065.465</ele>
        <time>2021-07-06T08:38:00Z</time>
      </trkpt>
      <trkpt lat="42.04693" lon="-7.07677">
        <ele>1060.494</ele>
        <time>2021-07-06T08:38:11Z</time>
      </trkpt>
      <trkpt lat="42.04752" lon="-7.08031">
        <ele>1063.689</ele>
        <time>2021-07-06T08:38:22Z</time>
      </trkpt>
      <trkpt lat="42.04694" lon="-7.08363">
        <ele>1071.917</ele>
        <time>2021-07-06T08:38:33Z</time>
      </trkpt>
      <trkpt lat="42.04705" lon="-7.08726">
        <ele>1077.186</ele>
        <time>2021-07-06T08:38:44Z</time>
      </trkpt>
      <trkpt lat="42.0487" lon="-7.09001">
        <ele>1074.022</ele>
        <time>2021-07-06T08:38:55Z</time>
      </trkpt>
      <trkpt lat="42.0503" lon="-7.09224">
        <ele>1069.333</ele>
        <time>2021-07-06T08:39:06Z</time>
      </trkpt>
      <trkpt lat="42.05098" lon="-7.09477">
        <ele>1070.057</ele>
        <time>2021-07-06T08:39:17Z</time>
      </trkpt>
      <trkpt lat="42.05169" lon="-7.09743">
        <ele>1072.366</ele>
        <time>2021-07-06T08:39:28Z</time>
      </trkpt>
      <trkpt lat="42.05255" lon="-7.1001">
        <ele>1072.834</ele>
        <time>2021-07-06T08:39:39Z</time>
      </trkpt>
      <trkpt lat="42.05343" lon="-7.10293">
        <ele>1075.34</ele>
        <time>2021-07-06T08:39:50Z</time>
      </trkpt>
      <trkpt lat="42.05417" lon="-7.10599">
        <ele>1077.749</ele>
        <time>2021-07-06T08:40:01Z</time>
      </trkpt>
      <trkpt lat="42.05482" lon="-7.10865">
        <ele>1086.161</ele>
        <time>2021-07-06T08:40:12Z</time>
      </trkpt>
      <trkpt lat="42.05559" lon="-7.11147">
        <ele>1080.624</ele>
        <time>2021-07-06T08:40:23Z</time>
      </trkpt>
      <trkpt lat="42.05628" lon="-7.11507">
        <ele>1072.856</ele>
        <time>2021-07-06T08:40:34Z</time>
      </trkpt>
      <trkpt lat="42.05809" lon="-7.11747">
        <ele>1057.865</ele>
        <time>2021-07-06T08:40:45Z</time>
      </trkpt>
      <trkpt lat="42.05996" lon="-7.11963">
        <ele>1043.318</ele>
        <time>2021-07-06T08:40:56Z</time>
      </trkpt>
      <trkpt lat="42.0598" lon="-7.12238">
        <ele>1030.263</ele>
        <time>2021-07-06T08:41:07Z</time>
      </trkpt>
      <trkpt lat="42.05922" lon="-7.12497">
        <ele>1017.934</ele>
        <time>2021-07-06T08:41:18Z</time>
      </trkpt>
      <trkpt lat="42.05809" lon="-7.12717">
        <ele>1005.268</ele>
        <time>2021-07-06T08:41:29Z</time>
      </trkpt>
      <trkpt lat="42.05886" lon="-7.12934">
        <ele>993.9894</ele>
        <time>2021-07-06T08:41:40Z</time>
      </trkpt>
      <trkpt lat="42.06003" lon="-7.13153">
        <ele>977.2745</ele>
        <time>2021-07-06T08:41:51Z</time>
      </trkpt>
      <trkpt lat="42.06053" lon="-7.1339">
        <ele>983.2927</ele>
        <time>2021-07-06T08:42:02Z</time>
      </trkpt>
      <trkpt lat="42.06085" lon="-7.13566">
        <ele>984.651</ele>
        <time>2021-07-06T08:42:13Z</time>
      </trkpt>
      <trkpt lat="42.06097" lon="-7.1367">
        <ele>983.0539</ele>
        <time>2021-07-06T08:42:24Z</time>
      </trkpt>
      <trkpt lat="42.06097" lon="-7.13784">
        <ele>986.6095</ele>
        <time>2021-07-06T08:42:35Z</time>
      </trkpt>
      <trkpt lat="42.06073" lon="-7.13966">
        <ele>993.7911</ele>
        <time>2021-07-06T08:42:46Z</time>
      </trkpt>
      <trkpt lat="42.06067" lon="-7.14152">
        <ele>984.7963</ele>
        <time>2021-07-06T08:42:57Z</time>
      </trkpt>
      <trkpt lat="42.0603" lon="-7.14269">
        <ele>977.9394</ele>
        <time>2021-07-06T08:43:08Z</time>
      </trkpt>
      <trkpt lat="42.05928" lon="-7.14443">
        <ele>964.6474</ele>
        <time>2021-07-06T08:43:19Z</time>
      </trkpt>
      <trkpt lat="42.05839" lon="-7.1463">
        <ele>953.1319</ele>
        <time>2021-07-06T08:43:30Z</time>
      </trkpt>
      <trkpt lat="42.05729" lon="-7.14809">
        <ele>949.6725</ele>
        <time>2021-07-06T08:43:41Z</time>
      </trkpt>
      <trkpt lat="42.05585" lon="-7.14832">
        <ele>955.4573</ele>
        <time>2021-07-06T08:43:52Z</time>
      </trkpt>
      <trkpt lat="42.05429" lon="-7.14817">
        <ele>956.1592</ele>
        <time>2021-07-06T08:44:03Z</time>
      </trkpt>
      <trkpt lat="42.053" lon="-7.14989">
        <ele>950.7973</ele>
        <time>2021-07-06T08:44:14Z</time>
      </trkpt>
      <trkpt lat="42.05225" lon="-7.15253">
        <ele>945.5703</ele>
        <time>2021-07-06T08:44:25Z</time>
      </trkpt>
      <trkpt lat="42.05155" lon="-7.15584">
        <ele>938.6941</ele>
        <time>2021-07-06T08:44:36Z</time>
      </trkpt>
      <trkpt lat="42.04987" lon="-7.15796">
        <ele>941.6311</ele>
        <time>2021-07-06T08:44:47Z</time>
      </trkpt>
      <trkpt lat="42.04744" lon="-7.1567">
        <ele>927.8202</ele>
        <time>2021-07-06T08:44:58Z</time>
      </trkpt>
      <trkpt lat="42.04491" lon="-7.15711">
        <ele>921.8134</ele>
        <time>2021-07-06T08:45:09Z</time>
      </trkpt>
      <trkpt lat="42.04253" lon="-7.15901">
        <ele>928.165</ele>
        <time>2021-07-06T08:45:20Z</time>
      </trkpt>
      <trkpt lat="42.04045" lon="-7.16133">
        <ele>925.3517</ele>
        <time>2021-07-06T08:45:31Z</time>
      </trkpt>
      <trkpt lat="42.03954" lon="-7.1648">
        <ele>923.0735</ele>
        <time>2021-07-06T08:45:42Z</time>
      </trkpt>
      <trkpt lat="42.03799" lon="-7.168">
        <ele>913.4743</ele>
        <time>2021-07-06T08:45:53Z</time>
      </trkpt>
      <trkpt lat="42.03636" lon="-7.17046">
        <ele>911.4435</ele>
        <time>2021-07-06T08:46:04Z</time>
      </trkpt>
      <trkpt lat="42.03479" lon="-7.1731">
        <ele>906.4235</ele>
        <time>2021-07-06T08:46:15Z</time>
      </trkpt>
      <trkpt lat="42.03485" lon="-7.17645">
        <ele>898.5489</ele>
        <time>2021-07-06T08:46:26Z</time>
      </trkpt>
      <trkpt lat="42.03356" lon="-7.17892">
        <ele>891.0383</ele>
        <time>2021-07-06T08:46:37Z</time>
      </trkpt>
      <trkpt lat="42.03097" lon="-7.18082">
        <ele>897.6643</ele>
        <time>2021-07-06T08:46:48Z</time>
      </trkpt>
      <trkpt lat="42.02842" lon="-7.1815">
        <ele>900.1302</ele>
        <time>2021-07-06T08:46:59Z</time>
      </trkpt>
      <trkpt lat="42.02678" lon="-7.18404">
        <ele>909.2168</ele>
        <time>2021-07-06T08:47:10Z</time>
      </trkpt>
      <trkpt lat="42.02495" lon="-7.18631">
        <ele>904.353</ele>
        <time>2021-07-06T08:47:21Z</time>
      </trkpt>
      <trkpt lat="42.02305" lon="-7.1887">
        <ele>908.3612</ele>
        <time>2021-07-06T08:47:32Z</time>
      </trkpt>
      <trkpt lat="42.02116" lon="-7.19116">
        <ele>908.5491</ele>
        <time>2021-07-06T08:47:43Z</time>
      </trkpt>
      <trkpt lat="42.01954" lon="-7.19347">
        <ele>890.6172</ele>
        <time>2021-07-06T08:47:54Z</time>
      </trkpt>
      <trkpt lat="42.01759" lon="-7.19531">
        <ele>873.3441</ele>
        <time>2021-07-06T08:48:05Z</time>
      </trkpt>
      <trkpt lat="42.01688" lon="-7.19858">
        <ele>856.9214</ele>
        <time>2021-07-06T08:48:16Z</time>
      </trkpt>
      <trkpt lat="42.01544" lon="-7.20097">
        <ele>841.1697</ele>
        <time>2021-07-06T08:48:27Z</time>
      </trkpt>
      <trkpt lat="42.01391" lon="-7.20254">
        <ele>822.9156</ele>
        <time>2021-07-06T08:48:38Z</time>
      </trkpt>
      <trkpt lat="42.01176" lon="-7.20415">
        <ele>809.8933</ele>
        <time>2021-07-06T08:48:49Z</time>
      </trkpt>
      <trkpt lat="42.00952" lon="-7.20419">
        <ele>798.8558</ele>
        <time>2021-07-06T08:49:00Z</time>
      </trkpt>
      <trkpt lat="42.00805" lon="-7.20562">
        <ele>783.8969</ele>
        <time>2021-07-06T08:49:11Z</time>
      </trkpt>
      <trkpt lat="42.00887" lon="-7.20836">
        <ele>771.0148</ele>
        <time>2021-07-06T08:49:22Z</time>
      </trkpt>
      <trkpt lat="42.00703" lon="-7.20905">
        <ele>755.271</ele>
        <time>2021-07-06T08:49:33Z</time>
      </trkpt>
      <trkpt lat="42.0051" lon="-7.20819">
        <ele>741.1309</ele>
        <time>2021-07-06T08:49:44Z</time>
      </trkpt>
      <trkpt lat="42.00416" lon="-7.21116">
        <ele>756.094</ele>
        <time>2021-07-06T08:49:55Z</time>
      </trkpt>
      <trkpt lat="42.00408" lon="-7.21474">
        <ele>775.0996</ele>
        <time>2021-07-06T08:50:06Z</time>
      </trkpt>
      <trkpt lat="42.00285" lon="-7.21784">
        <ele>785.9187</ele>
        <time>2021-07-06T08:50:17Z</time>
      </trkpt>
      <trkpt lat="42.00294" lon="-7.22094">
        <ele>783.0996</ele>
        <time>2021-07-06T08:50:28Z</time>
      </trkpt>
      <trkpt lat="42.00412" lon="-7.22372">
        <ele>774.844</ele>
        <time>2021-07-06T08:50:39Z</time>
      </trkpt>
      <trkpt lat="42.00473" lon="-7.22673">
        <ele>760.5286</ele>
        <time>2021-07-06T08:50:50Z</time>
      </trkpt>
      <trkpt lat="42.0026" lon="-7.22811">
        <ele>760.5237</ele>
        <time>2021-07-06T08:51:01Z</time>
      </trkpt>
      <trkpt lat="42.00043" lon="-7.22985">
        <ele>754.5034</ele>
        <time>2021-07-06T08:51:12Z</time>
      </trkpt>
      <trkpt lat="41.9982" lon="-7.23145">
        <ele>738.997</ele>
        <time>2021-07-06T08:51:23Z</time>
      </trkpt>
      <trkpt lat="41.99648" lon="-7.23413">
        <ele>724.6306</ele>
        <time>2021-07-06T08:51:34Z</time>
      </trkpt>
      <trkpt lat="41.99641" lon="-7.23754">
        <ele>718.7663</ele>
        <time>2021-07-06T08:51:45Z</time>
      </trkpt>
      <trkpt lat="41.99797" lon="-7.24051">
        <ele>713.0591</ele>
        <time>2021-07-06T08:51:56Z</time>
      </trkpt>
      <trkpt lat="41.99856" lon="-7.24414">
        <ele>710.0484</ele>
        <time>2021-07-06T08:52:07Z</time>
      </trkpt>
      <trkpt lat="41.99882" lon="-7.24791">
        <ele>727.0531</ele>
        <time>2021-07-06T08:52:18Z</time>
      </trkpt>
      <trkpt lat="41.9979" lon="-7.25047">
        <ele>745.0826</ele>
        <time>2021-07-06T08:52:29Z</time>
      </trkpt>
      <trkpt lat="41.99558" lon="-7.25158">
        <ele>759.6348</ele>
        <time>2021-07-06T08:52:40Z</time>
      </trkpt>
      <trkpt lat="41.99517" lon="-7.25472">
        <ele>765.9725</ele>
        <time>2021-07-06T08:52:51Z</time>
      </trkpt>
      <trkpt lat="41.99396" lon="-7.25748">
        <ele>770.4546</ele>
        <time>2021-07-06T08:53:02Z</time>
      </trkpt>
      <trkpt lat="41.99462" lon="-7.26085">
        <ele>773.9136</ele>
        <time>2021-07-06T08:53:13Z</time>
      </trkpt>
      <trkpt lat="41.99359" lon="-7.26369">
        <ele>783.4378</ele>
        <time>2021-07-06T08:53:24Z</time>
      </trkpt>
      <trkpt lat="41.99222" lon="-7.26626">
        <ele>800.319</ele>
        <time>2021-07-06T08:53:35Z</time>
      </trkpt>
      <trkpt lat="41.99071" lon="-7.26931">
        <ele>817.6544</ele>
        <time>2021-07-06T08:53:46Z</time>
      </trkpt>
      <trkpt lat="41.98999" lon="-7.27261">
        <ele>830.6646</ele>
        <time>2021-07-06T08:53:57Z</time>
      </trkpt>
      <trkpt lat="41.98806" lon="-7.27407">
        <ele>838.7049</ele>
        <time>2021-07-06T08:54:08Z</time>
      </trkpt>
      <trkpt lat="41.98655" lon="-7.27518">
        <ele>839.5974</ele>
        <time>2021-07-06T08:54:19Z</time>
      </trkpt>
      <trkpt lat="41.98591" lon="-7.27725">
        <ele>846.7409</ele>
        <time>2021-07-06T08:54:30Z</time>
      </trkpt>
      <trkpt lat="41.98673" lon="-7.27954">
        <ele>852.6773</ele>
        <time>2021-07-06T08:54:41Z</time>
      </trkpt>
      <trkpt lat="41.98752" lon="-7.282">
        <ele>864.996</ele>
        <time>2021-07-06T08:54:52Z</time>
      </trkpt>
      <trkpt lat="41.98731" lon="-7.28498">
        <ele>866.6586</ele>
        <time>2021-07-06T08:55:03Z</time>
      </trkpt>
      <trkpt lat="41.98605" lon="-7.28686">
        <ele>887.0193</ele>
        <time>2021-07-06T08:55:14Z</time>
      </trkpt>
      <trkpt lat="41.98494" lon="-7.28903">
        <ele>888.3647</ele>
        <time>2021-07-06T08:55:25Z</time>
      </trkpt>
      <trkpt lat="41.98481" lon="-7.29226">
        <ele>876.9921</ele>
        <time>2021-07-06T08:55:36Z</time>
      </trkpt>
      <trkpt lat="41.98461" lon="-7.29525">
        <ele>878.689</ele>
        <time>2021-07-06T08:55:47Z</time>
      </trkpt>
      <trkpt lat="41.98428" lon="-7.29829">
        <ele>890.5371</ele>
        <time>2021-07-06T08:55:58Z</time>
      </trkpt>
      <trkpt lat="41.98429" lon="-7.30172">
        <ele>887.5897</ele>
        <time>2021-07-06T08:56:09Z</time>
      </trkpt>
      <trkpt lat="41.98419" lon="-7.30471">
        <ele>882.7756</ele>
        <time>2021-07-06T08:56:20Z</time>
      </trkpt>
      <trkpt lat="41.98393" lon="-7.30705">
        <ele>878.2227</ele>
        <time>2021-07-06T08:56:31Z</time>
      </trkpt>
      <trkpt lat="41.98293" lon="-7.30979">
        <ele>872.2629</ele>
        <time>2021-07-06T08:56:42Z</time>
      </trkpt>
      <trkpt lat="41.9819" lon="-7.31315">
        <ele>867.3167</ele>
        <time>2021-07-06T08:56:53Z</time>
      </trkpt>
      <trkpt lat="41.98091" lon="-7.31652">
        <ele>860.1043</ele>
        <time>2021-07-06T08:57:04Z</time>
      </trkpt>
      <trkpt lat="41.9796" lon="-7.31882">
        <ele>863.6983</ele>
        <time>2021-07-06T08:57:15Z</time>
      </trkpt>
      <trkpt lat="41.9792" lon="-7.32129">
        <ele>865.5233</ele>
        <time>2021-07-06T08:57:26Z</time>
      </trkpt>
      <trkpt lat="41.97847" lon="-7.32361">
        <ele>862.3492</ele>
        <time>2021-07-06T08:57:37Z</time>
      </trkpt>
      <trkpt lat="41.97783" lon="-7.3261">
        <ele>859.1511</ele>
        <time>2021-07-06T08:57:48Z</time>
      </trkpt>
      <trkpt lat="41.97694" lon="-7.32846">
        <ele>858.1814</ele>
        <time>2021-07-06T08:57:59Z</time>
      </trkpt>
      <trkpt lat="41.97536" lon="-7.33072">
        <ele>869.0952</ele>
        <time>2021-07-06T08:58:10Z</time>
      </trkpt>
      <trkpt lat="41.97266" lon="-7.33039">
        <ele>875.3854</ele>
        <time>2021-07-06T08:58:21Z</time>
      </trkpt>
      <trkpt lat="41.97059" lon="-7.33082">
        <ele>869.8529</ele>
        <time>2021-07-06T08:58:32Z</time>
      </trkpt>
      <trkpt lat="41.96851" lon="-7.33062">
        <ele>875.5355</ele>
        <time>2021-07-06T08:58:43Z</time>
      </trkpt>
      <trkpt lat="41.96568" lon="-7.33056">
        <ele>880.8944</ele>
        <time>2021-07-06T08:58:54Z</time>
      </trkpt>
      <trkpt lat="41.96292" lon="-7.32963">
        <ele>884.3419</ele>
        <time>2021-07-06T08:59:05Z</time>
      </trkpt>
      <trkpt lat="41.95987" lon="-7.32975">
        <ele>889.195</ele>
        <time>2021-07-06T08:59:16Z</time>
      </trkpt>
      <trkpt lat="41.95703" lon="-7.32897">
        <ele>894.9502</ele>
        <time>2021-07-06T08:59:27Z</time>
      </trkpt>
      <trkpt lat="41.95524" lon="-7.33008">
        <ele>882.7337</ele>
        <time>2021-07-06T08:59:38Z</time>
      </trkpt>
      <trkpt lat="41.95545" lon="-7.33327">
        <ele>871.5685</ele>
        <time>2021-07-06T08:59:49Z</time>
      </trkpt>
      <trkpt lat="41.9564" lon="-7.33539">
        <ele>858.6066</ele>
        <time>2021-07-06T09:00:00Z</time>
      </trkpt>
      <trkpt lat="41.95635" lon="-7.33801">
        <ele>849.034</ele>
        <time>2021-07-06T09:00:11Z</time>
      </trkpt>
      <trkpt lat="41.95693" lon="-7.34101">
        <ele>835.0139</ele>
        <time>2021-07-06T09:00:22Z</time>
      </trkpt>
      <trkpt lat="41.95828" lon="-7.34382">
        <ele>819.3576</ele>
        <time>2021-07-06T09:00:33Z</time>
      </trkpt>
      <trkpt lat="41.95814" lon="-7.34734">
        <ele>816.3075</ele>
        <time>2021-07-06T09:00:44Z</time>
      </trkpt>
      <trkpt lat="41.95555" lon="-7.34878">
        <ele>811.227</ele>
        <time>2021-07-06T09:00:55Z</time>
      </trkpt>
      <trkpt lat="41.95286" lon="-7.34936">
        <ele>797.8808</ele>
        <time>2021-07-06T09:01:06Z</time>
      </trkpt>
      <trkpt lat="41.95195" lon="-7.35209">
        <ele>787.487</ele>
        <time>2021-07-06T09:01:17Z</time>
      </trkpt>
      <trkpt lat="41.95203" lon="-7.35546">
        <ele>780.9946</ele>
        <time>2021-07-06T09:01:28Z</time>
      </trkpt>
      <trkpt lat="41.95258" lon="-7.35868">
        <ele>767.716</ele>
        <time>2021-07-06T09:01:39Z</time>
      </trkpt>
      <trkpt lat="41.95396" lon="-7.36142">
        <ele>747.3138</ele>
        <time>2021-07-06T09:01:50Z</time>
      </trkpt>
      <trkpt lat="41.95426" lon="-7.36449">
        <ele>734.0817</ele>
        <time>2021-07-06T09:02:01Z</time>
      </trkpt>
      <trkpt lat="41.95608" lon="-7.36617">
        <ele>722.1866</ele>
        <time>2021-07-06T09:02:12Z</time>
      </trkpt>
      <trkpt lat="41.95508" lon="-7.36857">
        <ele>709.1215</ele>
        <time>2021-07-06T09:02:23Z</time>
      </trkpt>
      <trkpt lat="41.95315" lon="-7.37056">
        <ele>690.6339</ele>
        <time>2021-07-06T09:02:34Z</time>
      </trkpt>
      <trkpt lat="41.9528" lon="-7.37406">
        <ele>673.206</ele>
        <time>2021-07-06T09:02:45Z</time>
      </trkpt>
      <trkpt lat="41.95082" lon="-7.37645">
        <ele>656.4869</ele>
        <time>2021-07-06T09:02:56Z</time>
      </trkpt>
      <trkpt lat="41.9501" lon="-7.3794">
        <ele>640.1196</ele>
        <time>2021-07-06T09:03:07Z</time>
      </trkpt>
      <trkpt lat="41.95155" lon="-7.38176">
        <ele>623.7542</ele>
        <time>2021-07-06T09:03:18Z</time>
      </trkpt>
      <trkpt lat="41.95284" lon="-7.38455">
        <ele>607.6855</ele>
        <time>2021-07-06T09:03:29Z</time>
      </trkpt>
      <trkpt lat="41.954" lon="-7.38761">
        <ele>591.3566</ele>
        <time>2021-07-06T09:03:40Z</time>
      </trkpt>
      <trkpt lat="41.95646" lon="-7.38881">
        <ele>577.086</ele>
        <time>2021-07-06T09:03:51Z</time>
      </trkpt>
      <trkpt lat="41.95627" lon="-7.39163">
        <ele>561.2917</ele>
        <time>2021-07-06T09:04:02Z</time>
      </trkpt>
      <trkpt lat="41.95463" lon="-7.39448">
        <ele>547.7681</ele>
        <time>2021-07-06T09:04:13Z</time>
      </trkpt>
      <trkpt lat="41.95244" lon="-7.39678">
        <ele>541.6629</ele>
        <time>2021-07-06T09:04:24Z</time>
      </trkpt>
      <trkpt lat="41.95079" lon="-7.39924">
        <ele>521.6205</ele>
        <time>2021-07-06T09:04:35Z</time>
      </trkpt>
      <trkpt lat="41.94833" lon="-7.40117">
        <ele>499.4987</ele>
        <time>2021-07-06T09:04:46Z</time>
      </trkpt>
      <trkpt lat="41.94587" lon="-7.40299">
        <ele>479.324</ele>
        <time>2021-07-06T09:04:57Z</time>
      </trkpt>
      <trkpt lat="41.94549" lon="-7.40588">
        <ele>469.0408</ele>
        <time>2021-07-06T09:05:08Z</time>
      </trkpt>
      <trkpt lat="41.94703" lon="-7.40862">
        <ele>460.5827</ele>
        <time>2021-07-06T09:05:19Z</time>
      </trkpt>
      <trkpt lat="41.94587" lon="-7.41178">
        <ele>452.3193</ele>
        <time>2021-07-06T09:05:30Z</time>
      </trkpt>
      <trkpt lat="41.94504" lon="-7.41424">
        <ele>444.227</ele>
        <time>2021-07-06T09:05:41Z</time>
      </trkpt>
      <trkpt lat="41.94548" lon="-7.41683">
        <ele>435.0114</ele>
        <time>2021-07-06T09:05:52Z</time>
      </trkpt>
      <trkpt lat="41.94533" lon="-7.41943">
        <ele>424.263</ele>
        <time>2021-07-06T09:06:03Z</time>
      </trkpt>
      <trkpt lat="41.94446" lon="-7.42178">
        <ele>413.5064</ele>
        <time>2021-07-06T09:06:14Z</time>
      </trkpt>
      <trkpt lat="41.94371" lon="-7.42408">
        <ele>406.9699</ele>
        <time>2021-07-06T09:06:25Z</time>
      </trkpt>
      <trkpt lat="41.94304" lon="-7.42614">
        <ele>399.9298</ele>
        <time>2021-07-06T09:06:36Z</time>
      </trkpt>
      <trkpt lat="41.94252" lon="-7.42768">
        <ele>403.3167</ele>
        <time>2021-07-06T09:06:47Z</time>
      </trkpt>
      <trkpt lat="41.94214" lon="-7.4289">
        <ele>406.1485</ele>
        <time>2021-07-06T09:06:58Z</time>
      </trkpt>
      <trkpt lat="41.9418" lon="-7.43006">
        <ele>406.4861</ele>
        <time>2021-07-06T09:07:09Z</time>
      </trkpt>
      <trkpt lat="41.94139" lon="-7.43135">
        <ele>400.9825</ele>
        <time>2021-07-06T09:07:20Z</time>
      </trkpt>
      <trkpt lat="41.94108" lon="-7.4323">
        <ele>398.8602</ele>
        <time>2021-07-06T09:07:31Z</time>
      </trkpt>
      <trkpt lat="41.94112" lon="-7.43264">
        <ele>397.6375</ele>
        <time>2021-07-06T09:07:42Z</time>
      </trkpt>
      <trkpt lat="41.94111" lon="-7.43258">
        <ele>405.3378</ele>
        <time>2021-07-06T09:08:11Z</time>
      </trkpt>
      <trkpt lat="41.94097" lon="-7.43263">
        <ele>408.0215</ele>
        <time>2021-07-06T09:08:22Z</time>
      </trkpt>
      <trkpt lat="41.9409" lon="-7.43279">
        <ele>398.8733</ele>
        <time>2021-07-06T09:08:33Z</time>
      </trkpt>
      <trkpt lat="41.94091" lon="-7.43278">
        <ele>393.1624</ele>
        <time>2021-07-06T09:09:32Z</time>
      </trkpt>
      <trkpt lat="41.9409" lon="-7.43283">
        <ele>388.71</ele>
        <time>2021-07-06T09:10:03Z</time>
      </trkpt>
      <trkpt lat="41.94087" lon="-7.43286">
        <ele>388.7837</ele>
        <time>2021-07-06T09:10:24Z</time>
      </trkpt>
      <trkpt lat="41.94088" lon="-7.43282">
        <ele>398.7046</ele>
        <time>2021-07-06T09:10:47Z</time>
      </trkpt>
      <trkpt lat="41.9409" lon="-7.43277">
        <ele>392.3011</ele>
        <time>2021-07-06T09:11:08Z</time>
      </trkpt>
      <trkpt lat="41.941" lon="-7.43264">
        <ele>396.4991</ele>
        <time>2021-07-06T09:11:19Z</time>
      </trkpt>
      <trkpt lat="41.94098" lon="-7.43269">
        <ele>405.3501</ele>
        <time>2021-07-06T09:11:43Z</time>
      </trkpt>
      <trkpt lat="41.94095" lon="-7.43267">
        <ele>411.2575</ele>
        <time>2021-07-06T09:11:54Z</time>
      </trkpt>
      <trkpt lat="41.94091" lon="-7.43264">
        <ele>412.0567</ele>
        <time>2021-07-06T09:12:05Z</time>
      </trkpt>
      <trkpt lat="41.94097" lon="-7.43265">
        <ele>411.3699</ele>
        <time>2021-07-06T09:12:16Z</time>
      </trkpt>
      <trkpt lat="41.94092" lon="-7.43264">
        <ele>413.3932</ele>
        <time>2021-07-06T09:12:28Z</time>
      </trkpt>
      <trkpt lat="41.94096" lon="-7.43262">
        <ele>408.9885</ele>
        <time>2021-07-06T09:12:39Z</time>
      </trkpt>
      <trkpt lat="41.941" lon="-7.43263">
        <ele>390.4466</ele>
        <time>2021-07-06T09:12:54Z</time>
      </trkpt>
      <trkpt lat="41.94098" lon="-7.43255">
        <ele>370.1662</ele>
        <time>2021-07-06T09:13:24Z</time>
      </trkpt>
      <trkpt lat="41.9411" lon="-7.43275">
        <ele>385.0036</ele>
        <time>2021-07-06T09:13:35Z</time>
      </trkpt>
      <trkpt lat="41.94107" lon="-7.43278">
        <ele>385.4428</ele>
        <time>2021-07-06T09:13:46Z</time>
      </trkpt>
      <trkpt lat="41.94105" lon="-7.43272">
        <ele>384.6763</ele>
        <time>2021-07-06T09:13:57Z</time>
      </trkpt>
      <trkpt lat="41.941" lon="-7.43266">
        <ele>385.4356</ele>
        <time>2021-07-06T09:14:08Z</time>
      </trkpt>
      <trkpt lat="41.94098" lon="-7.43257">
        <ele>385.1602</ele>
        <time>2021-07-06T09:14:19Z</time>
      </trkpt>
      <trkpt lat="41.94101" lon="-7.4326">
        <ele>385.1946</ele>
        <time>2021-07-06T09:14:30Z</time>
      </trkpt>
      <trkpt lat="41.94103" lon="-7.43265">
        <ele>385.3276</ele>
        <time>2021-07-06T09:15:00Z</time>
      </trkpt>
      <trkpt lat="41.94105" lon="-7.4327">
        <ele>385.1086</ele>
        <time>2021-07-06T09:15:11Z</time>
      </trkpt>
      <trkpt lat="41.94103" lon="-7.43265">
        <ele>383.6772</ele>
        <time>2021-07-06T09:15:56Z</time>
      </trkpt>
      <trkpt lat="41.94103" lon="-7.43265">
        <ele>384.0437</ele>
        <time>2021-07-06T09:16:56Z</time>
      </trkpt>
      <trkpt lat="41.94101" lon="-7.43259">
        <ele>385.2921</ele>
        <time>2021-07-06T09:17:07Z</time>
      </trkpt>
      <trkpt lat="41.94102" lon="-7.43259">
        <ele>383.7879</ele>
        <time>2021-07-06T09:18:06Z</time>
      </trkpt>
      <trkpt lat="41.94102" lon="-7.43259">
        <ele>384.2647</ele>
        <time>2021-07-06T09:19:05Z</time>
      </trkpt>
      <trkpt lat="41.94099" lon="-7.43261">
        <ele>385.9328</ele>
        <time>2021-07-06T09:19:33Z</time>
      </trkpt>
      <trkpt lat="41.94103" lon="-7.43262">
        <ele>386.4239</ele>
        <time>2021-07-06T09:19:47Z</time>
      </trkpt>
      <trkpt lat="41.94102" lon="-7.43261">
        <ele>384.0944</ele>
        <time>2021-07-06T09:20:46Z</time>
      </trkpt>
      <trkpt lat="41.94102" lon="-7.43261">
        <ele>384.0944</ele>
        <time>2021-07-06T09:21:45Z</time>
      </trkpt>
      <trkpt lat="41.94102" lon="-7.43261">
        <ele>384.0944</ele>
        <time>2021-07-06T09:22:44Z</time>
      </trkpt>
      <trkpt lat="41.94101" lon="-7.43265">
        <ele>384.7286</ele>
        <time>2021-07-06T09:23:43Z</time>
      </trkpt>
      <trkpt lat="41.94107" lon="-7.43266">
        <ele>387.0692</ele>
        <time>2021-07-06T09:24:09Z</time>
      </trkpt>
      <trkpt lat="41.94103" lon="-7.43264">
        <ele>385.318</ele>
        <time>2021-07-06T09:24:24Z</time>
      </trkpt>
      <trkpt lat="41.94109" lon="-7.43266">
        <ele>385.245</ele>
        <time>2021-07-06T09:24:35Z</time>
      </trkpt>
      <trkpt lat="41.94105" lon="-7.43263">
        <ele>385.0402</ele>
        <time>2021-07-06T09:25:07Z</time>
      </trkpt>
      <trkpt lat="41.94108" lon="-7.43264">
        <ele>385.1962</ele>
        <time>2021-07-06T09:25:40Z</time>
      </trkpt>
      <trkpt lat="41.94105" lon="-7.43262">
        <ele>385.9185</ele>
        <time>2021-07-06T09:26:08Z</time>
      </trkpt>
      <trkpt lat="41.94101" lon="-7.43264">
        <ele>385.361</ele>
        <time>2021-07-06T09:26:20Z</time>
      </trkpt>
      <trkpt lat="41.94105" lon="-7.43266">
        <ele>384.7633</ele>
        <time>2021-07-06T09:26:42Z</time>
      </trkpt>
      <trkpt lat="41.94101" lon="-7.43267">
        <ele>385.6675</ele>
        <time>2021-07-06T09:26:59Z</time>
      </trkpt>
      <trkpt lat="41.94088" lon="-7.43287">
        <ele>370.1662</ele>
        <time>2021-07-06T09:27:36Z</time>
      </trkpt>
      <trkpt lat="41.94114" lon="-7.43269">
        <ele>385.0889</ele>
        <time>2021-07-06T09:27:47Z</time>
      </trkpt>
      <trkpt lat="41.94107" lon="-7.43266">
        <ele>385.0309</ele>
        <time>2021-07-06T09:27:58Z</time>
      </trkpt>
      <trkpt lat="41.94105" lon="-7.43264">
        <ele>385.0572</ele>
        <time>2021-07-06T09:28:57Z</time>
      </trkpt>
      <trkpt lat="41.94102" lon="-7.43257">
        <ele>385.6564</ele>
        <time>2021-07-06T09:29:16Z</time>
      </trkpt>
      <trkpt lat="41.94102" lon="-7.43262">
        <ele>385.0366</ele>
        <time>2021-07-06T09:29:27Z</time>
      </trkpt>
      <trkpt lat="41.94105" lon="-7.4326">
        <ele>385.7333</ele>
        <time>2021-07-06T09:29:41Z</time>
      </trkpt>
      <trkpt lat="41.94104" lon="-7.43266">
        <ele>385.5077</ele>
        <time>2021-07-06T09:30:13Z</time>
      </trkpt>
      <trkpt lat="41.94101" lon="-7.43269">
        <ele>385.7929</ele>
        <time>2021-07-06T09:30:27Z</time>
      </trkpt>
      <trkpt lat="41.94104" lon="-7.43272">
        <ele>386.1652</ele>
        <time>2021-07-06T09:30:51Z</time>
      </trkpt>
      <trkpt lat="41.94101" lon="-7.43266">
        <ele>384.422</ele>
        <time>2021-07-06T09:31:02Z</time>
      </trkpt>
      <trkpt lat="41.94097" lon="-7.43267">
        <ele>384.2858</ele>
        <time>2021-07-06T09:31:15Z</time>
      </trkpt>
      <trkpt lat="41.94099" lon="-7.43272">
        <ele>383.6001</ele>
        <time>2021-07-06T09:31:26Z</time>
      </trkpt>
      <trkpt lat="41.94087" lon="-7.4325">
        <ele>385.0751</ele>
        <time>2021-07-06T09:31:37Z</time>
      </trkpt>
      <trkpt lat="41.94075" lon="-7.43238">
        <ele>384.9093</ele>
        <time>2021-07-06T09:31:48Z</time>
      </trkpt>
      <trkpt lat="41.94083" lon="-7.43238">
        <ele>386.3872</ele>
        <time>2021-07-06T09:31:59Z</time>
      </trkpt>
      <trkpt lat="41.94088" lon="-7.43244">
        <ele>385.2628</ele>
        <time>2021-07-06T09:32:10Z</time>
      </trkpt>
      <trkpt lat="41.94102" lon="-7.43275">
        <ele>384.1117</ele>
        <time>2021-07-06T09:32:21Z</time>
      </trkpt>
      <trkpt lat="41.94101" lon="-7.43282">
        <ele>384.523</ele>
        <time>2021-07-06T09:32:32Z</time>
      </trkpt>
      <trkpt lat="41.94095" lon="-7.43282">
        <ele>384.3983</ele>
        <time>2021-07-06T09:32:43Z</time>
      </trkpt>
      <trkpt lat="41.94099" lon="-7.43285">
        <ele>384.3248</ele>
        <time>2021-07-06T09:32:54Z</time>
      </trkpt>
      <trkpt lat="41.94095" lon="-7.43275">
        <ele>385.2712</ele>
        <time>2021-07-06T09:33:29Z</time>
      </trkpt>
      <trkpt lat="41.94101" lon="-7.43275">
        <ele>382.986</ele>
        <time>2021-07-06T09:33:40Z</time>
      </trkpt>
      <trkpt lat="41.941" lon="-7.43267">
        <ele>370.1662</ele>
        <time>2021-07-06T09:34:07Z</time>
      </trkpt>
      <trkpt lat="41.94097" lon="-7.43263">
        <ele>384.6266</ele>
        <time>2021-07-06T09:34:22Z</time>
      </trkpt>
      <trkpt lat="41.94101" lon="-7.43257">
        <ele>387.4536</ele>
        <time>2021-07-06T09:34:33Z</time>
      </trkpt>
      <trkpt lat="41.94097" lon="-7.43258">
        <ele>384.8236</ele>
        <time>2021-07-06T09:34:49Z</time>
      </trkpt>
      <trkpt lat="41.94101" lon="-7.43259">
        <ele>385.3437</ele>
        <time>2021-07-06T09:35:22Z</time>
      </trkpt>
      <trkpt lat="41.94105" lon="-7.43261">
        <ele>385.1252</ele>
        <time>2021-07-06T09:35:41Z</time>
      </trkpt>
      <trkpt lat="41.94102" lon="-7.43259">
        <ele>385.4895</ele>
        <time>2021-07-06T09:35:53Z</time>
      </trkpt>
      <trkpt lat="41.94097" lon="-7.43258">
        <ele>384.4675</ele>
        <time>2021-07-06T09:36:10Z</time>
      </trkpt>
      <trkpt lat="41.94094" lon="-7.43255">
        <ele>384.2004</ele>
        <time>2021-07-06T09:36:24Z</time>
      </trkpt>
      <trkpt lat="41.94098" lon="-7.43255">
        <ele>385.1262</ele>
        <time>2021-07-06T09:36:43Z</time>
      </trkpt>
      <trkpt lat="41.94098" lon="-7.43261">
        <ele>383.7012</ele>
        <time>2021-07-06T09:36:58Z</time>
      </trkpt>
      <trkpt lat="41.9409" lon="-7.43276">
        <ele>384.7085</ele>
        <time>2021-07-06T09:37:09Z</time>
      </trkpt>
      <trkpt lat="41.94089" lon="-7.43282">
        <ele>384.6628</ele>
        <time>2021-07-06T09:37:20Z</time>
      </trkpt>
      <trkpt lat="41.9408" lon="-7.43284">
        <ele>385.0516</ele>
        <time>2021-07-06T09:37:31Z</time>
      </trkpt>
      <trkpt lat="41.94085" lon="-7.43284">
        <ele>384.3978</ele>
        <time>2021-07-06T09:37:46Z</time>
      </trkpt>
      <trkpt lat="41.9409" lon="-7.43286">
        <ele>383.9131</ele>
        <time>2021-07-06T09:37:57Z</time>
      </trkpt>
      <trkpt lat="41.94093" lon="-7.43286">
        <ele>384.4978</ele>
        <time>2021-07-06T09:38:01Z</time>
      </trkpt>
      <trkpt lat="41.9409" lon="-7.43273">
        <ele>385.8639</ele>
        <time>2021-07-06T09:38:38Z</time>
      </trkpt>
      <trkpt lat="41.94089" lon="-7.43274">
        <ele>384.2157</ele>
        <time>2021-07-06T09:39:37Z</time>
      </trkpt>
      <trkpt lat="41.94088" lon="-7.43278">
        <ele>384.9017</ele>
        <time>2021-07-06T09:39:59Z</time>
      </trkpt>
      <trkpt lat="41.94088" lon="-7.43281">
        <ele>385.884</ele>
        <time>2021-07-06T09:40:58Z</time>
      </trkpt>
      <trkpt lat="41.94087" lon="-7.43286">
        <ele>385.5621</ele>
        <time>2021-07-06T09:41:39Z</time>
      </trkpt>
      <trkpt lat="41.94055" lon="-7.434">
        <ele>383.1027</ele>
        <time>2021-07-06T09:41:50Z</time>
      </trkpt>
      <trkpt lat="41.94042" lon="-7.43449">
        <ele>384.2855</ele>
        <time>2021-07-06T09:42:01Z</time>
      </trkpt>
      <trkpt lat="41.94041" lon="-7.43459">
        <ele>385.1813</ele>
        <time>2021-07-06T09:42:12Z</time>
      </trkpt>
      <trkpt lat="41.94033" lon="-7.43517">
        <ele>385.1914</ele>
        <time>2021-07-06T09:42:23Z</time>
      </trkpt>
      <trkpt lat="41.94025" lon="-7.43595">
        <ele>383.2306</ele>
        <time>2021-07-06T09:42:34Z</time>
      </trkpt>
      <trkpt lat="41.94022" lon="-7.43631">
        <ele>383.0086</ele>
        <time>2021-07-06T09:42:45Z</time>
      </trkpt>
      <trkpt lat="41.94023" lon="-7.43664">
        <ele>382.2756</ele>
        <time>2021-07-06T09:42:56Z</time>
      </trkpt>
      <trkpt lat="41.94022" lon="-7.43719">
        <ele>381.228</ele>
        <time>2021-07-06T09:43:07Z</time>
      </trkpt>
      <trkpt lat="41.93984" lon="-7.43754">
        <ele>380.5742</ele>
        <time>2021-07-06T09:43:18Z</time>
      </trkpt>
      <trkpt lat="41.93921" lon="-7.43778">
        <ele>381.0575</ele>
        <time>2021-07-06T09:43:29Z</time>
      </trkpt>
      <trkpt lat="41.93867" lon="-7.43794">
        <ele>382.6508</ele>
        <time>2021-07-06T09:43:40Z</time>
      </trkpt>
      <trkpt lat="41.93825" lon="-7.43807">
        <ele>383.7422</ele>
        <time>2021-07-06T09:43:51Z</time>
      </trkpt>
      <trkpt lat="41.93789" lon="-7.43818">
        <ele>383.522</ele>
        <time>2021-07-06T09:44:02Z</time>
      </trkpt>
      <trkpt lat="41.93774" lon="-7.43823">
        <ele>383.2794</ele>
        <time>2021-07-06T09:44:13Z</time>
      </trkpt>
      <trkpt lat="41.93714" lon="-7.43839">
        <ele>381.9886</ele>
        <time>2021-07-06T09:44:24Z</time>
      </trkpt>
      <trkpt lat="41.93631" lon="-7.43856">
        <ele>379.663</ele>
        <time>2021-07-06T09:44:35Z</time>
      </trkpt>
      <trkpt lat="41.93528" lon="-7.43874">
        <ele>377.1087</ele>
        <time>2021-07-06T09:44:46Z</time>
      </trkpt>
      <trkpt lat="41.9342" lon="-7.43894">
        <ele>377.6368</ele>
        <time>2021-07-06T09:44:57Z</time>
      </trkpt>
      <trkpt lat="41.93322" lon="-7.43942">
        <ele>379.7078</ele>
        <time>2021-07-06T09:45:08Z</time>
      </trkpt>
      <trkpt lat="41.93211" lon="-7.44019">
        <ele>380.1208</ele>
        <time>2021-07-06T09:45:19Z</time>
      </trkpt>
      <trkpt lat="41.93093" lon="-7.44065">
        <ele>379.6821</ele>
        <time>2021-07-06T09:45:30Z</time>
      </trkpt>
      <trkpt lat="41.92952" lon="-7.44105">
        <ele>379.3611</ele>
        <time>2021-07-06T09:45:41Z</time>
      </trkpt>
      <trkpt lat="41.92818" lon="-7.44143">
        <ele>377.7065</ele>
        <time>2021-07-06T09:45:52Z</time>
      </trkpt>
      <trkpt lat="41.92671" lon="-7.44186">
        <ele>376.7531</ele>
        <time>2021-07-06T09:46:03Z</time>
      </trkpt>
      <trkpt lat="41.92517" lon="-7.44246">
        <ele>377.3742</ele>
        <time>2021-07-06T09:46:14Z</time>
      </trkpt>
      <trkpt lat="41.92393" lon="-7.44299">
        <ele>377.6473</ele>
        <time>2021-07-06T09:46:25Z</time>
      </trkpt>
      <trkpt lat="41.92274" lon="-7.4434">
        <ele>375.4987</ele>
        <time>2021-07-06T09:46:36Z</time>
      </trkpt>
      <trkpt lat="41.92153" lon="-7.44375">
        <ele>375.2627</ele>
        <time>2021-07-06T09:46:47Z</time>
      </trkpt>
      <trkpt lat="41.92003" lon="-7.44384">
        <ele>375.4659</ele>
        <time>2021-07-06T09:46:58Z</time>
      </trkpt>
      <trkpt lat="41.91865" lon="-7.44389">
        <ele>376.2467</ele>
        <time>2021-07-06T09:47:09Z</time>
      </trkpt>
      <trkpt lat="41.91732" lon="-7.44351">
        <ele>375.3329</ele>
        <time>2021-07-06T09:47:20Z</time>
      </trkpt>
      <trkpt lat="41.91656" lon="-7.44343">
        <ele>376.9092</ele>
        <time>2021-07-06T09:47:31Z</time>
      </trkpt>
      <trkpt lat="41.91611" lon="-7.44341">
        <ele>375.318</ele>
        <time>2021-07-06T09:47:42Z</time>
      </trkpt>
      <trkpt lat="41.91426" lon="-7.44334">
        <ele>374.6362</ele>
        <time>2021-07-06T09:47:53Z</time>
      </trkpt>
      <trkpt lat="41.91286" lon="-7.44324">
        <ele>375.4859</ele>
        <time>2021-07-06T09:48:04Z</time>
      </trkpt>
      <trkpt lat="41.91139" lon="-7.44343">
        <ele>376.7726</ele>
        <time>2021-07-06T09:48:15Z</time>
      </trkpt>
      <trkpt lat="41.90983" lon="-7.4431">
        <ele>374.2541</ele>
        <time>2021-07-06T09:48:26Z</time>
      </trkpt>
      <trkpt lat="41.90847" lon="-7.44308">
        <ele>374.9516</ele>
        <time>2021-07-06T09:48:37Z</time>
      </trkpt>
      <trkpt lat="41.90726" lon="-7.44297">
        <ele>374.0694</ele>
        <time>2021-07-06T09:48:48Z</time>
      </trkpt>
      <trkpt lat="41.90469" lon="-7.44255">
        <ele>374.4001</ele>
        <time>2021-07-06T09:48:59Z</time>
      </trkpt>
      <trkpt lat="41.90215" lon="-7.4421">
        <ele>374.5661</ele>
        <time>2021-07-06T09:49:10Z</time>
      </trkpt>
      <trkpt lat="41.89957" lon="-7.44166">
        <ele>374.283</ele>
        <time>2021-07-06T09:49:21Z</time>
      </trkpt>
      <trkpt lat="41.89691" lon="-7.44156">
        <ele>376.0305</ele>
        <time>2021-07-06T09:49:32Z</time>
      </trkpt>
      <trkpt lat="41.89421" lon="-7.44168">
        <ele>377.8112</ele>
        <time>2021-07-06T09:49:43Z</time>
      </trkpt>
      <trkpt lat="41.89173" lon="-7.44177">
        <ele>375.891</ele>
        <time>2021-07-06T09:49:54Z</time>
      </trkpt>
      <trkpt lat="41.88901" lon="-7.44158">
        <ele>376.9869</ele>
        <time>2021-07-06T09:50:05Z</time>
      </trkpt>
      <trkpt lat="41.88644" lon="-7.44041">
        <ele>375.9849</ele>
        <time>2021-07-06T09:50:16Z</time>
      </trkpt>
      <trkpt lat="41.88387" lon="-7.4395">
        <ele>378.2885</ele>
        <time>2021-07-06T09:50:27Z</time>
      </trkpt>
      <trkpt lat="41.88172" lon="-7.43879">
        <ele>383.0649</ele>
        <time>2021-07-06T09:50:38Z</time>
      </trkpt>
      <trkpt lat="41.87955" lon="-7.439">
        <ele>382.791</ele>
        <time>2021-07-06T09:50:49Z</time>
      </trkpt>
      <trkpt lat="41.87747" lon="-7.43946">
        <ele>383.1143</ele>
        <time>2021-07-06T09:51:00Z</time>
      </trkpt>
      <trkpt lat="41.87533" lon="-7.43994">
        <ele>382.1733</ele>
        <time>2021-07-06T09:51:11Z</time>
      </trkpt>
      <trkpt lat="41.87349" lon="-7.4403">
        <ele>379.87</ele>
        <time>2021-07-06T09:51:22Z</time>
      </trkpt>
      <trkpt lat="41.87185" lon="-7.44045">
        <ele>377.8502</ele>
        <time>2021-07-06T09:51:33Z</time>
      </trkpt>
      <trkpt lat="41.87046" lon="-7.44049">
        <ele>376.1489</ele>
        <time>2021-07-06T09:51:44Z</time>
      </trkpt>
      <trkpt lat="41.869" lon="-7.44054">
        <ele>372.9323</ele>
        <time>2021-07-06T09:51:55Z</time>
      </trkpt>
      <trkpt lat="41.8672" lon="-7.44056">
        <ele>371.4881</ele>
        <time>2021-07-06T09:52:06Z</time>
      </trkpt>
      <trkpt lat="41.86463" lon="-7.43947">
        <ele>371.0679</ele>
        <time>2021-07-06T09:52:17Z</time>
      </trkpt>
      <trkpt lat="41.86192" lon="-7.43828">
        <ele>369.2702</ele>
        <time>2021-07-06T09:52:28Z</time>
      </trkpt>
      <trkpt lat="41.8593" lon="-7.43712">
        <ele>370.226</ele>
        <time>2021-07-06T09:52:39Z</time>
      </trkpt>
      <trkpt lat="41.85671" lon="-7.43595">
        <ele>376.138</ele>
        <time>2021-07-06T09:52:50Z</time>
      </trkpt>
      <trkpt lat="41.8545" lon="-7.43496">
        <ele>385.3604</ele>
        <time>2021-07-06T09:53:01Z</time>
      </trkpt>
      <trkpt lat="41.85256" lon="-7.43378">
        <ele>382.8891</ele>
        <time>2021-07-06T09:53:12Z</time>
      </trkpt>
      <trkpt lat="41.8508" lon="-7.4322">
        <ele>379.7263</ele>
        <time>2021-07-06T09:53:23Z</time>
      </trkpt>
      <trkpt lat="41.84906" lon="-7.43039">
        <ele>379.5682</ele>
        <time>2021-07-06T09:53:34Z</time>
      </trkpt>
      <trkpt lat="41.84644" lon="-7.42912">
        <ele>376.7135</ele>
        <time>2021-07-06T09:53:45Z</time>
      </trkpt>
      <trkpt lat="41.8437" lon="-7.4279">
        <ele>372.653</ele>
        <time>2021-07-06T09:53:56Z</time>
      </trkpt>
      <trkpt lat="41.84108" lon="-7.42672">
        <ele>373.018</ele>
        <time>2021-07-06T09:54:07Z</time>
      </trkpt>
      <trkpt lat="41.83858" lon="-7.42543">
        <ele>365.6914</ele>
        <time>2021-07-06T09:54:18Z</time>
      </trkpt>
      <trkpt lat="41.83633" lon="-7.42416">
        <ele>369.7714</ele>
        <time>2021-07-06T09:54:29Z</time>
      </trkpt>
      <trkpt lat="41.83447" lon="-7.42353">
        <ele>368.5424</ele>
        <time>2021-07-06T09:54:40Z</time>
      </trkpt>
      <trkpt lat="41.8325" lon="-7.42332">
        <ele>365.9406</ele>
        <time>2021-07-06T09:54:51Z</time>
      </trkpt>
      <trkpt lat="41.82997" lon="-7.42369">
        <ele>364.8001</ele>
        <time>2021-07-06T09:55:02Z</time>
      </trkpt>
      <trkpt lat="41.82762" lon="-7.42438">
        <ele>359.5388</ele>
        <time>2021-07-06T09:55:13Z</time>
      </trkpt>
      <trkpt lat="41.82565" lon="-7.42529">
        <ele>361.7116</ele>
        <time>2021-07-06T09:55:24Z</time>
      </trkpt>
      <trkpt lat="41.82506" lon="-7.42543">
        <ele>363.5404</ele>
        <time>2021-07-06T09:55:35Z</time>
      </trkpt>
      <trkpt lat="41.82527" lon="-7.42531">
        <ele>362.8257</ele>
        <time>2021-07-06T09:55:46Z</time>
      </trkpt>
      <trkpt lat="41.82531" lon="-7.42535">
        <ele>364.3465</ele>
        <time>2021-07-06T09:55:57Z</time>
      </trkpt>
      <trkpt lat="41.82538" lon="-7.42538">
        <ele>366.7006</ele>
        <time>2021-07-06T09:56:10Z</time>
      </trkpt>
      <trkpt lat="41.82541" lon="-7.42535">
        <ele>366.4544</ele>
        <time>2021-07-06T09:56:33Z</time>
      </trkpt>
      <trkpt lat="41.8254" lon="-7.4253">
        <ele>366.5529</ele>
        <time>2021-07-06T09:56:50Z</time>
      </trkpt>
      <trkpt lat="41.82539" lon="-7.42528">
        <ele>368.4982</ele>
        <time>2021-07-06T09:57:50Z</time>
      </trkpt>
      <trkpt lat="41.82538" lon="-7.42526">
        <ele>368.7977</ele>
        <time>2021-07-06T09:58:50Z</time>
      </trkpt>
      <trkpt lat="41.82535" lon="-7.42528">
        <ele>367.9297</ele>
        <time>2021-07-06T09:59:50Z</time>
      </trkpt>
      <trkpt lat="41.82538" lon="-7.42524">
        <ele>368.7484</ele>
        <time>2021-07-06T10:00:02Z</time>
      </trkpt>
      <trkpt lat="41.82541" lon="-7.42523">
        <ele>369.7184</ele>
        <time>2021-07-06T10:00:17Z</time>
      </trkpt>
      <trkpt lat="41.82489" lon="-7.4257">
        <ele>368.1997</ele>
        <time>2021-07-06T10:00:28Z</time>
      </trkpt>
      <trkpt lat="41.82326" lon="-7.42612">
        <ele>371.802</ele>
        <time>2021-07-06T10:00:39Z</time>
      </trkpt>
      <trkpt lat="41.82176" lon="-7.42541">
        <ele>371.0236</ele>
        <time>2021-07-06T10:00:50Z</time>
      </trkpt>
      <trkpt lat="41.82121" lon="-7.42512">
        <ele>368.7786</ele>
        <time>2021-07-06T10:01:01Z</time>
      </trkpt>
      <trkpt lat="41.82051" lon="-7.42472">
        <ele>368.9392</ele>
        <time>2021-07-06T10:01:12Z</time>
      </trkpt>
      <trkpt lat="41.8188" lon="-7.42378">
        <ele>370.6045</ele>
        <time>2021-07-06T10:01:23Z</time>
      </trkpt>
      <trkpt lat="41.81699" lon="-7.42292">
        <ele>366.257</ele>
        <time>2021-07-06T10:01:34Z</time>
      </trkpt>
      <trkpt lat="41.81533" lon="-7.42271">
        <ele>373.3028</ele>
        <time>2021-07-06T10:01:45Z</time>
      </trkpt>
      <trkpt lat="41.8137" lon="-7.42279">
        <ele>375.106</ele>
        <time>2021-07-06T10:01:56Z</time>
      </trkpt>
      <trkpt lat="41.81246" lon="-7.4228">
        <ele>364.5669</ele>
        <time>2021-07-06T10:02:07Z</time>
      </trkpt>
      <trkpt lat="41.81117" lon="-7.42258">
        <ele>364.0394</ele>
        <time>2021-07-06T10:02:18Z</time>
      </trkpt>
      <trkpt lat="41.81056" lon="-7.42205">
        <ele>363.8703</ele>
        <time>2021-07-06T10:02:29Z</time>
      </trkpt>
      <trkpt lat="41.8106" lon="-7.42206">
        <ele>371.2339</ele>
        <time>2021-07-06T10:03:22Z</time>
      </trkpt>
      <trkpt lat="41.81058" lon="-7.42206">
        <ele>369.3859</ele>
        <time>2021-07-06T10:04:21Z</time>
      </trkpt>
      <trkpt lat="41.81058" lon="-7.42207">
        <ele>369.7944</ele>
        <time>2021-07-06T10:05:20Z</time>
      </trkpt>
      <trkpt lat="41.81053" lon="-7.42199">
        <ele>370.1154</ele>
        <time>2021-07-06T10:05:37Z</time>
      </trkpt>
      <trkpt lat="41.80981" lon="-7.42122">
        <ele>372.5764</ele>
        <time>2021-07-06T10:05:48Z</time>
      </trkpt>
      <trkpt lat="41.80879" lon="-7.42014">
        <ele>378.6428</ele>
        <time>2021-07-06T10:05:59Z</time>
      </trkpt>
      <trkpt lat="41.80732" lon="-7.41861">
        <ele>385.6503</ele>
        <time>2021-07-06T10:06:10Z</time>
      </trkpt>
      <trkpt lat="41.80578" lon="-7.4183">
        <ele>385.3074</ele>
        <time>2021-07-06T10:06:21Z</time>
      </trkpt>
      <trkpt lat="41.80457" lon="-7.4193">
        <ele>379.2326</ele>
        <time>2021-07-06T10:06:32Z</time>
      </trkpt>
      <trkpt lat="41.80285" lon="-7.41992">
        <ele>385.8796</ele>
        <time>2021-07-06T10:06:43Z</time>
      </trkpt>
      <trkpt lat="41.8011" lon="-7.42089">
        <ele>391.1791</ele>
        <time>2021-07-06T10:06:54Z</time>
      </trkpt>
      <trkpt lat="41.79944" lon="-7.42182">
        <ele>393.7067</ele>
        <time>2021-07-06T10:07:05Z</time>
      </trkpt>
      <trkpt lat="41.79808" lon="-7.42258">
        <ele>394.1726</ele>
        <time>2021-07-06T10:07:16Z</time>
      </trkpt>
      <trkpt lat="41.79657" lon="-7.42307">
        <ele>384.7504</ele>
        <time>2021-07-06T10:07:27Z</time>
      </trkpt>
      <trkpt lat="41.79513" lon="-7.42327">
        <ele>377.6085</ele>
        <time>2021-07-06T10:07:38Z</time>
      </trkpt>
      <trkpt lat="41.79382" lon="-7.42342">
        <ele>372.8767</ele>
        <time>2021-07-06T10:07:49Z</time>
      </trkpt>
      <trkpt lat="41.79254" lon="-7.42329">
        <ele>374.3825</ele>
        <time>2021-07-06T10:08:00Z</time>
      </trkpt>
      <trkpt lat="41.79129" lon="-7.42318">
        <ele>376.254</ele>
        <time>2021-07-06T10:08:11Z</time>
      </trkpt>
      <trkpt lat="41.79001" lon="-7.42308">
        <ele>369.8864</ele>
        <time>2021-07-06T10:08:22Z</time>
      </trkpt>
      <trkpt lat="41.78868" lon="-7.42296">
        <ele>366.5127</ele>
        <time>2021-07-06T10:08:33Z</time>
      </trkpt>
      <trkpt lat="41.7875" lon="-7.42331">
        <ele>368.9662</ele>
        <time>2021-07-06T10:08:44Z</time>
      </trkpt>
      <trkpt lat="41.78598" lon="-7.42346">
        <ele>363.5522</ele>
        <time>2021-07-06T10:08:55Z</time>
      </trkpt>
      <trkpt lat="41.78483" lon="-7.42338">
        <ele>363.621</ele>
        <time>2021-07-06T10:09:06Z</time>
      </trkpt>
      <trkpt lat="41.78299" lon="-7.42335">
        <ele>364.2923</ele>
        <time>2021-07-06T10:09:17Z</time>
      </trkpt>
      <trkpt lat="41.78118" lon="-7.42345">
        <ele>362.3528</ele>
        <time>2021-07-06T10:09:28Z</time>
      </trkpt>
      <trkpt lat="41.77926" lon="-7.42354">
        <ele>359.9287</ele>
        <time>2021-07-06T10:09:39Z</time>
      </trkpt>
      <trkpt lat="41.77715" lon="-7.42421">
        <ele>357.7957</ele>
        <time>2021-07-06T10:09:50Z</time>
      </trkpt>
      <trkpt lat="41.77492" lon="-7.42509">
        <ele>355.4762</ele>
        <time>2021-07-06T10:10:02Z</time>
      </trkpt>
      <trkpt lat="41.77312" lon="-7.42635">
        <ele>354.3279</ele>
        <time>2021-07-06T10:10:13Z</time>
      </trkpt>
      <trkpt lat="41.77152" lon="-7.42814">
        <ele>354.5661</ele>
        <time>2021-07-06T10:10:24Z</time>
      </trkpt>
      <trkpt lat="41.76929" lon="-7.43069">
        <ele>353.5885</ele>
        <time>2021-07-06T10:10:35Z</time>
      </trkpt>
      <trkpt lat="41.76736" lon="-7.4329">
        <ele>352.9648</ele>
        <time>2021-07-06T10:10:46Z</time>
      </trkpt>
      <trkpt lat="41.76548" lon="-7.43496">
        <ele>351.9115</ele>
        <time>2021-07-06T10:10:57Z</time>
      </trkpt>
      <trkpt lat="41.76325" lon="-7.43641">
        <ele>351.5803</ele>
        <time>2021-07-06T10:11:08Z</time>
      </trkpt>
      <trkpt lat="41.76092" lon="-7.43787">
        <ele>352.0796</ele>
        <time>2021-07-06T10:11:19Z</time>
      </trkpt>
      <trkpt lat="41.75862" lon="-7.43932">
        <ele>352.5137</ele>
        <time>2021-07-06T10:11:30Z</time>
      </trkpt>
      <trkpt lat="41.75633" lon="-7.44077">
        <ele>353.0539</ele>
        <time>2021-07-06T10:11:41Z</time>
      </trkpt>
      <trkpt lat="41.75397" lon="-7.44226">
        <ele>352.5532</ele>
        <time>2021-07-06T10:11:52Z</time>
      </trkpt>
      <trkpt lat="41.75168" lon="-7.4437">
        <ele>350.7472</ele>
        <time>2021-07-06T10:12:03Z</time>
      </trkpt>
      <trkpt lat="41.7498" lon="-7.44496">
        <ele>349.6888</ele>
        <time>2021-07-06T10:12:14Z</time>
      </trkpt>
      <trkpt lat="41.74804" lon="-7.44607">
        <ele>350.641</ele>
        <time>2021-07-06T10:12:25Z</time>
      </trkpt>
      <trkpt lat="41.74627" lon="-7.4472">
        <ele>350.329</ele>
        <time>2021-07-06T10:12:36Z</time>
      </trkpt>
      <trkpt lat="41.74426" lon="-7.44849">
        <ele>349.7486</ele>
        <time>2021-07-06T10:12:47Z</time>
      </trkpt>
      <trkpt lat="41.74238" lon="-7.44968">
        <ele>351.3786</ele>
        <time>2021-07-06T10:12:58Z</time>
      </trkpt>
      <trkpt lat="41.74052" lon="-7.45086">
        <ele>349.6179</ele>
        <time>2021-07-06T10:13:09Z</time>
      </trkpt>
      <trkpt lat="41.7391" lon="-7.45173">
        <ele>350.4774</ele>
        <time>2021-07-06T10:13:20Z</time>
      </trkpt>
      <trkpt lat="41.73784" lon="-7.45254">
        <ele>351.9139</ele>
        <time>2021-07-06T10:13:31Z</time>
      </trkpt>
      <trkpt lat="41.73639" lon="-7.45347">
        <ele>352.0609</ele>
        <time>2021-07-06T10:13:42Z</time>
      </trkpt>
      <trkpt lat="41.73488" lon="-7.45444">
        <ele>351.032</ele>
        <time>2021-07-06T10:13:53Z</time>
      </trkpt>
      <trkpt lat="41.73371" lon="-7.45602">
        <ele>350.0912</ele>
        <time>2021-07-06T10:14:04Z</time>
      </trkpt>
      <trkpt lat="41.73376" lon="-7.45799">
        <ele>351.4034</ele>
        <time>2021-07-06T10:14:15Z</time>
      </trkpt>
      <trkpt lat="41.7343" lon="-7.45997">
        <ele>354.1589</ele>
        <time>2021-07-06T10:14:26Z</time>
      </trkpt>
      <trkpt lat="41.73501" lon="-7.46195">
        <ele>351.3829</ele>
        <time>2021-07-06T10:14:37Z</time>
      </trkpt>
      <trkpt lat="41.73578" lon="-7.46301">
        <ele>352.4798</ele>
        <time>2021-07-06T10:14:48Z</time>
      </trkpt>
      <trkpt lat="41.73658" lon="-7.46438">
        <ele>353.2345</ele>
        <time>2021-07-06T10:14:59Z</time>
      </trkpt>
      <trkpt lat="41.73648" lon="-7.46518">
        <ele>352.415</ele>
        <time>2021-07-06T10:15:10Z</time>
      </trkpt>
      <trkpt lat="41.73544" lon="-7.46598">
        <ele>351.7524</ele>
        <time>2021-07-06T10:15:21Z</time>
      </trkpt>
      <trkpt lat="41.73433" lon="-7.46679">
        <ele>353.2416</ele>
        <time>2021-07-06T10:15:32Z</time>
      </trkpt>
      <trkpt lat="41.73341" lon="-7.46746">
        <ele>352.2344</ele>
        <time>2021-07-06T10:15:43Z</time>
      </trkpt>
      <trkpt lat="41.7324" lon="-7.46822">
        <ele>351.2987</ele>
        <time>2021-07-06T10:15:54Z</time>
      </trkpt>
      <trkpt lat="41.73209" lon="-7.46856">
        <ele>351.624</ele>
        <time>2021-07-06T10:16:05Z</time>
      </trkpt>
      <trkpt lat="41.73187" lon="-7.46878">
        <ele>353.9481</ele>
        <time>2021-07-06T10:16:16Z</time>
      </trkpt>
      <trkpt lat="41.73068" lon="-7.46943">
        <ele>352.2456</ele>
        <time>2021-07-06T10:16:27Z</time>
      </trkpt>
      <trkpt lat="41.72945" lon="-7.4704">
        <ele>349.1655</ele>
        <time>2021-07-06T10:16:38Z</time>
      </trkpt>
      <trkpt lat="41.72813" lon="-7.47137">
        <ele>350.0631</ele>
        <time>2021-07-06T10:16:49Z</time>
      </trkpt>
      <trkpt lat="41.7269" lon="-7.4723">
        <ele>350.7397</ele>
        <time>2021-07-06T10:17:00Z</time>
      </trkpt>
      <trkpt lat="41.72579" lon="-7.47313">
        <ele>348.8447</ele>
        <time>2021-07-06T10:17:11Z</time>
      </trkpt>
      <trkpt lat="41.72465" lon="-7.47401">
        <ele>347.6054</ele>
        <time>2021-07-06T10:17:22Z</time>
      </trkpt>
      <trkpt lat="41.7235" lon="-7.47491">
        <ele>348.1543</ele>
        <time>2021-07-06T10:17:33Z</time>
      </trkpt>
      <trkpt lat="41.72222" lon="-7.47588">
        <ele>348.3417</ele>
        <time>2021-07-06T10:17:44Z</time>
      </trkpt>
      <trkpt lat="41.72108" lon="-7.4768">
        <ele>349.3596</ele>
        <time>2021-07-06T10:17:55Z</time>
      </trkpt>
      <trkpt lat="41.72023" lon="-7.478">
        <ele>351.3743</ele>
        <time>2021-07-06T10:18:06Z</time>
      </trkpt>
      <trkpt lat="41.71955" lon="-7.47952">
        <ele>359.306</ele>
        <time>2021-07-06T10:18:17Z</time>
      </trkpt>
      <trkpt lat="41.71898" lon="-7.4815">
        <ele>370.2238</ele>
        <time>2021-07-06T10:18:28Z</time>
      </trkpt>
      <trkpt lat="41.71808" lon="-7.4834">
        <ele>378.6784</ele>
        <time>2021-07-06T10:18:39Z</time>
      </trkpt>
      <trkpt lat="41.71696" lon="-7.48511">
        <ele>388.3964</ele>
        <time>2021-07-06T10:18:50Z</time>
      </trkpt>
      <trkpt lat="41.71586" lon="-7.48682">
        <ele>396.0943</ele>
        <time>2021-07-06T10:19:01Z</time>
      </trkpt>
      <trkpt lat="41.71497" lon="-7.48817">
        <ele>401.7133</ele>
        <time>2021-07-06T10:19:12Z</time>
      </trkpt>
      <trkpt lat="41.71372" lon="-7.49007">
        <ele>408.5479</ele>
        <time>2021-07-06T10:19:23Z</time>
      </trkpt>
      <trkpt lat="41.71238" lon="-7.49234">
        <ele>404.6016</ele>
        <time>2021-07-06T10:19:34Z</time>
      </trkpt>
      <trkpt lat="41.71108" lon="-7.4944">
        <ele>402.1453</ele>
        <time>2021-07-06T10:19:45Z</time>
      </trkpt>
      <trkpt lat="41.70937" lon="-7.49554">
        <ele>395.413</ele>
        <time>2021-07-06T10:19:56Z</time>
      </trkpt>
      <trkpt lat="41.70799" lon="-7.49622">
        <ele>392.0052</ele>
        <time>2021-07-06T10:20:07Z</time>
      </trkpt>
      <trkpt lat="41.70672" lon="-7.49689">
        <ele>389.0365</ele>
        <time>2021-07-06T10:20:18Z</time>
      </trkpt>
      <trkpt lat="41.70568" lon="-7.4982">
        <ele>387.8714</ele>
        <time>2021-07-06T10:20:29Z</time>
      </trkpt>
      <trkpt lat="41.70609" lon="-7.50034">
        <ele>396.8944</ele>
        <time>2021-07-06T10:20:40Z</time>
      </trkpt>
      <trkpt lat="41.70762" lon="-7.50193">
        <ele>408.5684</ele>
        <time>2021-07-06T10:20:51Z</time>
      </trkpt>
      <trkpt lat="41.70846" lon="-7.50417">
        <ele>418.06</ele>
        <time>2021-07-06T10:21:02Z</time>
      </trkpt>
      <trkpt lat="41.70807" lon="-7.5071">
        <ele>423.7336</ele>
        <time>2021-07-06T10:21:13Z</time>
      </trkpt>
      <trkpt lat="41.70739" lon="-7.50989">
        <ele>431.9879</ele>
        <time>2021-07-06T10:21:24Z</time>
      </trkpt>
      <trkpt lat="41.70574" lon="-7.51195">
        <ele>440.2775</ele>
        <time>2021-07-06T10:21:35Z</time>
      </trkpt>
      <trkpt lat="41.70372" lon="-7.51382">
        <ele>446.2452</ele>
        <time>2021-07-06T10:21:46Z</time>
      </trkpt>
      <trkpt lat="41.70204" lon="-7.51535">
        <ele>451.5697</ele>
        <time>2021-07-06T10:21:57Z</time>
      </trkpt>
      <trkpt lat="41.70055" lon="-7.51693">
        <ele>454.5277</ele>
        <time>2021-07-06T10:22:08Z</time>
      </trkpt>
      <trkpt lat="41.69912" lon="-7.51851">
        <ele>451.2892</ele>
        <time>2021-07-06T10:22:19Z</time>
      </trkpt>
      <trkpt lat="41.69792" lon="-7.51983">
        <ele>448.914</ele>
        <time>2021-07-06T10:22:30Z</time>
      </trkpt>
      <trkpt lat="41.69704" lon="-7.52133">
        <ele>450.3059</ele>
        <time>2021-07-06T10:22:41Z</time>
      </trkpt>
      <trkpt lat="41.6968" lon="-7.52331">
        <ele>453.8645</ele>
        <time>2021-07-06T10:22:52Z</time>
      </trkpt>
      <trkpt lat="41.69644" lon="-7.52558">
        <ele>457.4617</ele>
        <time>2021-07-06T10:23:03Z</time>
      </trkpt>
      <trkpt lat="41.69483" lon="-7.52767">
        <ele>456.3068</ele>
        <time>2021-07-06T10:23:14Z</time>
      </trkpt>
      <trkpt lat="41.69284" lon="-7.52949">
        <ele>456.8993</ele>
        <time>2021-07-06T10:23:25Z</time>
      </trkpt>
      <trkpt lat="41.6909" lon="-7.53128">
        <ele>455.3013</ele>
        <time>2021-07-06T10:23:36Z</time>
      </trkpt>
      <trkpt lat="41.6896" lon="-7.5339">
        <ele>454.1092</ele>
        <time>2021-07-06T10:23:47Z</time>
      </trkpt>
      <trkpt lat="41.6887" lon="-7.53687">
        <ele>452.3244</ele>
        <time>2021-07-06T10:23:58Z</time>
      </trkpt>
      <trkpt lat="41.68717" lon="-7.53846">
        <ele>452.3329</ele>
        <time>2021-07-06T10:24:09Z</time>
      </trkpt>
      <trkpt lat="41.6861" lon="-7.54006">
        <ele>455.437</ele>
        <time>2021-07-06T10:24:20Z</time>
      </trkpt>
      <trkpt lat="41.68578" lon="-7.5422">
        <ele>456.9655</ele>
        <time>2021-07-06T10:24:31Z</time>
      </trkpt>
      <trkpt lat="41.68558" lon="-7.54435">
        <ele>463</ele>
        <time>2021-07-06T10:24:42Z</time>
      </trkpt>
      <trkpt lat="41.68523" lon="-7.54652">
        <ele>464.5678</ele>
        <time>2021-07-06T10:24:53Z</time>
      </trkpt>
      <trkpt lat="41.6837" lon="-7.54773">
        <ele>460.2404</ele>
        <time>2021-07-06T10:25:04Z</time>
      </trkpt>
      <trkpt lat="41.68162" lon="-7.54859">
        <ele>456.6626</ele>
        <time>2021-07-06T10:25:15Z</time>
      </trkpt>
      <trkpt lat="41.68038" lon="-7.55092">
        <ele>462.1047</ele>
        <time>2021-07-06T10:25:26Z</time>
      </trkpt>
      <trkpt lat="41.67989" lon="-7.5536">
        <ele>473.3886</ele>
        <time>2021-07-06T10:25:37Z</time>
      </trkpt>
      <trkpt lat="41.67918" lon="-7.55576">
        <ele>478.8326</ele>
        <time>2021-07-06T10:25:48Z</time>
      </trkpt>
      <trkpt lat="41.67767" lon="-7.55673">
        <ele>476.8183</ele>
        <time>2021-07-06T10:25:59Z</time>
      </trkpt>
      <trkpt lat="41.67674" lon="-7.55857">
        <ele>464.2337</ele>
        <time>2021-07-06T10:26:10Z</time>
      </trkpt>
      <trkpt lat="41.67661" lon="-7.56071">
        <ele>453.7021</ele>
        <time>2021-07-06T10:26:21Z</time>
      </trkpt>
      <trkpt lat="41.6759" lon="-7.56236">
        <ele>444.8702</ele>
        <time>2021-07-06T10:26:32Z</time>
      </trkpt>
      <trkpt lat="41.67436" lon="-7.56229">
        <ele>435.4129</ele>
        <time>2021-07-06T10:26:43Z</time>
      </trkpt>
      <trkpt lat="41.67292" lon="-7.56293">
        <ele>425.5865</ele>
        <time>2021-07-06T10:26:54Z</time>
      </trkpt>
      <trkpt lat="41.67192" lon="-7.5644">
        <ele>419.0762</ele>
        <time>2021-07-06T10:27:05Z</time>
      </trkpt>
      <trkpt lat="41.67037" lon="-7.56488">
        <ele>409.1315</ele>
        <time>2021-07-06T10:27:16Z</time>
      </trkpt>
      <trkpt lat="41.66861" lon="-7.56487">
        <ele>398.1681</ele>
        <time>2021-07-06T10:27:27Z</time>
      </trkpt>
      <trkpt lat="41.66707" lon="-7.56518">
        <ele>387.5123</ele>
        <time>2021-07-06T10:27:38Z</time>
      </trkpt>
      <trkpt lat="41.66559" lon="-7.56597">
        <ele>377.8673</ele>
        <time>2021-07-06T10:27:49Z</time>
      </trkpt>
      <trkpt lat="41.66415" lon="-7.56677">
        <ele>368.9915</ele>
        <time>2021-07-06T10:28:00Z</time>
      </trkpt>
      <trkpt lat="41.66281" lon="-7.56751">
        <ele>359.5977</ele>
        <time>2021-07-06T10:28:11Z</time>
      </trkpt>
      <trkpt lat="41.66167" lon="-7.56865">
        <ele>349.3271</ele>
        <time>2021-07-06T10:28:22Z</time>
      </trkpt>
      <trkpt lat="41.66068" lon="-7.57007">
        <ele>347.2293</ele>
        <time>2021-07-06T10:28:33Z</time>
      </trkpt>
      <trkpt lat="41.65896" lon="-7.57246">
        <ele>363.4479</ele>
        <time>2021-07-06T10:28:44Z</time>
      </trkpt>
      <trkpt lat="41.65734" lon="-7.57471">
        <ele>380.0285</ele>
        <time>2021-07-06T10:28:55Z</time>
      </trkpt>
      <trkpt lat="41.65571" lon="-7.57699">
        <ele>386.042</ele>
        <time>2021-07-06T10:29:06Z</time>
      </trkpt>
      <trkpt lat="41.65392" lon="-7.57899">
        <ele>387.1156</ele>
        <time>2021-07-06T10:29:17Z</time>
      </trkpt>
      <trkpt lat="41.65165" lon="-7.57909">
        <ele>384.4092</ele>
        <time>2021-07-06T10:29:28Z</time>
      </trkpt>
      <trkpt lat="41.65016" lon="-7.57778">
        <ele>378.7062</ele>
        <time>2021-07-06T10:29:39Z</time>
      </trkpt>
      <trkpt lat="41.64888" lon="-7.57648">
        <ele>374.8782</ele>
        <time>2021-07-06T10:29:50Z</time>
      </trkpt>
      <trkpt lat="41.64757" lon="-7.57519">
        <ele>370.8552</ele>
        <time>2021-07-06T10:30:01Z</time>
      </trkpt>
      <trkpt lat="41.64599" lon="-7.57482">
        <ele>364.9754</ele>
        <time>2021-07-06T10:30:12Z</time>
      </trkpt>
      <trkpt lat="41.64466" lon="-7.57458">
        <ele>363.2876</ele>
        <time>2021-07-06T10:30:23Z</time>
      </trkpt>
      <trkpt lat="41.64352" lon="-7.57498">
        <ele>357.469</ele>
        <time>2021-07-06T10:30:34Z</time>
      </trkpt>
      <trkpt lat="41.64252" lon="-7.57511">
        <ele>356.5208</ele>
        <time>2021-07-06T10:30:45Z</time>
      </trkpt>
      <trkpt lat="41.64172" lon="-7.57484">
        <ele>353.6424</ele>
        <time>2021-07-06T10:30:56Z</time>
      </trkpt>
      <trkpt lat="41.64128" lon="-7.57445">
        <ele>353.0286</ele>
        <time>2021-07-06T10:31:07Z</time>
      </trkpt>
      <trkpt lat="41.6409" lon="-7.5741">
        <ele>354.8218</ele>
        <time>2021-07-06T10:31:18Z</time>
      </trkpt>
      <trkpt lat="41.64062" lon="-7.57383">
        <ele>360.3856</ele>
        <time>2021-07-06T10:31:29Z</time>
      </trkpt>
      <trkpt lat="41.64033" lon="-7.57357">
        <ele>358.3146</ele>
        <time>2021-07-06T10:31:40Z</time>
      </trkpt>
      <trkpt lat="41.6399" lon="-7.57319">
        <ele>357.2328</ele>
        <time>2021-07-06T10:31:51Z</time>
      </trkpt>
      <trkpt lat="41.63954" lon="-7.57239">
        <ele>351.7328</ele>
        <time>2021-07-06T10:32:02Z</time>
      </trkpt>
      <trkpt lat="41.63938" lon="-7.57104">
        <ele>347.0235</ele>
        <time>2021-07-06T10:32:13Z</time>
      </trkpt>
      <trkpt lat="41.63851" lon="-7.5699">
        <ele>340.2594</ele>
        <time>2021-07-06T10:32:24Z</time>
      </trkpt>
      <trkpt lat="41.63719" lon="-7.56907">
        <ele>340.3863</ele>
        <time>2021-07-06T10:32:35Z</time>
      </trkpt>
      <trkpt lat="41.63576" lon="-7.56979">
        <ele>347.3154</ele>
        <time>2021-07-06T10:32:46Z</time>
      </trkpt>
      <trkpt lat="41.63423" lon="-7.57022">
        <ele>352.3228</ele>
        <time>2021-07-06T10:32:57Z</time>
      </trkpt>
      <trkpt lat="41.63265" lon="-7.5703">
        <ele>354.2692</ele>
        <time>2021-07-06T10:33:08Z</time>
      </trkpt>
      <trkpt lat="41.63092" lon="-7.57003">
        <ele>359.4128</ele>
        <time>2021-07-06T10:33:19Z</time>
      </trkpt>
      <trkpt lat="41.62854" lon="-7.56913">
        <ele>362.1601</ele>
        <time>2021-07-06T10:33:30Z</time>
      </trkpt>
      <trkpt lat="41.62607" lon="-7.56863">
        <ele>369.8908</ele>
        <time>2021-07-06T10:33:41Z</time>
      </trkpt>
      <trkpt lat="41.62365" lon="-7.56959">
        <ele>376.0952</ele>
        <time>2021-07-06T10:33:52Z</time>
      </trkpt>
      <trkpt lat="41.6217" lon="-7.56918">
        <ele>381.1992</ele>
        <time>2021-07-06T10:34:03Z</time>
      </trkpt>
      <trkpt lat="41.62027" lon="-7.56834">
        <ele>387.0315</ele>
        <time>2021-07-06T10:34:14Z</time>
      </trkpt>
      <trkpt lat="41.61891" lon="-7.56751">
        <ele>387.6786</ele>
        <time>2021-07-06T10:34:25Z</time>
      </trkpt>
      <trkpt lat="41.61758" lon="-7.5672">
        <ele>395.4666</ele>
        <time>2021-07-06T10:34:36Z</time>
      </trkpt>
      <trkpt lat="41.61617" lon="-7.56816">
        <ele>402.1388</ele>
        <time>2021-07-06T10:34:47Z</time>
      </trkpt>
      <trkpt lat="41.61459" lon="-7.56854">
        <ele>407.5268</ele>
        <time>2021-07-06T10:34:58Z</time>
      </trkpt>
      <trkpt lat="41.61238" lon="-7.56894">
        <ele>418.5916</ele>
        <time>2021-07-06T10:35:09Z</time>
      </trkpt>
      <trkpt lat="41.61054" lon="-7.57035">
        <ele>430.4252</ele>
        <time>2021-07-06T10:35:20Z</time>
      </trkpt>
      <trkpt lat="41.608" lon="-7.57122">
        <ele>443.3788</ele>
        <time>2021-07-06T10:35:31Z</time>
      </trkpt>
      <trkpt lat="41.60582" lon="-7.57205">
        <ele>453.6058</ele>
        <time>2021-07-06T10:35:42Z</time>
      </trkpt>
      <trkpt lat="41.60368" lon="-7.57189">
        <ele>464.269</ele>
        <time>2021-07-06T10:35:53Z</time>
      </trkpt>
      <trkpt lat="41.60148" lon="-7.57215">
        <ele>478.4882</ele>
        <time>2021-07-06T10:36:04Z</time>
      </trkpt>
      <trkpt lat="41.5997" lon="-7.57365">
        <ele>488.1319</ele>
        <time>2021-07-06T10:36:15Z</time>
      </trkpt>
      <trkpt lat="41.59802" lon="-7.57481">
        <ele>498.6867</ele>
        <time>2021-07-06T10:36:26Z</time>
      </trkpt>
      <trkpt lat="41.5969" lon="-7.57653">
        <ele>508.8723</ele>
        <time>2021-07-06T10:36:37Z</time>
      </trkpt>
      <trkpt lat="41.59634" lon="-7.57866">
        <ele>521.2662</ele>
        <time>2021-07-06T10:36:48Z</time>
      </trkpt>
      <trkpt lat="41.59461" lon="-7.5796">
        <ele>530.8967</ele>
        <time>2021-07-06T10:36:59Z</time>
      </trkpt>
      <trkpt lat="41.59338" lon="-7.5818">
        <ele>539.0531</ele>
        <time>2021-07-06T10:37:10Z</time>
      </trkpt>
      <trkpt lat="41.59175" lon="-7.58348">
        <ele>551.7187</ele>
        <time>2021-07-06T10:37:21Z</time>
      </trkpt>
      <trkpt lat="41.59002" lon="-7.58453">
        <ele>559.0288</ele>
        <time>2021-07-06T10:37:32Z</time>
      </trkpt>
      <trkpt lat="41.58849" lon="-7.58623">
        <ele>569.7736</ele>
        <time>2021-07-06T10:37:43Z</time>
      </trkpt>
      <trkpt lat="41.58675" lon="-7.58723">
        <ele>580.9424</ele>
        <time>2021-07-06T10:37:54Z</time>
      </trkpt>
      <trkpt lat="41.58547" lon="-7.58888">
        <ele>591.7041</ele>
        <time>2021-07-06T10:38:05Z</time>
      </trkpt>
      <trkpt lat="41.58379" lon="-7.58961">
        <ele>592.5763</ele>
        <time>2021-07-06T10:38:16Z</time>
      </trkpt>
      <trkpt lat="41.58246" lon="-7.59083">
        <ele>586.0377</ele>
        <time>2021-07-06T10:38:27Z</time>
      </trkpt>
      <trkpt lat="41.58137" lon="-7.59205">
        <ele>581.2148</ele>
        <time>2021-07-06T10:38:38Z</time>
      </trkpt>
      <trkpt lat="41.58017" lon="-7.59288">
        <ele>573.0181</ele>
        <time>2021-07-06T10:38:49Z</time>
      </trkpt>
      <trkpt lat="41.57889" lon="-7.5937">
        <ele>568.6027</ele>
        <time>2021-07-06T10:39:00Z</time>
      </trkpt>
      <trkpt lat="41.57765" lon="-7.5945">
        <ele>566.5763</ele>
        <time>2021-07-06T10:39:11Z</time>
      </trkpt>
      <trkpt lat="41.57622" lon="-7.59487">
        <ele>565.1608</ele>
        <time>2021-07-06T10:39:22Z</time>
      </trkpt>
      <trkpt lat="41.5748" lon="-7.595">
        <ele>562.5386</ele>
        <time>2021-07-06T10:39:33Z</time>
      </trkpt>
      <trkpt lat="41.5733" lon="-7.59512">
        <ele>562.1368</ele>
        <time>2021-07-06T10:39:44Z</time>
      </trkpt>
      <trkpt lat="41.57206" lon="-7.59524">
        <ele>563.2719</ele>
        <time>2021-07-06T10:39:55Z</time>
      </trkpt>
      <trkpt lat="41.5709" lon="-7.59531">
        <ele>562.5363</ele>
        <time>2021-07-06T10:40:06Z</time>
      </trkpt>
      <trkpt lat="41.56932" lon="-7.59545">
        <ele>560.2485</ele>
        <time>2021-07-06T10:40:17Z</time>
      </trkpt>
      <trkpt lat="41.56755" lon="-7.59558">
        <ele>560.2825</ele>
        <time>2021-07-06T10:40:28Z</time>
      </trkpt>
      <trkpt lat="41.56561" lon="-7.59576">
        <ele>559.8138</ele>
        <time>2021-07-06T10:40:39Z</time>
      </trkpt>
      <trkpt lat="41.56343" lon="-7.59593">
        <ele>561.5752</ele>
        <time>2021-07-06T10:40:50Z</time>
      </trkpt>
      <trkpt lat="41.56138" lon="-7.59613">
        <ele>562.1736</ele>
        <time>2021-07-06T10:41:01Z</time>
      </trkpt>
      <trkpt lat="41.55935" lon="-7.59687">
        <ele>563.2806</ele>
        <time>2021-07-06T10:41:12Z</time>
      </trkpt>
      <trkpt lat="41.55665" lon="-7.59803">
        <ele>562.7162</ele>
        <time>2021-07-06T10:41:23Z</time>
      </trkpt>
      <trkpt lat="41.55447" lon="-7.59896">
        <ele>566.2753</ele>
        <time>2021-07-06T10:41:34Z</time>
      </trkpt>
      <trkpt lat="41.55236" lon="-7.59988">
        <ele>572.2959</ele>
        <time>2021-07-06T10:41:45Z</time>
      </trkpt>
      <trkpt lat="41.5506" lon="-7.60066">
        <ele>579.8161</ele>
        <time>2021-07-06T10:41:56Z</time>
      </trkpt>
      <trkpt lat="41.5495" lon="-7.60085">
        <ele>581.1136</ele>
        <time>2021-07-06T10:42:07Z</time>
      </trkpt>
      <trkpt lat="41.54899" lon="-7.60073">
        <ele>582.541</ele>
        <time>2021-07-06T10:42:18Z</time>
      </trkpt>
      <trkpt lat="41.54772" lon="-7.60045">
        <ele>581.3221</ele>
        <time>2021-07-06T10:42:29Z</time>
      </trkpt>
      <trkpt lat="41.54662" lon="-7.60039">
        <ele>580.5664</ele>
        <time>2021-07-06T10:42:40Z</time>
      </trkpt>
      <trkpt lat="41.54534" lon="-7.60027">
        <ele>581.4108</ele>
        <time>2021-07-06T10:42:51Z</time>
      </trkpt>
      <trkpt lat="41.54412" lon="-7.60158">
        <ele>579.6656</ele>
        <time>2021-07-06T10:43:02Z</time>
      </trkpt>
      <trkpt lat="41.54295" lon="-7.60279">
        <ele>583.7988</ele>
        <time>2021-07-06T10:43:13Z</time>
      </trkpt>
      <trkpt lat="41.54199" lon="-7.60352">
        <ele>589.2045</ele>
        <time>2021-07-06T10:43:24Z</time>
      </trkpt>
      <trkpt lat="41.54104" lon="-7.60416">
        <ele>593.5249</ele>
        <time>2021-07-06T10:43:35Z</time>
      </trkpt>
      <trkpt lat="41.53998" lon="-7.60504">
        <ele>592.4558</ele>
        <time>2021-07-06T10:43:46Z</time>
      </trkpt>
      <trkpt lat="41.53875" lon="-7.60617">
        <ele>596.432</ele>
        <time>2021-07-06T10:43:57Z</time>
      </trkpt>
      <trkpt lat="41.53733" lon="-7.60734">
        <ele>601.4422</ele>
        <time>2021-07-06T10:44:08Z</time>
      </trkpt>
      <trkpt lat="41.5357" lon="-7.60811">
        <ele>605.0228</ele>
        <time>2021-07-06T10:44:19Z</time>
      </trkpt>
      <trkpt lat="41.53422" lon="-7.60873">
        <ele>608.7643</ele>
        <time>2021-07-06T10:44:30Z</time>
      </trkpt>
      <trkpt lat="41.53343" lon="-7.6101">
        <ele>616.5361</ele>
        <time>2021-07-06T10:44:41Z</time>
      </trkpt>
      <trkpt lat="41.53214" lon="-7.61071">
        <ele>621.0594</ele>
        <time>2021-07-06T10:44:52Z</time>
      </trkpt>
      <trkpt lat="41.53078" lon="-7.61106">
        <ele>626.7451</ele>
        <time>2021-07-06T10:45:03Z</time>
      </trkpt>
      <trkpt lat="41.52988" lon="-7.61254">
        <ele>632.1447</ele>
        <time>2021-07-06T10:45:14Z</time>
      </trkpt>
      <trkpt lat="41.52855" lon="-7.61266">
        <ele>634.8328</ele>
        <time>2021-07-06T10:45:25Z</time>
      </trkpt>
      <trkpt lat="41.52708" lon="-7.6122">
        <ele>636.5577</ele>
        <time>2021-07-06T10:45:36Z</time>
      </trkpt>
      <trkpt lat="41.52595" lon="-7.61317">
        <ele>643.3774</ele>
        <time>2021-07-06T10:45:47Z</time>
      </trkpt>
      <trkpt lat="41.52483" lon="-7.61471">
        <ele>648.9987</ele>
        <time>2021-07-06T10:45:58Z</time>
      </trkpt>
      <trkpt lat="41.52359" lon="-7.61603">
        <ele>650.112</ele>
        <time>2021-07-06T10:46:09Z</time>
      </trkpt>
      <trkpt lat="41.5221" lon="-7.61636">
        <ele>656.455</ele>
        <time>2021-07-06T10:46:20Z</time>
      </trkpt>
      <trkpt lat="41.52084" lon="-7.61734">
        <ele>665.0317</ele>
        <time>2021-07-06T10:46:31Z</time>
      </trkpt>
      <trkpt lat="41.51965" lon="-7.61864">
        <ele>665.1698</ele>
        <time>2021-07-06T10:46:42Z</time>
      </trkpt>
      <trkpt lat="41.5183" lon="-7.6192">
        <ele>669.9648</ele>
        <time>2021-07-06T10:46:53Z</time>
      </trkpt>
      <trkpt lat="41.5171" lon="-7.62008">
        <ele>674.7001</ele>
        <time>2021-07-06T10:47:04Z</time>
      </trkpt>
      <trkpt lat="41.51609" lon="-7.6213">
        <ele>680.6044</ele>
        <time>2021-07-06T10:47:15Z</time>
      </trkpt>
      <trkpt lat="41.51506" lon="-7.6226">
        <ele>683.6241</ele>
        <time>2021-07-06T10:47:26Z</time>
      </trkpt>
      <trkpt lat="41.51432" lon="-7.62393">
        <ele>687.2347</ele>
        <time>2021-07-06T10:47:37Z</time>
      </trkpt>
      <trkpt lat="41.51317" lon="-7.62482">
        <ele>689.4932</ele>
        <time>2021-07-06T10:47:48Z</time>
      </trkpt>
      <trkpt lat="41.51198" lon="-7.62575">
        <ele>693.8162</ele>
        <time>2021-07-06T10:47:59Z</time>
      </trkpt>
      <trkpt lat="41.51108" lon="-7.62704">
        <ele>698.3584</ele>
        <time>2021-07-06T10:48:10Z</time>
      </trkpt>
      <trkpt lat="41.51002" lon="-7.62851">
        <ele>700.542</ele>
        <time>2021-07-06T10:48:21Z</time>
      </trkpt>
      <trkpt lat="41.50918" lon="-7.63012">
        <ele>705.3492</ele>
        <time>2021-07-06T10:48:32Z</time>
      </trkpt>
      <trkpt lat="41.50802" lon="-7.63126">
        <ele>709.1836</ele>
        <time>2021-07-06T10:48:43Z</time>
      </trkpt>
      <trkpt lat="41.50667" lon="-7.63221">
        <ele>710.8858</ele>
        <time>2021-07-06T10:48:54Z</time>
      </trkpt>
      <trkpt lat="41.50554" lon="-7.63377">
        <ele>715.1684</ele>
        <time>2021-07-06T10:49:05Z</time>
      </trkpt>
      <trkpt lat="41.50488" lon="-7.63539">
        <ele>717.8095</ele>
        <time>2021-07-06T10:49:16Z</time>
      </trkpt>
      <trkpt lat="41.50403" lon="-7.63672">
        <ele>720.3884</ele>
        <time>2021-07-06T10:49:27Z</time>
      </trkpt>
      <trkpt lat="41.50306" lon="-7.63781">
        <ele>724.2128</ele>
        <time>2021-07-06T10:49:38Z</time>
      </trkpt>
      <trkpt lat="41.50221" lon="-7.63886">
        <ele>726.6517</ele>
        <time>2021-07-06T10:49:49Z</time>
      </trkpt>
      <trkpt lat="41.50202" lon="-7.63962">
        <ele>728.4634</ele>
        <time>2021-07-06T10:50:00Z</time>
      </trkpt>
      <trkpt lat="41.50152" lon="-7.63979">
        <ele>731.7426</ele>
        <time>2021-07-06T10:50:11Z</time>
      </trkpt>
      <trkpt lat="41.5013" lon="-7.64079">
        <ele>735.7767</ele>
        <time>2021-07-06T10:50:22Z</time>
      </trkpt>
      <trkpt lat="41.50037" lon="-7.64096">
        <ele>738.5273</ele>
        <time>2021-07-06T10:50:33Z</time>
      </trkpt>
      <trkpt lat="41.49919" lon="-7.64086">
        <ele>744.1695</ele>
        <time>2021-07-06T10:50:44Z</time>
      </trkpt>
      <trkpt lat="41.49796" lon="-7.64162">
        <ele>739.1072</ele>
        <time>2021-07-06T10:50:55Z</time>
      </trkpt>
      <trkpt lat="41.49653" lon="-7.64249">
        <ele>734.7901</ele>
        <time>2021-07-06T10:51:06Z</time>
      </trkpt>
      <trkpt lat="41.49525" lon="-7.64355">
        <ele>723.8602</ele>
        <time>2021-07-06T10:51:17Z</time>
      </trkpt>
      <trkpt lat="41.49413" lon="-7.64452">
        <ele>720.0767</ele>
        <time>2021-07-06T10:51:28Z</time>
      </trkpt>
      <trkpt lat="41.49338" lon="-7.64486">
        <ele>720.1101</ele>
        <time>2021-07-06T10:51:39Z</time>
      </trkpt>
      <trkpt lat="41.49238" lon="-7.6457">
        <ele>720.4979</ele>
        <time>2021-07-06T10:51:50Z</time>
      </trkpt>
      <trkpt lat="41.4912" lon="-7.64615">
        <ele>721.1841</ele>
        <time>2021-07-06T10:52:01Z</time>
      </trkpt>
      <trkpt lat="41.49032" lon="-7.6477">
        <ele>713.2705</ele>
        <time>2021-07-06T10:52:12Z</time>
      </trkpt>
      <trkpt lat="41.49015" lon="-7.64895">
        <ele>711.3422</ele>
        <time>2021-07-06T10:52:23Z</time>
      </trkpt>
      <trkpt lat="41.48901" lon="-7.6495">
        <ele>712.3927</ele>
        <time>2021-07-06T10:52:34Z</time>
      </trkpt>
      <trkpt lat="41.48751" lon="-7.65048">
        <ele>712.5585</ele>
        <time>2021-07-06T10:52:45Z</time>
      </trkpt>
      <trkpt lat="41.48579" lon="-7.6516">
        <ele>706.8521</ele>
        <time>2021-07-06T10:52:56Z</time>
      </trkpt>
      <trkpt lat="41.48357" lon="-7.65312">
        <ele>699.0548</ele>
        <time>2021-07-06T10:53:07Z</time>
      </trkpt>
      <trkpt lat="41.48165" lon="-7.65443">
        <ele>699.7067</ele>
        <time>2021-07-06T10:53:18Z</time>
      </trkpt>
      <trkpt lat="41.47996" lon="-7.65559">
        <ele>701.4712</ele>
        <time>2021-07-06T10:53:29Z</time>
      </trkpt>
      <trkpt lat="41.47814" lon="-7.65695">
        <ele>695.2578</ele>
        <time>2021-07-06T10:53:40Z</time>
      </trkpt>
      <trkpt lat="41.47607" lon="-7.65849">
        <ele>687.5017</ele>
        <time>2021-07-06T10:53:51Z</time>
      </trkpt>
      <trkpt lat="41.47401" lon="-7.66005">
        <ele>686.7931</ele>
        <time>2021-07-06T10:54:02Z</time>
      </trkpt>
      <trkpt lat="41.47213" lon="-7.66146">
        <ele>687.7694</ele>
        <time>2021-07-06T10:54:13Z</time>
      </trkpt>
      <trkpt lat="41.47013" lon="-7.66299">
        <ele>686.5182</ele>
        <time>2021-07-06T10:54:24Z</time>
      </trkpt>
      <trkpt lat="41.46797" lon="-7.66459">
        <ele>680.8704</ele>
        <time>2021-07-06T10:54:35Z</time>
      </trkpt>
      <trkpt lat="41.46561" lon="-7.66536">
        <ele>681.73</ele>
        <time>2021-07-06T10:54:46Z</time>
      </trkpt>
      <trkpt lat="41.46307" lon="-7.66522">
        <ele>677.5438</ele>
        <time>2021-07-06T10:54:57Z</time>
      </trkpt>
      <trkpt lat="41.46054" lon="-7.6651">
        <ele>675.2399</ele>
        <time>2021-07-06T10:55:08Z</time>
      </trkpt>
      <trkpt lat="41.4581" lon="-7.66571">
        <ele>675.1725</ele>
        <time>2021-07-06T10:55:19Z</time>
      </trkpt>
      <trkpt lat="41.45573" lon="-7.66701">
        <ele>674.3186</ele>
        <time>2021-07-06T10:55:30Z</time>
      </trkpt>
      <trkpt lat="41.45333" lon="-7.66831">
        <ele>676.2247</ele>
        <time>2021-07-06T10:55:41Z</time>
      </trkpt>
      <trkpt lat="41.45132" lon="-7.6694">
        <ele>675.5888</ele>
        <time>2021-07-06T10:55:52Z</time>
      </trkpt>
      <trkpt lat="41.44999" lon="-7.67013">
        <ele>674.9677</ele>
        <time>2021-07-06T10:56:03Z</time>
      </trkpt>
      <trkpt lat="41.44821" lon="-7.67106">
        <ele>675.0874</ele>
        <time>2021-07-06T10:56:14Z</time>
      </trkpt>
      <trkpt lat="41.44589" lon="-7.67228">
        <ele>673.0087</ele>
        <time>2021-07-06T10:56:25Z</time>
      </trkpt>
      <trkpt lat="41.44326" lon="-7.67372">
        <ele>670.4168</ele>
        <time>2021-07-06T10:56:36Z</time>
      </trkpt>
      <trkpt lat="41.44087" lon="-7.67502">
        <ele>671.5029</ele>
        <time>2021-07-06T10:56:47Z</time>
      </trkpt>
      <trkpt lat="41.43852" lon="-7.67627">
        <ele>673.7975</ele>
        <time>2021-07-06T10:56:58Z</time>
      </trkpt>
      <trkpt lat="41.43651" lon="-7.67735">
        <ele>668.2906</ele>
        <time>2021-07-06T10:57:09Z</time>
      </trkpt>
      <trkpt lat="41.435" lon="-7.67817">
        <ele>667.1113</ele>
        <time>2021-07-06T10:57:20Z</time>
      </trkpt>
      <trkpt lat="41.43347" lon="-7.67899">
        <ele>668.0636</ele>
        <time>2021-07-06T10:57:31Z</time>
      </trkpt>
      <trkpt lat="41.43204" lon="-7.67978">
        <ele>673.0662</ele>
        <time>2021-07-06T10:57:42Z</time>
      </trkpt>
      <trkpt lat="41.43052" lon="-7.6806">
        <ele>675.2205</ele>
        <time>2021-07-06T10:57:53Z</time>
      </trkpt>
      <trkpt lat="41.4289" lon="-7.68147">
        <ele>674.0562</ele>
        <time>2021-07-06T10:58:04Z</time>
      </trkpt>
      <trkpt lat="41.42744" lon="-7.68266">
        <ele>674.8088</ele>
        <time>2021-07-06T10:58:15Z</time>
      </trkpt>
      <trkpt lat="41.42623" lon="-7.68398">
        <ele>673.6354</ele>
        <time>2021-07-06T10:58:26Z</time>
      </trkpt>
      <trkpt lat="41.42446" lon="-7.68525">
        <ele>673.1684</ele>
        <time>2021-07-06T10:58:37Z</time>
      </trkpt>
      <trkpt lat="41.4228" lon="-7.68561">
        <ele>679.5272</ele>
        <time>2021-07-06T10:58:48Z</time>
      </trkpt>
      <trkpt lat="41.4211" lon="-7.68551">
        <ele>677.0102</ele>
        <time>2021-07-06T10:58:59Z</time>
      </trkpt>
      <trkpt lat="41.41909" lon="-7.68505">
        <ele>682.7448</ele>
        <time>2021-07-06T10:59:10Z</time>
      </trkpt>
      <trkpt lat="41.41756" lon="-7.68614">
        <ele>691.1529</ele>
        <time>2021-07-06T10:59:21Z</time>
      </trkpt>
      <trkpt lat="41.41616" lon="-7.68714">
        <ele>693.8509</ele>
        <time>2021-07-06T10:59:32Z</time>
      </trkpt>
      <trkpt lat="41.41414" lon="-7.68655">
        <ele>704.8173</ele>
        <time>2021-07-06T10:59:43Z</time>
      </trkpt>
      <trkpt lat="41.41236" lon="-7.68743">
        <ele>717.2884</ele>
        <time>2021-07-06T10:59:54Z</time>
      </trkpt>
      <trkpt lat="41.41095" lon="-7.68834">
        <ele>724.267</ele>
        <time>2021-07-06T11:00:05Z</time>
      </trkpt>
      <trkpt lat="41.40964" lon="-7.68984">
        <ele>724.1963</ele>
        <time>2021-07-06T11:00:16Z</time>
      </trkpt>
      <trkpt lat="41.40806" lon="-7.69132">
        <ele>720.6698</ele>
        <time>2021-07-06T11:00:27Z</time>
      </trkpt>
      <trkpt lat="41.40645" lon="-7.69347">
        <ele>731.2995</ele>
        <time>2021-07-06T11:00:38Z</time>
      </trkpt>
      <trkpt lat="41.40469" lon="-7.69602">
        <ele>743.2565</ele>
        <time>2021-07-06T11:00:49Z</time>
      </trkpt>
      <trkpt lat="41.40248" lon="-7.69842">
        <ele>757.2265</ele>
        <time>2021-07-06T11:01:00Z</time>
      </trkpt>
      <trkpt lat="41.40034" lon="-7.69973">
        <ele>766.6231</ele>
        <time>2021-07-06T11:01:11Z</time>
      </trkpt>
      <trkpt lat="41.39825" lon="-7.70134">
        <ele>779.7616</ele>
        <time>2021-07-06T11:01:22Z</time>
      </trkpt>
      <trkpt lat="41.39563" lon="-7.70131">
        <ele>777.0359</ele>
        <time>2021-07-06T11:01:33Z</time>
      </trkpt>
      <trkpt lat="41.39346" lon="-7.70094">
        <ele>764.4565</ele>
        <time>2021-07-06T11:01:44Z</time>
      </trkpt>
      <trkpt lat="41.39184" lon="-7.70036">
        <ele>756.6133</ele>
        <time>2021-07-06T11:01:55Z</time>
      </trkpt>
      <trkpt lat="41.39106" lon="-7.70077">
        <ele>750.7201</ele>
        <time>2021-07-06T11:02:06Z</time>
      </trkpt>
      <trkpt lat="41.39098" lon="-7.70087">
        <ele>750.5899</ele>
        <time>2021-07-06T11:02:17Z</time>
      </trkpt>
      <trkpt lat="41.39102" lon="-7.70088">
        <ele>750.7943</ele>
        <time>2021-07-06T11:02:39Z</time>
      </trkpt>
      <trkpt lat="41.39105" lon="-7.70086">
        <ele>750.372</ele>
        <time>2021-07-06T11:02:57Z</time>
      </trkpt>
      <trkpt lat="41.39101" lon="-7.70086">
        <ele>753.9661</ele>
        <time>2021-07-06T11:03:17Z</time>
      </trkpt>
      <trkpt lat="41.39098" lon="-7.70088">
        <ele>753.5339</ele>
        <time>2021-07-06T11:03:29Z</time>
      </trkpt>
      <trkpt lat="41.39101" lon="-7.70086">
        <ele>752.7569</ele>
        <time>2021-07-06T11:04:27Z</time>
      </trkpt>
      <trkpt lat="41.391" lon="-7.70086">
        <ele>754.4697</ele>
        <time>2021-07-06T11:05:26Z</time>
      </trkpt>
      <trkpt lat="41.39099" lon="-7.70088">
        <ele>753.5037</ele>
        <time>2021-07-06T11:06:25Z</time>
      </trkpt>
      <trkpt lat="41.39098" lon="-7.70085">
        <ele>751.9952</ele>
        <time>2021-07-06T11:07:24Z</time>
      </trkpt>
      <trkpt lat="41.39099" lon="-7.70087">
        <ele>752.3203</ele>
        <time>2021-07-06T11:08:23Z</time>
      </trkpt>
      <trkpt lat="41.39096" lon="-7.70089">
        <ele>752.2809</ele>
        <time>2021-07-06T11:09:16Z</time>
      </trkpt>
      <trkpt lat="41.39086" lon="-7.70116">
        <ele>750.7729</ele>
        <time>2021-07-06T11:09:22Z</time>
      </trkpt>
      <trkpt lat="41.39028" lon="-7.70181">
        <ele>746.3786</ele>
        <time>2021-07-06T11:09:28Z</time>
      </trkpt>
      <trkpt lat="41.3895" lon="-7.70262">
        <ele>740.8778</ele>
        <time>2021-07-06T11:09:34Z</time>
      </trkpt>
      <trkpt lat="41.38867" lon="-7.70341">
        <ele>737.1239</ele>
        <time>2021-07-06T11:09:40Z</time>
      </trkpt>
      <trkpt lat="41.38783" lon="-7.70405">
        <ele>731.715</ele>
        <time>2021-07-06T11:09:46Z</time>
      </trkpt>
      <trkpt lat="41.38689" lon="-7.70464">
        <ele>726.5242</ele>
        <time>2021-07-06T11:09:52Z</time>
      </trkpt>
      <trkpt lat="41.3861" lon="-7.70552">
        <ele>720.5107</ele>
        <time>2021-07-06T11:09:58Z</time>
      </trkpt>
      <trkpt lat="41.38542" lon="-7.70657">
        <ele>716.8956</ele>
        <time>2021-07-06T11:10:04Z</time>
      </trkpt>
      <trkpt lat="41.38448" lon="-7.70729">
        <ele>709.9072</ele>
        <time>2021-07-06T11:10:10Z</time>
      </trkpt>
      <trkpt lat="41.38359" lon="-7.70797">
        <ele>703.5918</ele>
        <time>2021-07-06T11:10:16Z</time>
      </trkpt>
      <trkpt lat="41.38254" lon="-7.70935">
        <ele>693.2228</ele>
        <time>2021-07-06T11:10:27Z</time>
      </trkpt>
      <trkpt lat="41.38257" lon="-7.71172">
        <ele>682.9394</ele>
        <time>2021-07-06T11:10:38Z</time>
      </trkpt>
      <trkpt lat="41.38083" lon="-7.71283">
        <ele>674.6758</ele>
        <time>2021-07-06T11:10:49Z</time>
      </trkpt>
      <trkpt lat="41.37975" lon="-7.7138">
        <ele>671.208</ele>
        <time>2021-07-06T11:11:00Z</time>
      </trkpt>
      <trkpt lat="41.3798" lon="-7.71613">
        <ele>667.5556</ele>
        <time>2021-07-06T11:11:11Z</time>
      </trkpt>
      <trkpt lat="41.37854" lon="-7.71718">
        <ele>660.9359</ele>
        <time>2021-07-06T11:11:22Z</time>
      </trkpt>
      <trkpt lat="41.3767" lon="-7.71774">
        <ele>650.9718</ele>
        <time>2021-07-06T11:11:33Z</time>
      </trkpt>
      <trkpt lat="41.37553" lon="-7.7183">
        <ele>649.1338</ele>
        <time>2021-07-06T11:11:44Z</time>
      </trkpt>
      <trkpt lat="41.37444" lon="-7.71667">
        <ele>651.7602</ele>
        <time>2021-07-06T11:11:55Z</time>
      </trkpt>
      <trkpt lat="41.37272" lon="-7.71653">
        <ele>642.7595</ele>
        <time>2021-07-06T11:12:06Z</time>
      </trkpt>
      <trkpt lat="41.37124" lon="-7.71799">
        <ele>635.8851</ele>
        <time>2021-07-06T11:12:17Z</time>
      </trkpt>
      <trkpt lat="41.3702" lon="-7.71988">
        <ele>627.843</ele>
        <time>2021-07-06T11:12:28Z</time>
      </trkpt>
      <trkpt lat="41.36935" lon="-7.72158">
        <ele>621.9121</ele>
        <time>2021-07-06T11:12:39Z</time>
      </trkpt>
      <trkpt lat="41.36861" lon="-7.72261">
        <ele>614.2814</ele>
        <time>2021-07-06T11:12:50Z</time>
      </trkpt>
      <trkpt lat="41.36684" lon="-7.7244">
        <ele>601.7636</ele>
        <time>2021-07-06T11:13:01Z</time>
      </trkpt>
      <trkpt lat="41.36662" lon="-7.72667">
        <ele>593.4189</ele>
        <time>2021-07-06T11:13:12Z</time>
      </trkpt>
      <trkpt lat="41.36526" lon="-7.72588">
        <ele>588.8809</ele>
        <time>2021-07-06T11:13:23Z</time>
      </trkpt>
      <trkpt lat="41.36492" lon="-7.72388">
        <ele>583.5463</ele>
        <time>2021-07-06T11:13:34Z</time>
      </trkpt>
      <trkpt lat="41.36503" lon="-7.72127">
        <ele>580.1372</ele>
        <time>2021-07-06T11:13:45Z</time>
      </trkpt>
      <trkpt lat="41.36509" lon="-7.71913">
        <ele>581.784</ele>
        <time>2021-07-06T11:13:56Z</time>
      </trkpt>
      <trkpt lat="41.36313" lon="-7.71839">
        <ele>579.2485</ele>
        <time>2021-07-06T11:14:07Z</time>
      </trkpt>
      <trkpt lat="41.36167" lon="-7.71873">
        <ele>583.1626</ele>
        <time>2021-07-06T11:14:18Z</time>
      </trkpt>
      <trkpt lat="41.3603" lon="-7.71949">
        <ele>581.5668</ele>
        <time>2021-07-06T11:14:29Z</time>
      </trkpt>
      <trkpt lat="41.35876" lon="-7.71987">
        <ele>578.8822</ele>
        <time>2021-07-06T11:14:40Z</time>
      </trkpt>
      <trkpt lat="41.35715" lon="-7.7202">
        <ele>573.2266</ele>
        <time>2021-07-06T11:14:51Z</time>
      </trkpt>
      <trkpt lat="41.35587" lon="-7.72086">
        <ele>573.0521</ele>
        <time>2021-07-06T11:15:02Z</time>
      </trkpt>
      <trkpt lat="41.3548" lon="-7.72232">
        <ele>573.3781</ele>
        <time>2021-07-06T11:15:13Z</time>
      </trkpt>
      <trkpt lat="41.35391" lon="-7.72222">
        <ele>579.2804</ele>
        <time>2021-07-06T11:15:24Z</time>
      </trkpt>
      <trkpt lat="41.35265" lon="-7.72161">
        <ele>581.9823</ele>
        <time>2021-07-06T11:15:35Z</time>
      </trkpt>
      <trkpt lat="41.35054" lon="-7.72181">
        <ele>582.8009</ele>
        <time>2021-07-06T11:15:46Z</time>
      </trkpt>
      <trkpt lat="41.34874" lon="-7.72138">
        <ele>583.2487</ele>
        <time>2021-07-06T11:15:57Z</time>
      </trkpt>
      <trkpt lat="41.34722" lon="-7.72238">
        <ele>583.3619</ele>
        <time>2021-07-06T11:16:08Z</time>
      </trkpt>
      <trkpt lat="41.34563" lon="-7.72268">
        <ele>583.2142</ele>
        <time>2021-07-06T11:16:19Z</time>
      </trkpt>
      <trkpt lat="41.34389" lon="-7.72275">
        <ele>578.7933</ele>
        <time>2021-07-06T11:16:30Z</time>
      </trkpt>
      <trkpt lat="41.34219" lon="-7.7228">
        <ele>574.3931</ele>
        <time>2021-07-06T11:16:41Z</time>
      </trkpt>
      <trkpt lat="41.34096" lon="-7.72363">
        <ele>575.9268</ele>
        <time>2021-07-06T11:16:52Z</time>
      </trkpt>
      <trkpt lat="41.34007" lon="-7.72543">
        <ele>568.3968</ele>
        <time>2021-07-06T11:17:03Z</time>
      </trkpt>
      <trkpt lat="41.33901" lon="-7.72744">
        <ele>557.5041</ele>
        <time>2021-07-06T11:17:14Z</time>
      </trkpt>
      <trkpt lat="41.33717" lon="-7.72716">
        <ele>549.595</ele>
        <time>2021-07-06T11:17:25Z</time>
      </trkpt>
      <trkpt lat="41.33586" lon="-7.72774">
        <ele>541.896</ele>
        <time>2021-07-06T11:17:36Z</time>
      </trkpt>
      <trkpt lat="41.3344" lon="-7.72871">
        <ele>531.9497</ele>
        <time>2021-07-06T11:17:47Z</time>
      </trkpt>
      <trkpt lat="41.3328" lon="-7.72953">
        <ele>523.534</ele>
        <time>2021-07-06T11:17:58Z</time>
      </trkpt>
      <trkpt lat="41.33116" lon="-7.72987">
        <ele>517.1488</ele>
        <time>2021-07-06T11:18:09Z</time>
      </trkpt>
      <trkpt lat="41.33007" lon="-7.7291">
        <ele>513.5185</ele>
        <time>2021-07-06T11:18:20Z</time>
      </trkpt>
      <trkpt lat="41.32912" lon="-7.73039">
        <ele>508.6865</ele>
        <time>2021-07-06T11:18:31Z</time>
      </trkpt>
      <trkpt lat="41.3285" lon="-7.72851">
        <ele>502.8406</ele>
        <time>2021-07-06T11:18:42Z</time>
      </trkpt>
      <trkpt lat="41.32744" lon="-7.72768">
        <ele>499.2338</ele>
        <time>2021-07-06T11:18:53Z</time>
      </trkpt>
      <trkpt lat="41.32575" lon="-7.72816">
        <ele>494.3825</ele>
        <time>2021-07-06T11:19:04Z</time>
      </trkpt>
      <trkpt lat="41.32415" lon="-7.72935">
        <ele>494.6529</ele>
        <time>2021-07-06T11:19:15Z</time>
      </trkpt>
      <trkpt lat="41.3227" lon="-7.73041">
        <ele>492.6104</ele>
        <time>2021-07-06T11:19:26Z</time>
      </trkpt>
      <trkpt lat="41.32135" lon="-7.73169">
        <ele>490.3173</ele>
        <time>2021-07-06T11:19:37Z</time>
      </trkpt>
      <trkpt lat="41.3197" lon="-7.73217">
        <ele>487.0081</ele>
        <time>2021-07-06T11:19:48Z</time>
      </trkpt>
      <trkpt lat="41.31793" lon="-7.73263">
        <ele>481.0434</ele>
        <time>2021-07-06T11:19:59Z</time>
      </trkpt>
      <trkpt lat="41.31632" lon="-7.73263">
        <ele>471.5115</ele>
        <time>2021-07-06T11:20:10Z</time>
      </trkpt>
      <trkpt lat="41.31567" lon="-7.7328">
        <ele>468.553</ele>
        <time>2021-07-06T11:20:21Z</time>
      </trkpt>
      <trkpt lat="41.31466" lon="-7.73329">
        <ele>465.2901</ele>
        <time>2021-07-06T11:20:32Z</time>
      </trkpt>
      <trkpt lat="41.31387" lon="-7.73363">
        <ele>462.2955</ele>
        <time>2021-07-06T11:20:43Z</time>
      </trkpt>
      <trkpt lat="41.31381" lon="-7.73369">
        <ele>461.5214</ele>
        <time>2021-07-06T11:20:54Z</time>
      </trkpt>
      <trkpt lat="41.31377" lon="-7.73372">
        <ele>462.1642</ele>
        <time>2021-07-06T11:21:23Z</time>
      </trkpt>
      <trkpt lat="41.31327" lon="-7.73383">
        <ele>458.9469</ele>
        <time>2021-07-06T11:21:34Z</time>
      </trkpt>
      <trkpt lat="41.31366" lon="-7.73354">
        <ele>460.7973</ele>
        <time>2021-07-06T11:21:45Z</time>
      </trkpt>
      <trkpt lat="41.31456" lon="-7.73317">
        <ele>461.9016</ele>
        <time>2021-07-06T11:21:56Z</time>
      </trkpt>
      <trkpt lat="41.31507" lon="-7.73491">
        <ele>456.0354</ele>
        <time>2021-07-06T11:22:07Z</time>
      </trkpt>
      <trkpt lat="41.31475" lon="-7.73752">
        <ele>446.725</ele>
        <time>2021-07-06T11:22:18Z</time>
      </trkpt>
      <trkpt lat="41.3137" lon="-7.74053">
        <ele>439.6034</ele>
        <time>2021-07-06T11:22:29Z</time>
      </trkpt>
      <trkpt lat="41.31264" lon="-7.74329">
        <ele>433.9529</ele>
        <time>2021-07-06T11:22:40Z</time>
      </trkpt>
      <trkpt lat="41.31195" lon="-7.74625">
        <ele>421.2015</ele>
        <time>2021-07-06T11:22:51Z</time>
      </trkpt>
      <trkpt lat="41.31046" lon="-7.74858">
        <ele>407.812</ele>
        <time>2021-07-06T11:23:02Z</time>
      </trkpt>
      <trkpt lat="41.30854" lon="-7.75032">
        <ele>399.1614</ele>
        <time>2021-07-06T11:23:13Z</time>
      </trkpt>
      <trkpt lat="41.30637" lon="-7.75096">
        <ele>400.1807</ele>
        <time>2021-07-06T11:23:24Z</time>
      </trkpt>
      <trkpt lat="41.30422" lon="-7.75136">
        <ele>395.5535</ele>
        <time>2021-07-06T11:23:35Z</time>
      </trkpt>
      <trkpt lat="41.30212" lon="-7.75258">
        <ele>393.1489</ele>
        <time>2021-07-06T11:23:46Z</time>
      </trkpt>
      <trkpt lat="41.2999" lon="-7.7537">
        <ele>387.3064</ele>
        <time>2021-07-06T11:23:57Z</time>
      </trkpt>
      <trkpt lat="41.29785" lon="-7.75544">
        <ele>376.0009</ele>
        <time>2021-07-06T11:24:08Z</time>
      </trkpt>
      <trkpt lat="41.29559" lon="-7.75575">
        <ele>368.0659</ele>
        <time>2021-07-06T11:24:19Z</time>
      </trkpt>
      <trkpt lat="41.29335" lon="-7.75542">
        <ele>372.5366</ele>
        <time>2021-07-06T11:24:30Z</time>
      </trkpt>
      <trkpt lat="41.29119" lon="-7.75656">
        <ele>384.1432</ele>
        <time>2021-07-06T11:24:41Z</time>
      </trkpt>
      <trkpt lat="41.28892" lon="-7.75772">
        <ele>400.0877</ele>
        <time>2021-07-06T11:24:52Z</time>
      </trkpt>
      <trkpt lat="41.2866" lon="-7.75868">
        <ele>413.4454</ele>
        <time>2021-07-06T11:25:03Z</time>
      </trkpt>
      <trkpt lat="41.2845" lon="-7.75942">
        <ele>420.1681</ele>
        <time>2021-07-06T11:25:14Z</time>
      </trkpt>
      <trkpt lat="41.28333" lon="-7.76186">
        <ele>435.4049</ele>
        <time>2021-07-06T11:25:25Z</time>
      </trkpt>
      <trkpt lat="41.28283" lon="-7.76496">
        <ele>450.4025</ele>
        <time>2021-07-06T11:25:36Z</time>
      </trkpt>
      <trkpt lat="41.28086" lon="-7.76738">
        <ele>468.7031</ele>
        <time>2021-07-06T11:25:47Z</time>
      </trkpt>
      <trkpt lat="41.27904" lon="-7.76936">
        <ele>482.6049</ele>
        <time>2021-07-06T11:25:58Z</time>
      </trkpt>
      <trkpt lat="41.27764" lon="-7.77197">
        <ele>498.7228</ele>
        <time>2021-07-06T11:26:09Z</time>
      </trkpt>
      <trkpt lat="41.27632" lon="-7.77462">
        <ele>515.6576</ele>
        <time>2021-07-06T11:26:20Z</time>
      </trkpt>
      <trkpt lat="41.27594" lon="-7.77747">
        <ele>527.3222</ele>
        <time>2021-07-06T11:26:31Z</time>
      </trkpt>
      <trkpt lat="41.27548" lon="-7.78057">
        <ele>535.8151</ele>
        <time>2021-07-06T11:26:42Z</time>
      </trkpt>
      <trkpt lat="41.27535" lon="-7.78385">
        <ele>543.0949</ele>
        <time>2021-07-06T11:26:53Z</time>
      </trkpt>
      <trkpt lat="41.27451" lon="-7.78685">
        <ele>546.6835</ele>
        <time>2021-07-06T11:27:04Z</time>
      </trkpt>
      <trkpt lat="41.27322" lon="-7.78943">
        <ele>551.4224</ele>
        <time>2021-07-06T11:27:15Z</time>
      </trkpt>
      <trkpt lat="41.27385" lon="-7.79231">
        <ele>564.8163</ele>
        <time>2021-07-06T11:27:26Z</time>
      </trkpt>
      <trkpt lat="41.27613" lon="-7.79364">
        <ele>584.4678</ele>
        <time>2021-07-06T11:27:37Z</time>
      </trkpt>
      <trkpt lat="41.27775" lon="-7.7964">
        <ele>600.5328</ele>
        <time>2021-07-06T11:27:48Z</time>
      </trkpt>
      <trkpt lat="41.27999" lon="-7.79802">
        <ele>615.8393</ele>
        <time>2021-07-06T11:27:59Z</time>
      </trkpt>
      <trkpt lat="41.28164" lon="-7.80066">
        <ele>625.4556</ele>
        <time>2021-07-06T11:28:10Z</time>
      </trkpt>
      <trkpt lat="41.28311" lon="-7.80335">
        <ele>636.0819</ele>
        <time>2021-07-06T11:28:21Z</time>
      </trkpt>
      <trkpt lat="41.28456" lon="-7.80605">
        <ele>650.6488</ele>
        <time>2021-07-06T11:28:32Z</time>
      </trkpt>
      <trkpt lat="41.28549" lon="-7.80893">
        <ele>664.5263</ele>
        <time>2021-07-06T11:28:43Z</time>
      </trkpt>
      <trkpt lat="41.28527" lon="-7.81238">
        <ele>677.5095</ele>
        <time>2021-07-06T11:28:54Z</time>
      </trkpt>
      <trkpt lat="41.28463" lon="-7.81575">
        <ele>687.3721</ele>
        <time>2021-07-06T11:29:05Z</time>
      </trkpt>
      <trkpt lat="41.28476" lon="-7.81911">
        <ele>697.4822</ele>
        <time>2021-07-06T11:29:16Z</time>
      </trkpt>
      <trkpt lat="41.28389" lon="-7.82233">
        <ele>696.8839</ele>
        <time>2021-07-06T11:29:27Z</time>
      </trkpt>
      <trkpt lat="41.2841" lon="-7.82582">
        <ele>686.7035</ele>
        <time>2021-07-06T11:29:38Z</time>
      </trkpt>
      <trkpt lat="41.28497" lon="-7.8295">
        <ele>689.2109</ele>
        <time>2021-07-06T11:29:49Z</time>
      </trkpt>
      <trkpt lat="41.28409" lon="-7.83262">
        <ele>691.6654</ele>
        <time>2021-07-06T11:30:00Z</time>
      </trkpt>
      <trkpt lat="41.28336" lon="-7.83599">
        <ele>693.9341</ele>
        <time>2021-07-06T11:30:11Z</time>
      </trkpt>
      <trkpt lat="41.2827" lon="-7.83935">
        <ele>706.9821</ele>
        <time>2021-07-06T11:30:22Z</time>
      </trkpt>
      <trkpt lat="41.28122" lon="-7.84209">
        <ele>716.2449</ele>
        <time>2021-07-06T11:30:33Z</time>
      </trkpt>
      <trkpt lat="41.28029" lon="-7.84488">
        <ele>728.5283</ele>
        <time>2021-07-06T11:30:44Z</time>
      </trkpt>
      <trkpt lat="41.27981" lon="-7.84825">
        <ele>745.5386</ele>
        <time>2021-07-06T11:30:55Z</time>
      </trkpt>
      <trkpt lat="41.27948" lon="-7.85148">
        <ele>760.1021</ele>
        <time>2021-07-06T11:31:06Z</time>
      </trkpt>
      <trkpt lat="41.27892" lon="-7.85455">
        <ele>772.7276</ele>
        <time>2021-07-06T11:31:17Z</time>
      </trkpt>
      <trkpt lat="41.27807" lon="-7.85773">
        <ele>776.8248</ele>
        <time>2021-07-06T11:31:28Z</time>
      </trkpt>
      <trkpt lat="41.27856" lon="-7.86054">
        <ele>780.9287</ele>
        <time>2021-07-06T11:31:39Z</time>
      </trkpt>
      <trkpt lat="41.27915" lon="-7.86359">
        <ele>786.1037</ele>
        <time>2021-07-06T11:31:50Z</time>
      </trkpt>
      <trkpt lat="41.28038" lon="-7.86606">
        <ele>789.6982</ele>
        <time>2021-07-06T11:32:01Z</time>
      </trkpt>
      <trkpt lat="41.28111" lon="-7.86887">
        <ele>796.8142</ele>
        <time>2021-07-06T11:32:12Z</time>
      </trkpt>
      <trkpt lat="41.28048" lon="-7.87188">
        <ele>801.8734</ele>
        <time>2021-07-06T11:32:23Z</time>
      </trkpt>
      <trkpt lat="41.28118" lon="-7.87485">
        <ele>815.3882</ele>
        <time>2021-07-06T11:32:34Z</time>
      </trkpt>
      <trkpt lat="41.28128" lon="-7.87803">
        <ele>833.2159</ele>
        <time>2021-07-06T11:32:45Z</time>
      </trkpt>
      <trkpt lat="41.28202" lon="-7.88103">
        <ele>850.5257</ele>
        <time>2021-07-06T11:32:56Z</time>
      </trkpt>
      <trkpt lat="41.28253" lon="-7.88407">
        <ele>868.9575</ele>
        <time>2021-07-06T11:33:07Z</time>
      </trkpt>
      <trkpt lat="41.28056" lon="-7.88587">
        <ele>873.1341</ele>
        <time>2021-07-06T11:33:18Z</time>
      </trkpt>
      <trkpt lat="41.27844" lon="-7.88737">
        <ele>884.7634</ele>
        <time>2021-07-06T11:33:29Z</time>
      </trkpt>
      <trkpt lat="41.27743" lon="-7.89033">
        <ele>896.1798</ele>
        <time>2021-07-06T11:33:40Z</time>
      </trkpt>
      <trkpt lat="41.27721" lon="-7.89342">
        <ele>912.0561</ele>
        <time>2021-07-06T11:33:51Z</time>
      </trkpt>
      <trkpt lat="41.27705" lon="-7.89659">
        <ele>925.9249</ele>
        <time>2021-07-06T11:34:02Z</time>
      </trkpt>
      <trkpt lat="41.27638" lon="-7.89967">
        <ele>938.014</ele>
        <time>2021-07-06T11:34:13Z</time>
      </trkpt>
      <trkpt lat="41.27664" lon="-7.9032">
        <ele>955.583</ele>
        <time>2021-07-06T11:34:24Z</time>
      </trkpt>
      <trkpt lat="41.2763" lon="-7.90651">
        <ele>970.4213</ele>
        <time>2021-07-06T11:34:35Z</time>
      </trkpt>
      <trkpt lat="41.27741" lon="-7.90933">
        <ele>986.2675</ele>
        <time>2021-07-06T11:34:46Z</time>
      </trkpt>
      <trkpt lat="41.27812" lon="-7.91231">
        <ele>1000.942</ele>
        <time>2021-07-06T11:34:57Z</time>
      </trkpt>
      <trkpt lat="41.27989" lon="-7.91432">
        <ele>1012.21</ele>
        <time>2021-07-06T11:35:08Z</time>
      </trkpt>
      <trkpt lat="41.2812" lon="-7.91683">
        <ele>1009.318</ele>
        <time>2021-07-06T11:35:20Z</time>
      </trkpt>
      <trkpt lat="41.28191" lon="-7.91994">
        <ele>990.4673</ele>
        <time>2021-07-06T11:35:31Z</time>
      </trkpt>
      <trkpt lat="41.28114" lon="-7.92293">
        <ele>968.9201</ele>
        <time>2021-07-06T11:35:42Z</time>
      </trkpt>
      <trkpt lat="41.27917" lon="-7.92499">
        <ele>951.3648</ele>
        <time>2021-07-06T11:35:53Z</time>
      </trkpt>
      <trkpt lat="41.27784" lon="-7.92786">
        <ele>931.8392</ele>
        <time>2021-07-06T11:36:04Z</time>
      </trkpt>
      <trkpt lat="41.2765" lon="-7.93046">
        <ele>911.3601</ele>
        <time>2021-07-06T11:36:15Z</time>
      </trkpt>
      <trkpt lat="41.27629" lon="-7.93358">
        <ele>890.847</ele>
        <time>2021-07-06T11:36:26Z</time>
      </trkpt>
      <trkpt lat="41.27523" lon="-7.93629">
        <ele>872.5789</ele>
        <time>2021-07-06T11:36:37Z</time>
      </trkpt>
      <trkpt lat="41.27324" lon="-7.93799">
        <ele>855.5736</ele>
        <time>2021-07-06T11:36:48Z</time>
      </trkpt>
      <trkpt lat="41.27173" lon="-7.94054">
        <ele>834.8456</ele>
        <time>2021-07-06T11:36:59Z</time>
      </trkpt>
      <trkpt lat="41.26992" lon="-7.94271">
        <ele>817.4269</ele>
        <time>2021-07-06T11:37:10Z</time>
      </trkpt>
      <trkpt lat="41.26784" lon="-7.94413">
        <ele>800.153</ele>
        <time>2021-07-06T11:37:21Z</time>
      </trkpt>
      <trkpt lat="41.26612" lon="-7.9453">
        <ele>785.1899</ele>
        <time>2021-07-06T11:37:32Z</time>
      </trkpt>
      <trkpt lat="41.26499" lon="-7.94658">
        <ele>771.7733</ele>
        <time>2021-07-06T11:37:43Z</time>
      </trkpt>
      <trkpt lat="41.26363" lon="-7.94725">
        <ele>762.7861</ele>
        <time>2021-07-06T11:37:54Z</time>
      </trkpt>
      <trkpt lat="41.26218" lon="-7.94738">
        <ele>750.2025</ele>
        <time>2021-07-06T11:38:05Z</time>
      </trkpt>
      <trkpt lat="41.26088" lon="-7.94852">
        <ele>737.815</ele>
        <time>2021-07-06T11:38:16Z</time>
      </trkpt>
      <trkpt lat="41.25939" lon="-7.95117">
        <ele>718.3146</ele>
        <time>2021-07-06T11:38:27Z</time>
      </trkpt>
      <trkpt lat="41.25775" lon="-7.95372">
        <ele>699.0938</ele>
        <time>2021-07-06T11:38:38Z</time>
      </trkpt>
      <trkpt lat="41.25599" lon="-7.95622">
        <ele>678.749</ele>
        <time>2021-07-06T11:38:49Z</time>
      </trkpt>
      <trkpt lat="41.25536" lon="-7.95916">
        <ele>659.2385</ele>
        <time>2021-07-06T11:39:00Z</time>
      </trkpt>
      <trkpt lat="41.25586" lon="-7.96233">
        <ele>640.7577</ele>
        <time>2021-07-06T11:39:11Z</time>
      </trkpt>
      <trkpt lat="41.25588" lon="-7.96572">
        <ele>620.7923</ele>
        <time>2021-07-06T11:39:22Z</time>
      </trkpt>
      <trkpt lat="41.25656" lon="-7.96864">
        <ele>600.6986</ele>
        <time>2021-07-06T11:39:33Z</time>
      </trkpt>
      <trkpt lat="41.2588" lon="-7.96968">
        <ele>582.462</ele>
        <time>2021-07-06T11:39:44Z</time>
      </trkpt>
      <trkpt lat="41.26118" lon="-7.97017">
        <ele>563.7764</ele>
        <time>2021-07-06T11:39:55Z</time>
      </trkpt>
      <trkpt lat="41.26346" lon="-7.96953">
        <ele>544.7597</ele>
        <time>2021-07-06T11:40:06Z</time>
      </trkpt>
      <trkpt lat="41.26514" lon="-7.97059">
        <ele>527.6599</ele>
        <time>2021-07-06T11:40:17Z</time>
      </trkpt>
      <trkpt lat="41.26405" lon="-7.97311">
        <ele>507.9068</ele>
        <time>2021-07-06T11:40:28Z</time>
      </trkpt>
      <trkpt lat="41.26278" lon="-7.97603">
        <ele>487.6551</ele>
        <time>2021-07-06T11:40:39Z</time>
      </trkpt>
      <trkpt lat="41.26331" lon="-7.97891">
        <ele>467.396</ele>
        <time>2021-07-06T11:40:50Z</time>
      </trkpt>
      <trkpt lat="41.26575" lon="-7.97928">
        <ele>455.6643</ele>
        <time>2021-07-06T11:41:01Z</time>
      </trkpt>
      <trkpt lat="41.26789" lon="-7.97979">
        <ele>439.1689</ele>
        <time>2021-07-06T11:41:12Z</time>
      </trkpt>
      <trkpt lat="41.26769" lon="-7.9827">
        <ele>417.5863</ele>
        <time>2021-07-06T11:41:23Z</time>
      </trkpt>
      <trkpt lat="41.26901" lon="-7.98523">
        <ele>397.5157</ele>
        <time>2021-07-06T11:41:34Z</time>
      </trkpt>
      <trkpt lat="41.27048" lon="-7.98775">
        <ele>379.1759</ele>
        <time>2021-07-06T11:41:45Z</time>
      </trkpt>
      <trkpt lat="41.27124" lon="-7.99096">
        <ele>361.3702</ele>
        <time>2021-07-06T11:41:56Z</time>
      </trkpt>
      <trkpt lat="41.27332" lon="-7.9921">
        <ele>341.8385</ele>
        <time>2021-07-06T11:42:07Z</time>
      </trkpt>
      <trkpt lat="41.27572" lon="-7.99206">
        <ele>316.8901</ele>
        <time>2021-07-06T11:42:18Z</time>
      </trkpt>
      <trkpt lat="41.2781" lon="-7.99188">
        <ele>295.0284</ele>
        <time>2021-07-06T11:42:29Z</time>
      </trkpt>
      <trkpt lat="41.28031" lon="-7.99219">
        <ele>276.7702</ele>
        <time>2021-07-06T11:42:40Z</time>
      </trkpt>
      <trkpt lat="41.2814" lon="-7.99476">
        <ele>264.9833</ele>
        <time>2021-07-06T11:42:51Z</time>
      </trkpt>
      <trkpt lat="41.28022" lon="-7.99728">
        <ele>267.9654</ele>
        <time>2021-07-06T11:43:02Z</time>
      </trkpt>
      <trkpt lat="41.27816" lon="-7.99898">
        <ele>283.7489</ele>
        <time>2021-07-06T11:43:13Z</time>
      </trkpt>
      <trkpt lat="41.27621" lon="-8.00075">
        <ele>301.0328</ele>
        <time>2021-07-06T11:43:24Z</time>
      </trkpt>
      <trkpt lat="41.27508" lon="-8.00353">
        <ele>312.3843</ele>
        <time>2021-07-06T11:43:35Z</time>
      </trkpt>
      <trkpt lat="41.27529" lon="-8.00666">
        <ele>303.5334</ele>
        <time>2021-07-06T11:43:46Z</time>
      </trkpt>
      <trkpt lat="41.27381" lon="-8.00906">
        <ele>281.9797</ele>
        <time>2021-07-06T11:43:57Z</time>
      </trkpt>
      <trkpt lat="41.27232" lon="-8.01151">
        <ele>281.2808</ele>
        <time>2021-07-06T11:44:08Z</time>
      </trkpt>
      <trkpt lat="41.27132" lon="-8.01456">
        <ele>274.1192</ele>
        <time>2021-07-06T11:44:19Z</time>
      </trkpt>
      <trkpt lat="41.26916" lon="-8.01637">
        <ele>275.9617</ele>
        <time>2021-07-06T11:44:30Z</time>
      </trkpt>
      <trkpt lat="41.26678" lon="-8.01851">
        <ele>274.5721</ele>
        <time>2021-07-06T11:44:41Z</time>
      </trkpt>
      <trkpt lat="41.2656" lon="-8.02142">
        <ele>256.4205</ele>
        <time>2021-07-06T11:44:52Z</time>
      </trkpt>
      <trkpt lat="41.26528" lon="-8.02476">
        <ele>237.48</ele>
        <time>2021-07-06T11:45:03Z</time>
      </trkpt>
      <trkpt lat="41.26444" lon="-8.02779">
        <ele>217.6593</ele>
        <time>2021-07-06T11:45:14Z</time>
      </trkpt>
      <trkpt lat="41.26257" lon="-8.03006">
        <ele>211.5061</ele>
        <time>2021-07-06T11:45:25Z</time>
      </trkpt>
      <trkpt lat="41.26052" lon="-8.03174">
        <ele>222.4719</ele>
        <time>2021-07-06T11:45:36Z</time>
      </trkpt>
      <trkpt lat="41.25808" lon="-8.03336">
        <ele>227.4962</ele>
        <time>2021-07-06T11:45:47Z</time>
      </trkpt>
      <trkpt lat="41.25604" lon="-8.03615">
        <ele>225.7468</ele>
        <time>2021-07-06T11:45:58Z</time>
      </trkpt>
      <trkpt lat="41.25523" lon="-8.03943">
        <ele>219.2833</ele>
        <time>2021-07-06T11:46:09Z</time>
      </trkpt>
      <trkpt lat="41.25562" lon="-8.04316">
        <ele>201.0064</ele>
        <time>2021-07-06T11:46:20Z</time>
      </trkpt>
      <trkpt lat="41.25574" lon="-8.04671">
        <ele>196.6493</ele>
        <time>2021-07-06T11:46:31Z</time>
      </trkpt>
      <trkpt lat="41.25663" lon="-8.04706">
        <ele>194.9803</ele>
        <time>2021-07-06T11:46:42Z</time>
      </trkpt>
      <trkpt lat="41.25496" lon="-8.04635">
        <ele>180.6606</ele>
        <time>2021-07-06T11:46:53Z</time>
      </trkpt>
      <trkpt lat="41.25395" lon="-8.04593">
        <ele>168.6211</ele>
        <time>2021-07-06T11:47:04Z</time>
      </trkpt>
      <trkpt lat="41.25458" lon="-8.04728">
        <ele>170.9811</ele>
        <time>2021-07-06T11:47:15Z</time>
      </trkpt>
      <trkpt lat="41.25451" lon="-8.04946">
        <ele>176.5326</ele>
        <time>2021-07-06T11:47:26Z</time>
      </trkpt>
      <trkpt lat="41.25515" lon="-8.05118">
        <ele>176.5903</ele>
        <time>2021-07-06T11:47:37Z</time>
      </trkpt>
      <trkpt lat="41.25565" lon="-8.05245">
        <ele>178.8906</ele>
        <time>2021-07-06T11:47:48Z</time>
      </trkpt>
      <trkpt lat="41.25679" lon="-8.05334">
        <ele>181.4971</ele>
        <time>2021-07-06T11:47:59Z</time>
      </trkpt>
      <trkpt lat="41.2573" lon="-8.0546">
        <ele>182.7881</ele>
        <time>2021-07-06T11:48:10Z</time>
      </trkpt>
      <trkpt lat="41.25762" lon="-8.05638">
        <ele>190.2371</ele>
        <time>2021-07-06T11:48:21Z</time>
      </trkpt>
      <trkpt lat="41.2583" lon="-8.05794">
        <ele>195.0429</ele>
        <time>2021-07-06T11:48:32Z</time>
      </trkpt>
      <trkpt lat="41.25957" lon="-8.05933">
        <ele>180.6667</ele>
        <time>2021-07-06T11:48:43Z</time>
      </trkpt>
      <trkpt lat="41.26094" lon="-8.05953">
        <ele>170.8749</ele>
        <time>2021-07-06T11:48:54Z</time>
      </trkpt>
      <trkpt lat="41.26214" lon="-8.06038">
        <ele>158.8151</ele>
        <time>2021-07-06T11:49:05Z</time>
      </trkpt>
      <trkpt lat="41.26274" lon="-8.06199">
        <ele>146.3035</ele>
        <time>2021-07-06T11:49:16Z</time>
      </trkpt>
      <trkpt lat="41.26367" lon="-8.06347">
        <ele>129.2228</ele>
        <time>2021-07-06T11:49:27Z</time>
      </trkpt>
      <trkpt lat="41.26386" lon="-8.06485">
        <ele>119.3365</ele>
        <time>2021-07-06T11:49:38Z</time>
      </trkpt>
      <trkpt lat="41.26456" lon="-8.06653">
        <ele>105.6856</ele>
        <time>2021-07-06T11:49:49Z</time>
      </trkpt>
      <trkpt lat="41.26488" lon="-8.06775">
        <ele>96.68677</ele>
        <time>2021-07-06T11:50:00Z</time>
      </trkpt>
      <trkpt lat="41.26539" lon="-8.06924">
        <ele>90.61289</ele>
        <time>2021-07-06T11:50:11Z</time>
      </trkpt>
      <trkpt lat="41.26592" lon="-8.07031">
        <ele>89.06721</ele>
        <time>2021-07-06T11:50:22Z</time>
      </trkpt>
      <trkpt lat="41.26642" lon="-8.07114">
        <ele>92.31399</ele>
        <time>2021-07-06T11:50:33Z</time>
      </trkpt>
      <trkpt lat="41.2669" lon="-8.07194">
        <ele>87.82469</ele>
        <time>2021-07-06T11:50:44Z</time>
      </trkpt>
      <trkpt lat="41.26744" lon="-8.07245">
        <ele>85.69588</ele>
        <time>2021-07-06T11:50:55Z</time>
      </trkpt>
      <trkpt lat="41.26811" lon="-8.07354">
        <ele>81.12721</ele>
        <time>2021-07-06T11:51:06Z</time>
      </trkpt>
      <trkpt lat="41.26926" lon="-8.07467">
        <ele>80.93174</ele>
        <time>2021-07-06T11:51:17Z</time>
      </trkpt>
      <trkpt lat="41.27062" lon="-8.0756">
        <ele>78.65335</ele>
        <time>2021-07-06T11:51:28Z</time>
      </trkpt>
      <trkpt lat="41.27221" lon="-8.07508">
        <ele>87.59541</ele>
        <time>2021-07-06T11:51:39Z</time>
      </trkpt>
      <trkpt lat="41.27344" lon="-8.07541">
        <ele>98.56285</ele>
        <time>2021-07-06T11:51:50Z</time>
      </trkpt>
      <trkpt lat="41.27243" lon="-8.07695">
        <ele>106.1089</ele>
        <time>2021-07-06T11:52:01Z</time>
      </trkpt>
      <trkpt lat="41.27121" lon="-8.07811">
        <ele>114.8239</ele>
        <time>2021-07-06T11:52:12Z</time>
      </trkpt>
      <trkpt lat="41.27093" lon="-8.07948">
        <ele>116.2978</ele>
        <time>2021-07-06T11:52:23Z</time>
      </trkpt>
      <trkpt lat="41.27178" lon="-8.08063">
        <ele>115.6912</ele>
        <time>2021-07-06T11:52:34Z</time>
      </trkpt>
      <trkpt lat="41.27269" lon="-8.0812">
        <ele>110.0094</ele>
        <time>2021-07-06T11:52:45Z</time>
      </trkpt>
      <trkpt lat="41.27329" lon="-8.08165">
        <ele>107.4987</ele>
        <time>2021-07-06T11:52:56Z</time>
      </trkpt>
      <trkpt lat="41.27404" lon="-8.08232">
        <ele>102.8814</ele>
        <time>2021-07-06T11:53:07Z</time>
      </trkpt>
      <trkpt lat="41.27328" lon="-8.08301">
        <ele>92.42608</ele>
        <time>2021-07-06T11:53:18Z</time>
      </trkpt>
      <trkpt lat="41.27274" lon="-8.08304">
        <ele>96.19802</ele>
        <time>2021-07-06T11:53:29Z</time>
      </trkpt>
      <trkpt lat="41.27241" lon="-8.08295">
        <ele>97.65026</ele>
        <time>2021-07-06T11:53:40Z</time>
      </trkpt>
      <trkpt lat="41.27179" lon="-8.0832">
        <ele>97.21696</ele>
        <time>2021-07-06T11:53:51Z</time>
      </trkpt>
      <trkpt lat="41.27124" lon="-8.08449">
        <ele>102.926</ele>
        <time>2021-07-06T11:54:02Z</time>
      </trkpt>
      <trkpt lat="41.27151" lon="-8.08542">
        <ele>100.0869</ele>
        <time>2021-07-06T11:54:13Z</time>
      </trkpt>
      <trkpt lat="41.27214" lon="-8.08651">
        <ele>94.51439</ele>
        <time>2021-07-06T11:54:24Z</time>
      </trkpt>
      <trkpt lat="41.27248" lon="-8.08758">
        <ele>93.49075</ele>
        <time>2021-07-06T11:54:35Z</time>
      </trkpt>
      <trkpt lat="41.27275" lon="-8.08856">
        <ele>93.11873</ele>
        <time>2021-07-06T11:54:46Z</time>
      </trkpt>
      <trkpt lat="41.27297" lon="-8.08909">
        <ele>95.74267</ele>
        <time>2021-07-06T11:54:57Z</time>
      </trkpt>
      <trkpt lat="41.27319" lon="-8.09005">
        <ele>98.35331</ele>
        <time>2021-07-06T11:55:08Z</time>
      </trkpt>
      <trkpt lat="41.27464" lon="-8.09029">
        <ele>110.5055</ele>
        <time>2021-07-06T11:55:19Z</time>
      </trkpt>
      <trkpt lat="41.27513" lon="-8.09035">
        <ele>118.5752</ele>
        <time>2021-07-06T11:55:30Z</time>
      </trkpt>
      <trkpt lat="41.27396" lon="-8.09102">
        <ele>128.1911</ele>
        <time>2021-07-06T11:55:41Z</time>
      </trkpt>
      <trkpt lat="41.27353" lon="-8.09232">
        <ele>134.1703</ele>
        <time>2021-07-06T11:55:52Z</time>
      </trkpt>
      <trkpt lat="41.27234" lon="-8.09363">
        <ele>144.1197</ele>
        <time>2021-07-06T11:56:03Z</time>
      </trkpt>
      <trkpt lat="41.27138" lon="-8.09496">
        <ele>155.8177</ele>
        <time>2021-07-06T11:56:14Z</time>
      </trkpt>
      <trkpt lat="41.27256" lon="-8.0948">
        <ele>165.918</ele>
        <time>2021-07-06T11:56:25Z</time>
      </trkpt>
      <trkpt lat="41.27347" lon="-8.09452">
        <ele>172.991</ele>
        <time>2021-07-06T11:56:36Z</time>
      </trkpt>
      <trkpt lat="41.27337" lon="-8.09475">
        <ele>172.9412</ele>
        <time>2021-07-06T11:56:47Z</time>
      </trkpt>
      <trkpt lat="41.27334" lon="-8.09483">
        <ele>174.9851</ele>
        <time>2021-07-06T11:57:06Z</time>
      </trkpt>
      <trkpt lat="41.27309" lon="-8.09615">
        <ele>172.8555</ele>
        <time>2021-07-06T11:57:17Z</time>
      </trkpt>
      <trkpt lat="41.27382" lon="-8.09601">
        <ele>179.4883</ele>
        <time>2021-07-06T11:57:28Z</time>
      </trkpt>
      <trkpt lat="41.27533" lon="-8.09723">
        <ele>194.5076</ele>
        <time>2021-07-06T11:57:39Z</time>
      </trkpt>
      <trkpt lat="41.27633" lon="-8.09739">
        <ele>196.9067</ele>
        <time>2021-07-06T11:57:50Z</time>
      </trkpt>
      <trkpt lat="41.27581" lon="-8.09881">
        <ele>201.12</ele>
        <time>2021-07-06T11:58:01Z</time>
      </trkpt>
      <trkpt lat="41.27483" lon="-8.09826">
        <ele>208.5728</ele>
        <time>2021-07-06T11:58:12Z</time>
      </trkpt>
      <trkpt lat="41.27429" lon="-8.10007">
        <ele>217.7128</ele>
        <time>2021-07-06T11:58:23Z</time>
      </trkpt>
      <trkpt lat="41.27511" lon="-8.10171">
        <ele>226.5266</ele>
        <time>2021-07-06T11:58:34Z</time>
      </trkpt>
      <trkpt lat="41.2748" lon="-8.1033">
        <ele>232.2582</ele>
        <time>2021-07-06T11:58:45Z</time>
      </trkpt>
      <trkpt lat="41.27591" lon="-8.10521">
        <ele>239.394</ele>
        <time>2021-07-06T11:58:56Z</time>
      </trkpt>
      <trkpt lat="41.27768" lon="-8.10615">
        <ele>252.279</ele>
        <time>2021-07-06T11:59:07Z</time>
      </trkpt>
      <trkpt lat="41.2788" lon="-8.10733">
        <ele>258.6733</ele>
        <time>2021-07-06T11:59:18Z</time>
      </trkpt>
      <trkpt lat="41.27882" lon="-8.10891">
        <ele>263.7396</ele>
        <time>2021-07-06T11:59:29Z</time>
      </trkpt>
      <trkpt lat="41.27944" lon="-8.11013">
        <ele>265.2994</ele>
        <time>2021-07-06T11:59:40Z</time>
      </trkpt>
      <trkpt lat="41.28009" lon="-8.11138">
        <ele>268.9268</ele>
        <time>2021-07-06T11:59:51Z</time>
      </trkpt>
      <trkpt lat="41.2798" lon="-8.11251">
        <ele>272.95</ele>
        <time>2021-07-06T12:00:02Z</time>
      </trkpt>
      <trkpt lat="41.27941" lon="-8.11348">
        <ele>278.1073</ele>
        <time>2021-07-06T12:00:13Z</time>
      </trkpt>
      <trkpt lat="41.27909" lon="-8.11458">
        <ele>284.8387</ele>
        <time>2021-07-06T12:00:24Z</time>
      </trkpt>
      <trkpt lat="41.27841" lon="-8.1154">
        <ele>288.4855</ele>
        <time>2021-07-06T12:00:35Z</time>
      </trkpt>
      <trkpt lat="41.27823" lon="-8.11668">
        <ele>293.3039</ele>
        <time>2021-07-06T12:00:46Z</time>
      </trkpt>
      <trkpt lat="41.2775" lon="-8.11762">
        <ele>296.1792</ele>
        <time>2021-07-06T12:00:57Z</time>
      </trkpt>
      <trkpt lat="41.27745" lon="-8.11862">
        <ele>291.8558</ele>
        <time>2021-07-06T12:01:08Z</time>
      </trkpt>
      <trkpt lat="41.27831" lon="-8.11975">
        <ele>285.6557</ele>
        <time>2021-07-06T12:01:19Z</time>
      </trkpt>
      <trkpt lat="41.27922" lon="-8.11968">
        <ele>278.8885</ele>
        <time>2021-07-06T12:01:30Z</time>
      </trkpt>
      <trkpt lat="41.28034" lon="-8.12161">
        <ele>280.4382</ele>
        <time>2021-07-06T12:01:41Z</time>
      </trkpt>
      <trkpt lat="41.28127" lon="-8.12259">
        <ele>287.4139</ele>
        <time>2021-07-06T12:01:52Z</time>
      </trkpt>
      <trkpt lat="41.28086" lon="-8.12382">
        <ele>291.0139</ele>
        <time>2021-07-06T12:02:03Z</time>
      </trkpt>
      <trkpt lat="41.28014" lon="-8.12504">
        <ele>293.3645</ele>
        <time>2021-07-06T12:02:14Z</time>
      </trkpt>
      <trkpt lat="41.27999" lon="-8.1263">
        <ele>302.5148</ele>
        <time>2021-07-06T12:02:25Z</time>
      </trkpt>
      <trkpt lat="41.28013" lon="-8.12769">
        <ele>302.475</ele>
        <time>2021-07-06T12:02:36Z</time>
      </trkpt>
      <trkpt lat="41.28064" lon="-8.12869">
        <ele>303.8333</ele>
        <time>2021-07-06T12:02:47Z</time>
      </trkpt>
      <trkpt lat="41.28021" lon="-8.12944">
        <ele>308.8406</ele>
        <time>2021-07-06T12:02:58Z</time>
      </trkpt>
      <trkpt lat="41.27911" lon="-8.12953">
        <ele>314.3626</ele>
        <time>2021-07-06T12:03:09Z</time>
      </trkpt>
      <trkpt lat="41.27825" lon="-8.13043">
        <ele>319.1959</ele>
        <time>2021-07-06T12:03:20Z</time>
      </trkpt>
      <trkpt lat="41.2776" lon="-8.12943">
        <ele>322.6196</ele>
        <time>2021-07-06T12:03:31Z</time>
      </trkpt>
      <trkpt lat="41.27666" lon="-8.12905">
        <ele>328.2632</ele>
        <time>2021-07-06T12:03:42Z</time>
      </trkpt>
      <trkpt lat="41.27545" lon="-8.12922">
        <ele>331.5231</ele>
        <time>2021-07-06T12:03:53Z</time>
      </trkpt>
      <trkpt lat="41.2746" lon="-8.12992">
        <ele>338.9745</ele>
        <time>2021-07-06T12:04:04Z</time>
      </trkpt>
      <trkpt lat="41.27366" lon="-8.13014">
        <ele>346.4636</ele>
        <time>2021-07-06T12:04:15Z</time>
      </trkpt>
      <trkpt lat="41.27297" lon="-8.13079">
        <ele>349.0455</ele>
        <time>2021-07-06T12:04:26Z</time>
      </trkpt>
      <trkpt lat="41.27183" lon="-8.13132">
        <ele>351.9387</ele>
        <time>2021-07-06T12:04:37Z</time>
      </trkpt>
      <trkpt lat="41.27106" lon="-8.1323">
        <ele>361.9976</ele>
        <time>2021-07-06T12:04:48Z</time>
      </trkpt>
      <trkpt lat="41.27067" lon="-8.13385">
        <ele>368.8952</ele>
        <time>2021-07-06T12:04:59Z</time>
      </trkpt>
      <trkpt lat="41.27012" lon="-8.13537">
        <ele>371.432</ele>
        <time>2021-07-06T12:05:10Z</time>
      </trkpt>
      <trkpt lat="41.26922" lon="-8.13638">
        <ele>379.9139</ele>
        <time>2021-07-06T12:05:21Z</time>
      </trkpt>
      <trkpt lat="41.26872" lon="-8.13771">
        <ele>382.1546</ele>
        <time>2021-07-06T12:05:32Z</time>
      </trkpt>
      <trkpt lat="41.26806" lon="-8.13891">
        <ele>391.0253</ele>
        <time>2021-07-06T12:05:43Z</time>
      </trkpt>
      <trkpt lat="41.26808" lon="-8.14013">
        <ele>398.679</ele>
        <time>2021-07-06T12:05:54Z</time>
      </trkpt>
      <trkpt lat="41.26744" lon="-8.14127">
        <ele>403.201</ele>
        <time>2021-07-06T12:06:05Z</time>
      </trkpt>
      <trkpt lat="41.26738" lon="-8.1423">
        <ele>401.1412</ele>
        <time>2021-07-06T12:06:16Z</time>
      </trkpt>
      <trkpt lat="41.26832" lon="-8.14344">
        <ele>393.1778</ele>
        <time>2021-07-06T12:06:27Z</time>
      </trkpt>
      <trkpt lat="41.2688" lon="-8.14467">
        <ele>383.9275</ele>
        <time>2021-07-06T12:06:38Z</time>
      </trkpt>
      <trkpt lat="41.26776" lon="-8.14564">
        <ele>380.7882</ele>
        <time>2021-07-06T12:06:49Z</time>
      </trkpt>
      <trkpt lat="41.26766" lon="-8.14727">
        <ele>376.8419</ele>
        <time>2021-07-06T12:07:00Z</time>
      </trkpt>
      <trkpt lat="41.26886" lon="-8.14862">
        <ele>366.3744</ele>
        <time>2021-07-06T12:07:11Z</time>
      </trkpt>
      <trkpt lat="41.26908" lon="-8.15025">
        <ele>354.8022</ele>
        <time>2021-07-06T12:07:22Z</time>
      </trkpt>
      <trkpt lat="41.26766" lon="-8.15244">
        <ele>335.2758</ele>
        <time>2021-07-06T12:07:33Z</time>
      </trkpt>
      <trkpt lat="41.26764" lon="-8.15433">
        <ele>328.8819</ele>
        <time>2021-07-06T12:07:44Z</time>
      </trkpt>
      <trkpt lat="41.26611" lon="-8.15652">
        <ele>313.8006</ele>
        <time>2021-07-06T12:07:55Z</time>
      </trkpt>
      <trkpt lat="41.26505" lon="-8.15786">
        <ele>305.0282</ele>
        <time>2021-07-06T12:08:06Z</time>
      </trkpt>
      <trkpt lat="41.26473" lon="-8.16018">
        <ele>301.1073</ele>
        <time>2021-07-06T12:08:17Z</time>
      </trkpt>
      <trkpt lat="41.26332" lon="-8.16151">
        <ele>286.356</ele>
        <time>2021-07-06T12:08:28Z</time>
      </trkpt>
      <trkpt lat="41.26218" lon="-8.16369">
        <ele>280.6364</ele>
        <time>2021-07-06T12:08:39Z</time>
      </trkpt>
      <trkpt lat="41.26082" lon="-8.16582">
        <ele>270.7989</ele>
        <time>2021-07-06T12:08:50Z</time>
      </trkpt>
      <trkpt lat="41.25949" lon="-8.16656">
        <ele>260.7027</ele>
        <time>2021-07-06T12:09:01Z</time>
      </trkpt>
      <trkpt lat="41.25983" lon="-8.16887">
        <ele>253.3122</ele>
        <time>2021-07-06T12:09:12Z</time>
      </trkpt>
      <trkpt lat="41.26027" lon="-8.17106">
        <ele>238.9641</ele>
        <time>2021-07-06T12:09:23Z</time>
      </trkpt>
      <trkpt lat="41.25891" lon="-8.1737">
        <ele>217.7716</ele>
        <time>2021-07-06T12:09:34Z</time>
      </trkpt>
      <trkpt lat="41.25743" lon="-8.1742">
        <ele>207.3589</ele>
        <time>2021-07-06T12:09:45Z</time>
      </trkpt>
      <trkpt lat="41.25636" lon="-8.17488">
        <ele>203.6368</ele>
        <time>2021-07-06T12:09:57Z</time>
      </trkpt>
      <trkpt lat="41.25558" lon="-8.17597">
        <ele>196.5004</ele>
        <time>2021-07-06T12:10:08Z</time>
      </trkpt>
      <trkpt lat="41.25464" lon="-8.17718">
        <ele>189.1721</ele>
        <time>2021-07-06T12:10:19Z</time>
      </trkpt>
      <trkpt lat="41.25365" lon="-8.17819">
        <ele>183.6353</ele>
        <time>2021-07-06T12:10:30Z</time>
      </trkpt>
      <trkpt lat="41.25272" lon="-8.17914">
        <ele>173.6075</ele>
        <time>2021-07-06T12:10:41Z</time>
      </trkpt>
      <trkpt lat="41.2519" lon="-8.17959">
        <ele>166.3697</ele>
        <time>2021-07-06T12:10:52Z</time>
      </trkpt>
      <trkpt lat="41.25129" lon="-8.18029">
        <ele>161.7339</ele>
        <time>2021-07-06T12:11:03Z</time>
      </trkpt>
      <trkpt lat="41.25172" lon="-8.18111">
        <ele>157.115</ele>
        <time>2021-07-06T12:11:14Z</time>
      </trkpt>
      <trkpt lat="41.2515" lon="-8.18312">
        <ele>156.4059</ele>
        <time>2021-07-06T12:11:25Z</time>
      </trkpt>
      <trkpt lat="41.25152" lon="-8.18494">
        <ele>168.3612</ele>
        <time>2021-07-06T12:11:36Z</time>
      </trkpt>
      <trkpt lat="41.25146" lon="-8.18642">
        <ele>179.0067</ele>
        <time>2021-07-06T12:11:47Z</time>
      </trkpt>
      <trkpt lat="41.25043" lon="-8.18658">
        <ele>176.3812</ele>
        <time>2021-07-06T12:11:58Z</time>
      </trkpt>
      <trkpt lat="41.24939" lon="-8.18643">
        <ele>170.1531</ele>
        <time>2021-07-06T12:12:09Z</time>
      </trkpt>
      <trkpt lat="41.24859" lon="-8.18835">
        <ele>172.9242</ele>
        <time>2021-07-06T12:12:20Z</time>
      </trkpt>
      <trkpt lat="41.24903" lon="-8.18925">
        <ele>181.5574</ele>
        <time>2021-07-06T12:12:31Z</time>
      </trkpt>
      <trkpt lat="41.24968" lon="-8.19008">
        <ele>196.8036</ele>
        <time>2021-07-06T12:12:42Z</time>
      </trkpt>
      <trkpt lat="41.24924" lon="-8.19169">
        <ele>207.0905</ele>
        <time>2021-07-06T12:12:53Z</time>
      </trkpt>
      <trkpt lat="41.24889" lon="-8.19287">
        <ele>219.5952</ele>
        <time>2021-07-06T12:13:04Z</time>
      </trkpt>
      <trkpt lat="41.24867" lon="-8.19441">
        <ele>223.4331</ele>
        <time>2021-07-06T12:13:15Z</time>
      </trkpt>
      <trkpt lat="41.24845" lon="-8.19625">
        <ele>232.6819</ele>
        <time>2021-07-06T12:13:26Z</time>
      </trkpt>
      <trkpt lat="41.24837" lon="-8.19801">
        <ele>248.2258</ele>
        <time>2021-07-06T12:13:37Z</time>
      </trkpt>
      <trkpt lat="41.24864" lon="-8.19981">
        <ele>255.5744</ele>
        <time>2021-07-06T12:13:48Z</time>
      </trkpt>
      <trkpt lat="41.24844" lon="-8.20138">
        <ele>270.977</ele>
        <time>2021-07-06T12:13:59Z</time>
      </trkpt>
      <trkpt lat="41.24821" lon="-8.20284">
        <ele>286.5632</ele>
        <time>2021-07-06T12:14:10Z</time>
      </trkpt>
      <trkpt lat="41.24745" lon="-8.20416">
        <ele>300.8943</ele>
        <time>2021-07-06T12:14:21Z</time>
      </trkpt>
      <trkpt lat="41.24672" lon="-8.20524">
        <ele>308.4036</ele>
        <time>2021-07-06T12:14:32Z</time>
      </trkpt>
      <trkpt lat="41.2466" lon="-8.20644">
        <ele>313.4903</ele>
        <time>2021-07-06T12:14:43Z</time>
      </trkpt>
      <trkpt lat="41.24617" lon="-8.20809">
        <ele>315.1474</ele>
        <time>2021-07-06T12:14:54Z</time>
      </trkpt>
      <trkpt lat="41.24561" lon="-8.21012">
        <ele>314.912</ele>
        <time>2021-07-06T12:15:05Z</time>
      </trkpt>
      <trkpt lat="41.24586" lon="-8.21247">
        <ele>314.9278</ele>
        <time>2021-07-06T12:15:16Z</time>
      </trkpt>
      <trkpt lat="41.24676" lon="-8.21435">
        <ele>324.3814</ele>
        <time>2021-07-06T12:15:27Z</time>
      </trkpt>
      <trkpt lat="41.24775" lon="-8.21528">
        <ele>333.6037</ele>
        <time>2021-07-06T12:15:38Z</time>
      </trkpt>
      <trkpt lat="41.24778" lon="-8.21569">
        <ele>336.2862</ele>
        <time>2021-07-06T12:15:49Z</time>
      </trkpt>
      <trkpt lat="41.24758" lon="-8.2159">
        <ele>340.6957</ele>
        <time>2021-07-06T12:16:00Z</time>
      </trkpt>
      <trkpt lat="41.24615" lon="-8.21592">
        <ele>341.2586</ele>
        <time>2021-07-06T12:16:11Z</time>
      </trkpt>
      <trkpt lat="41.24459" lon="-8.21506">
        <ele>347.0335</ele>
        <time>2021-07-06T12:16:22Z</time>
      </trkpt>
      <trkpt lat="41.24308" lon="-8.21474">
        <ele>355.1545</ele>
        <time>2021-07-06T12:16:33Z</time>
      </trkpt>
      <trkpt lat="41.24184" lon="-8.21606">
        <ele>363.735</ele>
        <time>2021-07-06T12:16:44Z</time>
      </trkpt>
      <trkpt lat="41.24116" lon="-8.21802">
        <ele>372.0442</ele>
        <time>2021-07-06T12:16:55Z</time>
      </trkpt>
      <trkpt lat="41.23964" lon="-8.21902">
        <ele>381.144</ele>
        <time>2021-07-06T12:17:06Z</time>
      </trkpt>
      <trkpt lat="41.23835" lon="-8.21994">
        <ele>386.1247</ele>
        <time>2021-07-06T12:17:17Z</time>
      </trkpt>
      <trkpt lat="41.23769" lon="-8.2219">
        <ele>387.8728</ele>
        <time>2021-07-06T12:17:28Z</time>
      </trkpt>
      <trkpt lat="41.23624" lon="-8.22357">
        <ele>388.9473</ele>
        <time>2021-07-06T12:17:39Z</time>
      </trkpt>
      <trkpt lat="41.23482" lon="-8.22515">
        <ele>392.4421</ele>
        <time>2021-07-06T12:17:50Z</time>
      </trkpt>
      <trkpt lat="41.23356" lon="-8.22654">
        <ele>386.68</ele>
        <time>2021-07-06T12:18:01Z</time>
      </trkpt>
      <trkpt lat="41.23269" lon="-8.22819">
        <ele>376.0559</ele>
        <time>2021-07-06T12:18:12Z</time>
      </trkpt>
      <trkpt lat="41.23186" lon="-8.22905">
        <ele>373.1871</ele>
        <time>2021-07-06T12:18:24Z</time>
      </trkpt>
      <trkpt lat="41.23089" lon="-8.2295">
        <ele>371.9854</ele>
        <time>2021-07-06T12:18:35Z</time>
      </trkpt>
      <trkpt lat="41.22954" lon="-8.23034">
        <ele>371.8725</ele>
        <time>2021-07-06T12:18:46Z</time>
      </trkpt>
      <trkpt lat="41.22854" lon="-8.23149">
        <ele>372.5534</ele>
        <time>2021-07-06T12:18:57Z</time>
      </trkpt>
      <trkpt lat="41.22756" lon="-8.23261">
        <ele>368.8877</ele>
        <time>2021-07-06T12:19:08Z</time>
      </trkpt>
      <trkpt lat="41.22664" lon="-8.23384">
        <ele>369.4643</ele>
        <time>2021-07-06T12:19:19Z</time>
      </trkpt>
      <trkpt lat="41.22575" lon="-8.23503">
        <ele>370.2546</ele>
        <time>2021-07-06T12:19:30Z</time>
      </trkpt>
      <trkpt lat="41.22482" lon="-8.23634">
        <ele>369.6876</ele>
        <time>2021-07-06T12:19:41Z</time>
      </trkpt>
      <trkpt lat="41.22378" lon="-8.23779">
        <ele>365.9036</ele>
        <time>2021-07-06T12:19:52Z</time>
      </trkpt>
      <trkpt lat="41.22274" lon="-8.23918">
        <ele>366.9678</ele>
        <time>2021-07-06T12:20:03Z</time>
      </trkpt>
      <trkpt lat="41.22177" lon="-8.24077">
        <ele>365.5516</ele>
        <time>2021-07-06T12:20:14Z</time>
      </trkpt>
      <trkpt lat="41.22138" lon="-8.24191">
        <ele>363.5305</ele>
        <time>2021-07-06T12:20:25Z</time>
      </trkpt>
      <trkpt lat="41.22114" lon="-8.24263">
        <ele>366.3634</ele>
        <time>2021-07-06T12:20:36Z</time>
      </trkpt>
      <trkpt lat="41.2211" lon="-8.2427">
        <ele>368.3557</ele>
        <time>2021-07-06T12:20:48Z</time>
      </trkpt>
      <trkpt lat="41.22072" lon="-8.24479">
        <ele>368.3249</ele>
        <time>2021-07-06T12:20:59Z</time>
      </trkpt>
      <trkpt lat="41.22069" lon="-8.24707">
        <ele>363.1186</ele>
        <time>2021-07-06T12:21:10Z</time>
      </trkpt>
      <trkpt lat="41.22069" lon="-8.24951">
        <ele>358.0768</ele>
        <time>2021-07-06T12:21:21Z</time>
      </trkpt>
      <trkpt lat="41.22015" lon="-8.25171">
        <ele>362.2508</ele>
        <time>2021-07-06T12:21:32Z</time>
      </trkpt>
      <trkpt lat="41.21999" lon="-8.25374">
        <ele>358.8582</ele>
        <time>2021-07-06T12:21:43Z</time>
      </trkpt>
      <trkpt lat="41.22065" lon="-8.25565">
        <ele>358.095</ele>
        <time>2021-07-06T12:21:54Z</time>
      </trkpt>
      <trkpt lat="41.22092" lon="-8.25765">
        <ele>358.9934</ele>
        <time>2021-07-06T12:22:05Z</time>
      </trkpt>
      <trkpt lat="41.22005" lon="-8.25902">
        <ele>369.1813</ele>
        <time>2021-07-06T12:22:16Z</time>
      </trkpt>
      <trkpt lat="41.21887" lon="-8.2603">
        <ele>365.3595</ele>
        <time>2021-07-06T12:22:27Z</time>
      </trkpt>
      <trkpt lat="41.21824" lon="-8.26094">
        <ele>368.1149</ele>
        <time>2021-07-06T12:22:38Z</time>
      </trkpt>
      <trkpt lat="41.21747" lon="-8.26177">
        <ele>372.6074</ele>
        <time>2021-07-06T12:22:49Z</time>
      </trkpt>
      <trkpt lat="41.21671" lon="-8.26292">
        <ele>375.4722</ele>
        <time>2021-07-06T12:23:00Z</time>
      </trkpt>
      <trkpt lat="41.21658" lon="-8.26484">
        <ele>372.4214</ele>
        <time>2021-07-06T12:23:11Z</time>
      </trkpt>
      <trkpt lat="41.21598" lon="-8.26655">
        <ele>368.7316</ele>
        <time>2021-07-06T12:23:22Z</time>
      </trkpt>
      <trkpt lat="41.21505" lon="-8.26773">
        <ele>360.3301</ele>
        <time>2021-07-06T12:23:33Z</time>
      </trkpt>
      <trkpt lat="41.2142" lon="-8.26913">
        <ele>353.8634</ele>
        <time>2021-07-06T12:23:44Z</time>
      </trkpt>
      <trkpt lat="41.21323" lon="-8.26982">
        <ele>347.8056</ele>
        <time>2021-07-06T12:23:55Z</time>
      </trkpt>
      <trkpt lat="41.21274" lon="-8.27084">
        <ele>345.2914</ele>
        <time>2021-07-06T12:24:06Z</time>
      </trkpt>
      <trkpt lat="41.21227" lon="-8.27209">
        <ele>345.1875</ele>
        <time>2021-07-06T12:24:17Z</time>
      </trkpt>
      <trkpt lat="41.21175" lon="-8.27364">
        <ele>343.5331</ele>
        <time>2021-07-06T12:24:28Z</time>
      </trkpt>
      <trkpt lat="41.21082" lon="-8.27431">
        <ele>342.1777</ele>
        <time>2021-07-06T12:24:39Z</time>
      </trkpt>
      <trkpt lat="41.2099" lon="-8.27509">
        <ele>333.5883</ele>
        <time>2021-07-06T12:24:50Z</time>
      </trkpt>
      <trkpt lat="41.20967" lon="-8.27663">
        <ele>330.1129</ele>
        <time>2021-07-06T12:25:01Z</time>
      </trkpt>
      <trkpt lat="41.20894" lon="-8.27773">
        <ele>327.6102</ele>
        <time>2021-07-06T12:25:12Z</time>
      </trkpt>
      <trkpt lat="41.20825" lon="-8.27855">
        <ele>323.8664</ele>
        <time>2021-07-06T12:25:23Z</time>
      </trkpt>
      <trkpt lat="41.2076" lon="-8.27948">
        <ele>315.3564</ele>
        <time>2021-07-06T12:25:34Z</time>
      </trkpt>
      <trkpt lat="41.20731" lon="-8.28016">
        <ele>316.4392</ele>
        <time>2021-07-06T12:25:45Z</time>
      </trkpt>
      <trkpt lat="41.20735" lon="-8.28118">
        <ele>305.0332</ele>
        <time>2021-07-06T12:25:56Z</time>
      </trkpt>
      <trkpt lat="41.20738" lon="-8.28196">
        <ele>296.4586</ele>
        <time>2021-07-06T12:26:07Z</time>
      </trkpt>
      <trkpt lat="41.20744" lon="-8.28246">
        <ele>296.8239</ele>
        <time>2021-07-06T12:26:18Z</time>
      </trkpt>
      <trkpt lat="41.20717" lon="-8.28303">
        <ele>299.8266</ele>
        <time>2021-07-06T12:26:29Z</time>
      </trkpt>
      <trkpt lat="41.20682" lon="-8.28367">
        <ele>307.0858</ele>
        <time>2021-07-06T12:26:40Z</time>
      </trkpt>
      <trkpt lat="41.20711" lon="-8.28406">
        <ele>303.4619</ele>
        <time>2021-07-06T12:26:52Z</time>
      </trkpt>
      <trkpt lat="41.20779" lon="-8.28445">
        <ele>292.8051</ele>
        <time>2021-07-06T12:27:03Z</time>
      </trkpt>
      <trkpt lat="41.20845" lon="-8.28487">
        <ele>282.5086</ele>
        <time>2021-07-06T12:27:14Z</time>
      </trkpt>
      <trkpt lat="41.20876" lon="-8.28547">
        <ele>271.2175</ele>
        <time>2021-07-06T12:27:25Z</time>
      </trkpt>
      <trkpt lat="41.20883" lon="-8.28566">
        <ele>266.0932</ele>
        <time>2021-07-06T12:27:36Z</time>
      </trkpt>
      <trkpt lat="41.209" lon="-8.28636">
        <ele>250.6437</ele>
        <time>2021-07-06T12:27:47Z</time>
      </trkpt>
      <trkpt lat="41.20903" lon="-8.2864">
        <ele>252.7523</ele>
        <time>2021-07-06T12:27:59Z</time>
      </trkpt>
      <trkpt lat="41.20903" lon="-8.28647">
        <ele>258.636</ele>
        <time>2021-07-06T12:28:20Z</time>
      </trkpt>
      <trkpt lat="41.20847" lon="-8.28788">
        <ele>245.6415</ele>
        <time>2021-07-06T12:28:31Z</time>
      </trkpt>
      <trkpt lat="41.20761" lon="-8.28973">
        <ele>229.2582</ele>
        <time>2021-07-06T12:28:42Z</time>
      </trkpt>
      <trkpt lat="41.20822" lon="-8.2915">
        <ele>217.3827</ele>
        <time>2021-07-06T12:28:53Z</time>
      </trkpt>
      <trkpt lat="41.20941" lon="-8.29392">
        <ele>212.9871</ele>
        <time>2021-07-06T12:29:04Z</time>
      </trkpt>
      <trkpt lat="41.21012" lon="-8.29573">
        <ele>210.2673</ele>
        <time>2021-07-06T12:29:16Z</time>
      </trkpt>
      <trkpt lat="41.20957" lon="-8.2976">
        <ele>205.4142</ele>
        <time>2021-07-06T12:29:27Z</time>
      </trkpt>
      <trkpt lat="41.20889" lon="-8.29964">
        <ele>208.421</ele>
        <time>2021-07-06T12:29:38Z</time>
      </trkpt>
      <trkpt lat="41.20809" lon="-8.30152">
        <ele>208.1933</ele>
        <time>2021-07-06T12:29:49Z</time>
      </trkpt>
      <trkpt lat="41.20752" lon="-8.30377">
        <ele>198.8389</ele>
        <time>2021-07-06T12:30:00Z</time>
      </trkpt>
      <trkpt lat="41.20672" lon="-8.30575">
        <ele>191.7602</ele>
        <time>2021-07-06T12:30:11Z</time>
      </trkpt>
      <trkpt lat="41.2059" lon="-8.30752">
        <ele>193.1062</ele>
        <time>2021-07-06T12:30:22Z</time>
      </trkpt>
      <trkpt lat="41.20585" lon="-8.30948">
        <ele>188.4743</ele>
        <time>2021-07-06T12:30:33Z</time>
      </trkpt>
      <trkpt lat="41.20672" lon="-8.3113">
        <ele>179.8533</ele>
        <time>2021-07-06T12:30:44Z</time>
      </trkpt>
      <trkpt lat="41.20677" lon="-8.31325">
        <ele>174.0426</ele>
        <time>2021-07-06T12:30:55Z</time>
      </trkpt>
      <trkpt lat="41.20612" lon="-8.31484">
        <ele>171.6362</ele>
        <time>2021-07-06T12:31:06Z</time>
      </trkpt>
      <trkpt lat="41.20526" lon="-8.31609">
        <ele>166.5652</ele>
        <time>2021-07-06T12:31:17Z</time>
      </trkpt>
      <trkpt lat="41.20461" lon="-8.31744">
        <ele>159.2313</ele>
        <time>2021-07-06T12:31:28Z</time>
      </trkpt>
      <trkpt lat="41.2043" lon="-8.31876">
        <ele>152.3531</ele>
        <time>2021-07-06T12:31:40Z</time>
      </trkpt>
      <trkpt lat="41.20325" lon="-8.31961">
        <ele>139.4502</ele>
        <time>2021-07-06T12:31:51Z</time>
      </trkpt>
      <trkpt lat="41.20282" lon="-8.31993">
        <ele>138.1518</ele>
        <time>2021-07-06T12:32:02Z</time>
      </trkpt>
      <trkpt lat="41.20276" lon="-8.32028">
        <ele>141.7588</ele>
        <time>2021-07-06T12:32:13Z</time>
      </trkpt>
      <trkpt lat="41.20302" lon="-8.32241">
        <ele>138.5537</ele>
        <time>2021-07-06T12:32:24Z</time>
      </trkpt>
      <trkpt lat="41.20386" lon="-8.32304">
        <ele>137.8898</ele>
        <time>2021-07-06T12:32:35Z</time>
      </trkpt>
      <trkpt lat="41.20473" lon="-8.324">
        <ele>137.1185</ele>
        <time>2021-07-06T12:32:46Z</time>
      </trkpt>
      <trkpt lat="41.20427" lon="-8.32481">
        <ele>147.0442</ele>
        <time>2021-07-06T12:32:57Z</time>
      </trkpt>
      <trkpt lat="41.20373" lon="-8.3256">
        <ele>158.4582</ele>
        <time>2021-07-06T12:33:08Z</time>
      </trkpt>
      <trkpt lat="41.20311" lon="-8.32651">
        <ele>153.9797</ele>
        <time>2021-07-06T12:33:19Z</time>
      </trkpt>
      <trkpt lat="41.20295" lon="-8.32801">
        <ele>152.3588</ele>
        <time>2021-07-06T12:33:30Z</time>
      </trkpt>
      <trkpt lat="41.20302" lon="-8.3289">
        <ele>157.1803</ele>
        <time>2021-07-06T12:33:41Z</time>
      </trkpt>
      <trkpt lat="41.203" lon="-8.32997">
        <ele>159.0585</ele>
        <time>2021-07-06T12:33:52Z</time>
      </trkpt>
      <trkpt lat="41.20313" lon="-8.33105">
        <ele>165.7265</ele>
        <time>2021-07-06T12:34:03Z</time>
      </trkpt>
      <trkpt lat="41.20384" lon="-8.33204">
        <ele>170.7484</ele>
        <time>2021-07-06T12:34:14Z</time>
      </trkpt>
      <trkpt lat="41.2045" lon="-8.33294">
        <ele>171.0558</ele>
        <time>2021-07-06T12:34:25Z</time>
      </trkpt>
      <trkpt lat="41.20501" lon="-8.33362">
        <ele>167.8934</ele>
        <time>2021-07-06T12:34:36Z</time>
      </trkpt>
      <trkpt lat="41.20562" lon="-8.33446">
        <ele>163.3899</ele>
        <time>2021-07-06T12:34:47Z</time>
      </trkpt>
      <trkpt lat="41.20633" lon="-8.33538">
        <ele>164.2219</ele>
        <time>2021-07-06T12:34:58Z</time>
      </trkpt>
      <trkpt lat="41.20619" lon="-8.33641">
        <ele>164.5036</ele>
        <time>2021-07-06T12:35:09Z</time>
      </trkpt>
      <trkpt lat="41.20606" lon="-8.33692">
        <ele>164.0223</ele>
        <time>2021-07-06T12:35:20Z</time>
      </trkpt>
      <trkpt lat="41.2059" lon="-8.33778">
        <ele>161.0571</ele>
        <time>2021-07-06T12:35:31Z</time>
      </trkpt>
      <trkpt lat="41.2055" lon="-8.33925">
        <ele>160.0137</ele>
        <time>2021-07-06T12:35:42Z</time>
      </trkpt>
      <trkpt lat="41.20456" lon="-8.33996">
        <ele>157.8213</ele>
        <time>2021-07-06T12:35:53Z</time>
      </trkpt>
      <trkpt lat="41.20362" lon="-8.3404">
        <ele>158.1736</ele>
        <time>2021-07-06T12:36:04Z</time>
      </trkpt>
      <trkpt lat="41.20266" lon="-8.3413">
        <ele>163.7196</ele>
        <time>2021-07-06T12:36:15Z</time>
      </trkpt>
      <trkpt lat="41.2017" lon="-8.34229">
        <ele>167.9787</ele>
        <time>2021-07-06T12:36:26Z</time>
      </trkpt>
      <trkpt lat="41.20072" lon="-8.34376">
        <ele>168.4016</ele>
        <time>2021-07-06T12:36:37Z</time>
      </trkpt>
      <trkpt lat="41.20018" lon="-8.34533">
        <ele>164.2368</ele>
        <time>2021-07-06T12:36:48Z</time>
      </trkpt>
      <trkpt lat="41.19975" lon="-8.34607">
        <ele>166.3278</ele>
        <time>2021-07-06T12:36:59Z</time>
      </trkpt>
      <trkpt lat="41.19932" lon="-8.34671">
        <ele>167.153</ele>
        <time>2021-07-06T12:37:10Z</time>
      </trkpt>
      <trkpt lat="41.19862" lon="-8.34789">
        <ele>157.5696</ele>
        <time>2021-07-06T12:37:21Z</time>
      </trkpt>
      <trkpt lat="41.19801" lon="-8.3495">
        <ele>158.1368</ele>
        <time>2021-07-06T12:37:32Z</time>
      </trkpt>
      <trkpt lat="41.19753" lon="-8.35122">
        <ele>166.3099</ele>
        <time>2021-07-06T12:37:43Z</time>
      </trkpt>
      <trkpt lat="41.19759" lon="-8.35289">
        <ele>173.9126</ele>
        <time>2021-07-06T12:37:54Z</time>
      </trkpt>
      <trkpt lat="41.19843" lon="-8.35451">
        <ele>184.399</ele>
        <time>2021-07-06T12:38:05Z</time>
      </trkpt>
      <trkpt lat="41.19889" lon="-8.35639">
        <ele>191.0823</ele>
        <time>2021-07-06T12:38:16Z</time>
      </trkpt>
      <trkpt lat="41.19938" lon="-8.35797">
        <ele>196.2489</ele>
        <time>2021-07-06T12:38:27Z</time>
      </trkpt>
      <trkpt lat="41.19922" lon="-8.35956">
        <ele>203.6974</ele>
        <time>2021-07-06T12:38:38Z</time>
      </trkpt>
      <trkpt lat="41.1983" lon="-8.36055">
        <ele>208.4328</ele>
        <time>2021-07-06T12:38:49Z</time>
      </trkpt>
      <trkpt lat="41.19735" lon="-8.36168">
        <ele>217.4367</ele>
        <time>2021-07-06T12:39:00Z</time>
      </trkpt>
      <trkpt lat="41.19644" lon="-8.36324">
        <ele>220.2362</ele>
        <time>2021-07-06T12:39:11Z</time>
      </trkpt>
      <trkpt lat="41.19518" lon="-8.36362">
        <ele>226.1959</ele>
        <time>2021-07-06T12:39:22Z</time>
      </trkpt>
      <trkpt lat="41.19458" lon="-8.36521">
        <ele>233.3905</ele>
        <time>2021-07-06T12:39:33Z</time>
      </trkpt>
      <trkpt lat="41.19328" lon="-8.36543">
        <ele>240.3809</ele>
        <time>2021-07-06T12:39:44Z</time>
      </trkpt>
      <trkpt lat="41.19214" lon="-8.36611">
        <ele>245.7188</ele>
        <time>2021-07-06T12:39:55Z</time>
      </trkpt>
      <trkpt lat="41.19059" lon="-8.36715">
        <ele>253.5056</ele>
        <time>2021-07-06T12:40:07Z</time>
      </trkpt>
      <trkpt lat="41.18875" lon="-8.36805">
        <ele>266.2997</ele>
        <time>2021-07-06T12:40:18Z</time>
      </trkpt>
      <trkpt lat="41.18772" lon="-8.36958">
        <ele>275.6764</ele>
        <time>2021-07-06T12:40:29Z</time>
      </trkpt>
      <trkpt lat="41.18741" lon="-8.3715">
        <ele>279.4464</ele>
        <time>2021-07-06T12:40:40Z</time>
      </trkpt>
      <trkpt lat="41.18712" lon="-8.37352">
        <ele>276.6603</ele>
        <time>2021-07-06T12:40:51Z</time>
      </trkpt>
      <trkpt lat="41.18688" lon="-8.37545">
        <ele>270.2672</ele>
        <time>2021-07-06T12:41:02Z</time>
      </trkpt>
      <trkpt lat="41.18733" lon="-8.37728">
        <ele>266.7419</ele>
        <time>2021-07-06T12:41:13Z</time>
      </trkpt>
      <trkpt lat="41.18809" lon="-8.37904">
        <ele>272.7926</ele>
        <time>2021-07-06T12:41:24Z</time>
      </trkpt>
      <trkpt lat="41.18875" lon="-8.38052">
        <ele>278.9909</ele>
        <time>2021-07-06T12:41:35Z</time>
      </trkpt>
      <trkpt lat="41.1895" lon="-8.38231">
        <ele>285.3688</ele>
        <time>2021-07-06T12:41:46Z</time>
      </trkpt>
      <trkpt lat="41.19038" lon="-8.38365">
        <ele>284.327</ele>
        <time>2021-07-06T12:41:57Z</time>
      </trkpt>
      <trkpt lat="41.19128" lon="-8.38457">
        <ele>288.6639</ele>
        <time>2021-07-06T12:42:08Z</time>
      </trkpt>
      <trkpt lat="41.19188" lon="-8.38599">
        <ele>292.8798</ele>
        <time>2021-07-06T12:42:19Z</time>
      </trkpt>
      <trkpt lat="41.19253" lon="-8.38758">
        <ele>296.3372</ele>
        <time>2021-07-06T12:42:30Z</time>
      </trkpt>
      <trkpt lat="41.19271" lon="-8.38815">
        <ele>297.1256</ele>
        <time>2021-07-06T12:42:41Z</time>
      </trkpt>
      <trkpt lat="41.19258" lon="-8.38923">
        <ele>301.7037</ele>
        <time>2021-07-06T12:42:52Z</time>
      </trkpt>
      <trkpt lat="41.19229" lon="-8.39043">
        <ele>302.5794</ele>
        <time>2021-07-06T12:43:03Z</time>
      </trkpt>
      <trkpt lat="41.19198" lon="-8.39169">
        <ele>300.8388</ele>
        <time>2021-07-06T12:43:14Z</time>
      </trkpt>
      <trkpt lat="41.19102" lon="-8.39306">
        <ele>298.9578</ele>
        <time>2021-07-06T12:43:25Z</time>
      </trkpt>
      <trkpt lat="41.19035" lon="-8.39441">
        <ele>303.1578</ele>
        <time>2021-07-06T12:43:36Z</time>
      </trkpt>
      <trkpt lat="41.19043" lon="-8.3963">
        <ele>306.7696</ele>
        <time>2021-07-06T12:43:47Z</time>
      </trkpt>
      <trkpt lat="41.19046" lon="-8.39813">
        <ele>312.9322</ele>
        <time>2021-07-06T12:43:58Z</time>
      </trkpt>
      <trkpt lat="41.19061" lon="-8.40003">
        <ele>316.0619</ele>
        <time>2021-07-06T12:44:09Z</time>
      </trkpt>
      <trkpt lat="41.19115" lon="-8.40174">
        <ele>311.5412</ele>
        <time>2021-07-06T12:44:20Z</time>
      </trkpt>
      <trkpt lat="41.19114" lon="-8.40379">
        <ele>312.5039</ele>
        <time>2021-07-06T12:44:31Z</time>
      </trkpt>
      <trkpt lat="41.19137" lon="-8.40564">
        <ele>311.7586</ele>
        <time>2021-07-06T12:44:42Z</time>
      </trkpt>
      <trkpt lat="41.19227" lon="-8.40701">
        <ele>304.3923</ele>
        <time>2021-07-06T12:44:53Z</time>
      </trkpt>
      <trkpt lat="41.19363" lon="-8.40711">
        <ele>300.5007</ele>
        <time>2021-07-06T12:45:04Z</time>
      </trkpt>
      <trkpt lat="41.19449" lon="-8.40843">
        <ele>297.6399</ele>
        <time>2021-07-06T12:45:15Z</time>
      </trkpt>
      <trkpt lat="41.19368" lon="-8.41003">
        <ele>292.9143</ele>
        <time>2021-07-06T12:45:26Z</time>
      </trkpt>
      <trkpt lat="41.19252" lon="-8.41154">
        <ele>278.3342</ele>
        <time>2021-07-06T12:45:37Z</time>
      </trkpt>
      <trkpt lat="41.19269" lon="-8.41381">
        <ele>260.5994</ele>
        <time>2021-07-06T12:45:48Z</time>
      </trkpt>
      <trkpt lat="41.19318" lon="-8.41602">
        <ele>243.9764</ele>
        <time>2021-07-06T12:45:59Z</time>
      </trkpt>
      <trkpt lat="41.19424" lon="-8.41806">
        <ele>227.0537</ele>
        <time>2021-07-06T12:46:10Z</time>
      </trkpt>
      <trkpt lat="41.19534" lon="-8.41998">
        <ele>213.5548</ele>
        <time>2021-07-06T12:46:21Z</time>
      </trkpt>
      <trkpt lat="41.19656" lon="-8.42143">
        <ele>204.5362</ele>
        <time>2021-07-06T12:46:32Z</time>
      </trkpt>
      <trkpt lat="41.19726" lon="-8.42327">
        <ele>196.2455</ele>
        <time>2021-07-06T12:46:43Z</time>
      </trkpt>
      <trkpt lat="41.19718" lon="-8.42501">
        <ele>188.9012</ele>
        <time>2021-07-06T12:46:54Z</time>
      </trkpt>
      <trkpt lat="41.19592" lon="-8.4255">
        <ele>180.3587</ele>
        <time>2021-07-06T12:47:05Z</time>
      </trkpt>
      <trkpt lat="41.19535" lon="-8.42706">
        <ele>172.0924</ele>
        <time>2021-07-06T12:47:16Z</time>
      </trkpt>
      <trkpt lat="41.19609" lon="-8.42853">
        <ele>161.7498</ele>
        <time>2021-07-06T12:47:27Z</time>
      </trkpt>
      <trkpt lat="41.19638" lon="-8.42993">
        <ele>158.3642</ele>
        <time>2021-07-06T12:47:38Z</time>
      </trkpt>
      <trkpt lat="41.1965" lon="-8.43167">
        <ele>154.2011</ele>
        <time>2021-07-06T12:47:49Z</time>
      </trkpt>
      <trkpt lat="41.19657" lon="-8.43319">
        <ele>151.392</ele>
        <time>2021-07-06T12:48:00Z</time>
      </trkpt>
      <trkpt lat="41.19625" lon="-8.43395">
        <ele>152.0176</ele>
        <time>2021-07-06T12:48:11Z</time>
      </trkpt>
      <trkpt lat="41.19582" lon="-8.43431">
        <ele>150.7636</ele>
        <time>2021-07-06T12:48:22Z</time>
      </trkpt>
      <trkpt lat="41.19496" lon="-8.43564">
        <ele>147.156</ele>
        <time>2021-07-06T12:48:33Z</time>
      </trkpt>
      <trkpt lat="41.19388" lon="-8.43629">
        <ele>146.1894</ele>
        <time>2021-07-06T12:48:44Z</time>
      </trkpt>
      <trkpt lat="41.19195" lon="-8.43551">
        <ele>138.7675</ele>
        <time>2021-07-06T12:48:55Z</time>
      </trkpt>
      <trkpt lat="41.1901" lon="-8.43566">
        <ele>141.0404</ele>
        <time>2021-07-06T12:49:06Z</time>
      </trkpt>
      <trkpt lat="41.18846" lon="-8.43622">
        <ele>125.7624</ele>
        <time>2021-07-06T12:49:17Z</time>
      </trkpt>
      <trkpt lat="41.18673" lon="-8.43736">
        <ele>119.8726</ele>
        <time>2021-07-06T12:49:28Z</time>
      </trkpt>
      <trkpt lat="41.18569" lon="-8.43743">
        <ele>121.2944</ele>
        <time>2021-07-06T12:49:39Z</time>
      </trkpt>
      <trkpt lat="41.18469" lon="-8.43858">
        <ele>127.3473</ele>
        <time>2021-07-06T12:49:50Z</time>
      </trkpt>
      <trkpt lat="41.1841" lon="-8.43972">
        <ele>132.1088</ele>
        <time>2021-07-06T12:50:01Z</time>
      </trkpt>
      <trkpt lat="41.18321" lon="-8.44121">
        <ele>130.737</ele>
        <time>2021-07-06T12:50:12Z</time>
      </trkpt>
      <trkpt lat="41.18242" lon="-8.44269">
        <ele>126.3468</ele>
        <time>2021-07-06T12:50:23Z</time>
      </trkpt>
      <trkpt lat="41.18257" lon="-8.44368">
        <ele>122.9616</ele>
        <time>2021-07-06T12:50:34Z</time>
      </trkpt>
      <trkpt lat="41.18301" lon="-8.44479">
        <ele>125.2474</ele>
        <time>2021-07-06T12:50:45Z</time>
      </trkpt>
      <trkpt lat="41.18365" lon="-8.44589">
        <ele>129.3583</ele>
        <time>2021-07-06T12:50:56Z</time>
      </trkpt>
      <trkpt lat="41.18415" lon="-8.44679">
        <ele>127.0743</ele>
        <time>2021-07-06T12:51:07Z</time>
      </trkpt>
      <trkpt lat="41.18479" lon="-8.44796">
        <ele>125.3706</ele>
        <time>2021-07-06T12:51:18Z</time>
      </trkpt>
      <trkpt lat="41.18528" lon="-8.44923">
        <ele>123.6525</ele>
        <time>2021-07-06T12:51:29Z</time>
      </trkpt>
      <trkpt lat="41.18532" lon="-8.44977">
        <ele>131.7861</ele>
        <time>2021-07-06T12:51:40Z</time>
      </trkpt>
      <trkpt lat="41.18535" lon="-8.45058">
        <ele>132.9535</ele>
        <time>2021-07-06T12:51:51Z</time>
      </trkpt>
      <trkpt lat="41.18535" lon="-8.45243">
        <ele>126.6717</ele>
        <time>2021-07-06T12:52:02Z</time>
      </trkpt>
      <trkpt lat="41.18501" lon="-8.45438">
        <ele>118.8049</ele>
        <time>2021-07-06T12:52:13Z</time>
      </trkpt>
      <trkpt lat="41.1852" lon="-8.45594">
        <ele>113.939</ele>
        <time>2021-07-06T12:52:24Z</time>
      </trkpt>
      <trkpt lat="41.18495" lon="-8.45786">
        <ele>113.3005</ele>
        <time>2021-07-06T12:52:35Z</time>
      </trkpt>
      <trkpt lat="41.18424" lon="-8.45973">
        <ele>105.0904</ele>
        <time>2021-07-06T12:52:46Z</time>
      </trkpt>
      <trkpt lat="41.18355" lon="-8.46148">
        <ele>96.90689</ele>
        <time>2021-07-06T12:52:57Z</time>
      </trkpt>
      <trkpt lat="41.18289" lon="-8.46278">
        <ele>92.22249</ele>
        <time>2021-07-06T12:53:08Z</time>
      </trkpt>
      <trkpt lat="41.18285" lon="-8.4628">
        <ele>94.65801</ele>
        <time>2021-07-06T12:53:19Z</time>
      </trkpt>
      <trkpt lat="41.1828" lon="-8.46284">
        <ele>101.7787</ele>
        <time>2021-07-06T12:54:07Z</time>
      </trkpt>
      <trkpt lat="41.18251" lon="-8.46396">
        <ele>102.0226</ele>
        <time>2021-07-06T12:54:18Z</time>
      </trkpt>
      <trkpt lat="41.18242" lon="-8.46578">
        <ele>101.769</ele>
        <time>2021-07-06T12:54:29Z</time>
      </trkpt>
      <trkpt lat="41.18224" lon="-8.46756">
        <ele>103.0174</ele>
        <time>2021-07-06T12:54:40Z</time>
      </trkpt>
      <trkpt lat="41.18301" lon="-8.4689">
        <ele>105.0755</ele>
        <time>2021-07-06T12:54:51Z</time>
      </trkpt>
      <trkpt lat="41.18362" lon="-8.47027">
        <ele>104.215</ele>
        <time>2021-07-06T12:55:02Z</time>
      </trkpt>
      <trkpt lat="41.18373" lon="-8.47235">
        <ele>109.3852</ele>
        <time>2021-07-06T12:55:13Z</time>
      </trkpt>
      <trkpt lat="41.18364" lon="-8.47378">
        <ele>108.1403</ele>
        <time>2021-07-06T12:55:24Z</time>
      </trkpt>
      <trkpt lat="41.18295" lon="-8.47436">
        <ele>109.591</ele>
        <time>2021-07-06T12:55:35Z</time>
      </trkpt>
      <trkpt lat="41.18226" lon="-8.47562">
        <ele>113.3261</ele>
        <time>2021-07-06T12:55:46Z</time>
      </trkpt>
      <trkpt lat="41.18217" lon="-8.47766">
        <ele>119.4603</ele>
        <time>2021-07-06T12:55:57Z</time>
      </trkpt>
      <trkpt lat="41.18245" lon="-8.47968">
        <ele>125.1994</ele>
        <time>2021-07-06T12:56:08Z</time>
      </trkpt>
      <trkpt lat="41.18247" lon="-8.48147">
        <ele>128.8201</ele>
        <time>2021-07-06T12:56:19Z</time>
      </trkpt>
      <trkpt lat="41.18318" lon="-8.48294">
        <ele>121.9141</ele>
        <time>2021-07-06T12:56:30Z</time>
      </trkpt>
      <trkpt lat="41.18357" lon="-8.48343">
        <ele>122.0563</ele>
        <time>2021-07-06T12:56:41Z</time>
      </trkpt>
      <trkpt lat="41.1836" lon="-8.48347">
        <ele>123.94</ele>
        <time>2021-07-06T12:56:56Z</time>
      </trkpt>
      <trkpt lat="41.18426" lon="-8.48486">
        <ele>122.6824</ele>
        <time>2021-07-06T12:57:07Z</time>
      </trkpt>
      <trkpt lat="41.18518" lon="-8.48645">
        <ele>123.4598</ele>
        <time>2021-07-06T12:57:18Z</time>
      </trkpt>
      <trkpt lat="41.18625" lon="-8.48768">
        <ele>123.8354</ele>
        <time>2021-07-06T12:57:29Z</time>
      </trkpt>
      <trkpt lat="41.18731" lon="-8.48891">
        <ele>123.4066</ele>
        <time>2021-07-06T12:57:40Z</time>
      </trkpt>
      <trkpt lat="41.18774" lon="-8.49042">
        <ele>125.1705</ele>
        <time>2021-07-06T12:57:52Z</time>
      </trkpt>
      <trkpt lat="41.18797" lon="-8.49219">
        <ele>133.0941</ele>
        <time>2021-07-06T12:58:03Z</time>
      </trkpt>
      <trkpt lat="41.18844" lon="-8.49365">
        <ele>140.3068</ele>
        <time>2021-07-06T12:58:14Z</time>
      </trkpt>
      <trkpt lat="41.18891" lon="-8.49508">
        <ele>143.2267</ele>
        <time>2021-07-06T12:58:25Z</time>
      </trkpt>
      <trkpt lat="41.18922" lon="-8.49615">
        <ele>141.0988</ele>
        <time>2021-07-06T12:58:36Z</time>
      </trkpt>
      <trkpt lat="41.18931" lon="-8.49685">
        <ele>138.8028</ele>
        <time>2021-07-06T12:58:47Z</time>
      </trkpt>
      <trkpt lat="41.18949" lon="-8.49748">
        <ele>144.8728</ele>
        <time>2021-07-06T12:58:58Z</time>
      </trkpt>
      <trkpt lat="41.18933" lon="-8.49854">
        <ele>142.2339</ele>
        <time>2021-07-06T12:59:09Z</time>
      </trkpt>
      <trkpt lat="41.18908" lon="-8.49945">
        <ele>145.1282</ele>
        <time>2021-07-06T12:59:20Z</time>
      </trkpt>
      <trkpt lat="41.18894" lon="-8.50036">
        <ele>145.3504</ele>
        <time>2021-07-06T12:59:31Z</time>
      </trkpt>
      <trkpt lat="41.18907" lon="-8.50105">
        <ele>144.9331</ele>
        <time>2021-07-06T12:59:42Z</time>
      </trkpt>
      <trkpt lat="41.18921" lon="-8.50161">
        <ele>145.2804</ele>
        <time>2021-07-06T12:59:53Z</time>
      </trkpt>
      <trkpt lat="41.18929" lon="-8.50196">
        <ele>146.6166</ele>
        <time>2021-07-06T13:00:04Z</time>
      </trkpt>
      <trkpt lat="41.1893" lon="-8.50203">
        <ele>146.6964</ele>
        <time>2021-07-06T13:00:30Z</time>
      </trkpt>
      <trkpt lat="41.1895" lon="-8.50281">
        <ele>150.173</ele>
        <time>2021-07-06T13:00:41Z</time>
      </trkpt>
      <trkpt lat="41.18977" lon="-8.50402">
        <ele>159.1376</ele>
        <time>2021-07-06T13:00:52Z</time>
      </trkpt>
      <trkpt lat="41.19022" lon="-8.50567">
        <ele>170.7624</ele>
        <time>2021-07-06T13:01:03Z</time>
      </trkpt>
      <trkpt lat="41.19134" lon="-8.50716">
        <ele>179.9041</ele>
        <time>2021-07-06T13:01:14Z</time>
      </trkpt>
      <trkpt lat="41.19172" lon="-8.50948">
        <ele>188.1033</ele>
        <time>2021-07-06T13:01:25Z</time>
      </trkpt>
      <trkpt lat="41.19143" lon="-8.50977">
        <ele>189.1646</ele>
        <time>2021-07-06T13:01:37Z</time>
      </trkpt>
      <trkpt lat="41.19105" lon="-8.51116">
        <ele>194.5629</ele>
        <time>2021-07-06T13:01:48Z</time>
      </trkpt>
      <trkpt lat="41.19151" lon="-8.51313">
        <ele>204.9607</ele>
        <time>2021-07-06T13:01:59Z</time>
      </trkpt>
      <trkpt lat="41.19257" lon="-8.51484">
        <ele>218.8768</ele>
        <time>2021-07-06T13:02:10Z</time>
      </trkpt>
      <trkpt lat="41.19344" lon="-8.51623">
        <ele>223.2396</ele>
        <time>2021-07-06T13:02:21Z</time>
      </trkpt>
      <trkpt lat="41.19368" lon="-8.51663">
        <ele>227.437</ele>
        <time>2021-07-06T13:02:32Z</time>
      </trkpt>
      <trkpt lat="41.19392" lon="-8.51693">
        <ele>232.1351</ele>
        <time>2021-07-06T13:02:43Z</time>
      </trkpt>
      <trkpt lat="41.19443" lon="-8.51757">
        <ele>235.8064</ele>
        <time>2021-07-06T13:02:54Z</time>
      </trkpt>
      <trkpt lat="41.19363" lon="-8.5182">
        <ele>232.1316</ele>
        <time>2021-07-06T13:03:05Z</time>
      </trkpt>
      <trkpt lat="41.19233" lon="-8.51848">
        <ele>224.9711</ele>
        <time>2021-07-06T13:03:16Z</time>
      </trkpt>
      <trkpt lat="41.1912" lon="-8.51855">
        <ele>220.0439</ele>
        <time>2021-07-06T13:03:27Z</time>
      </trkpt>
      <trkpt lat="41.19142" lon="-8.51989">
        <ele>213.8826</ele>
        <time>2021-07-06T13:03:38Z</time>
      </trkpt>
      <trkpt lat="41.1911" lon="-8.52177">
        <ele>206.3546</ele>
        <time>2021-07-06T13:03:49Z</time>
      </trkpt>
      <trkpt lat="41.19117" lon="-8.52366">
        <ele>206.1673</ele>
        <time>2021-07-06T13:04:00Z</time>
      </trkpt>
      <trkpt lat="41.19017" lon="-8.52405">
        <ele>193.8959</ele>
        <time>2021-07-06T13:04:11Z</time>
      </trkpt>
      <trkpt lat="41.1894" lon="-8.52466">
        <ele>185.4735</ele>
        <time>2021-07-06T13:04:22Z</time>
      </trkpt>
      <trkpt lat="41.18858" lon="-8.52527">
        <ele>176.943</ele>
        <time>2021-07-06T13:04:33Z</time>
      </trkpt>
      <trkpt lat="41.18769" lon="-8.52498">
        <ele>173.7078</ele>
        <time>2021-07-06T13:04:44Z</time>
      </trkpt>
      <trkpt lat="41.18676" lon="-8.52496">
        <ele>167.512</ele>
        <time>2021-07-06T13:04:55Z</time>
      </trkpt>
      <trkpt lat="41.18567" lon="-8.52534">
        <ele>157.6215</ele>
        <time>2021-07-06T13:05:06Z</time>
      </trkpt>
      <trkpt lat="41.18525" lon="-8.52575">
        <ele>153.3296</ele>
        <time>2021-07-06T13:05:17Z</time>
      </trkpt>
      <trkpt lat="41.18509" lon="-8.52592">
        <ele>152.6772</ele>
        <time>2021-07-06T13:05:28Z</time>
      </trkpt>
      <trkpt lat="41.18465" lon="-8.52644">
        <ele>146.7521</ele>
        <time>2021-07-06T13:05:39Z</time>
      </trkpt>
      <trkpt lat="41.18465" lon="-8.52649">
        <ele>149.5507</ele>
        <time>2021-07-06T13:05:50Z</time>
      </trkpt>
      <trkpt lat="41.18462" lon="-8.52653">
        <ele>153.1266</ele>
        <time>2021-07-06T13:06:21Z</time>
      </trkpt>
      <trkpt lat="41.18461" lon="-8.52649">
        <ele>152.9845</ele>
        <time>2021-07-06T13:07:11Z</time>
      </trkpt>
      <trkpt lat="41.18458" lon="-8.52645">
        <ele>160.0242</ele>
        <time>2021-07-06T13:07:32Z</time>
      </trkpt>
      <trkpt lat="41.18461" lon="-8.52649">
        <ele>155.484</ele>
        <time>2021-07-06T13:07:50Z</time>
      </trkpt>
      <trkpt lat="41.18464" lon="-8.52647">
        <ele>154.8405</ele>
        <time>2021-07-06T13:08:12Z</time>
      </trkpt>
      <trkpt lat="41.18462" lon="-8.52652">
        <ele>151.0178</ele>
        <time>2021-07-06T13:08:28Z</time>
      </trkpt>
      <trkpt lat="41.18432" lon="-8.5267">
        <ele>151.6713</ele>
        <time>2021-07-06T13:08:39Z</time>
      </trkpt>
      <trkpt lat="41.18347" lon="-8.52714">
        <ele>143.678</ele>
        <time>2021-07-06T13:08:50Z</time>
      </trkpt>
      <trkpt lat="41.18278" lon="-8.5282">
        <ele>143.8841</ele>
        <time>2021-07-06T13:09:01Z</time>
      </trkpt>
      <trkpt lat="41.18238" lon="-8.5298">
        <ele>136.4897</ele>
        <time>2021-07-06T13:09:12Z</time>
      </trkpt>
      <trkpt lat="41.18191" lon="-8.53127">
        <ele>127.7394</ele>
        <time>2021-07-06T13:09:23Z</time>
      </trkpt>
      <trkpt lat="41.18183" lon="-8.53238">
        <ele>120.9838</ele>
        <time>2021-07-06T13:09:34Z</time>
      </trkpt>
      <trkpt lat="41.18138" lon="-8.53408">
        <ele>119.3069</ele>
        <time>2021-07-06T13:09:45Z</time>
      </trkpt>
      <trkpt lat="41.18112" lon="-8.53535">
        <ele>113.3503</ele>
        <time>2021-07-06T13:09:56Z</time>
      </trkpt>
      <trkpt lat="41.1807" lon="-8.53645">
        <ele>111.7529</ele>
        <time>2021-07-06T13:10:07Z</time>
      </trkpt>
      <trkpt lat="41.17965" lon="-8.53781">
        <ele>111.581</ele>
        <time>2021-07-06T13:10:18Z</time>
      </trkpt>
      <trkpt lat="41.17851" lon="-8.53928">
        <ele>110.9015</ele>
        <time>2021-07-06T13:10:29Z</time>
      </trkpt>
      <trkpt lat="41.17779" lon="-8.541">
        <ele>109.1681</ele>
        <time>2021-07-06T13:10:40Z</time>
      </trkpt>
      <trkpt lat="41.17764" lon="-8.54132">
        <ele>110.2801</ele>
        <time>2021-07-06T13:10:51Z</time>
      </trkpt>
      <trkpt lat="41.17746" lon="-8.54178">
        <ele>110.7751</ele>
        <time>2021-07-06T13:11:02Z</time>
      </trkpt>
      <trkpt lat="41.1771" lon="-8.54297">
        <ele>112.2464</ele>
        <time>2021-07-06T13:11:13Z</time>
      </trkpt>
      <trkpt lat="41.17699" lon="-8.54331">
        <ele>115.6494</ele>
        <time>2021-07-06T13:11:24Z</time>
      </trkpt>
      <trkpt lat="41.17666" lon="-8.54396">
        <ele>117.0536</ele>
        <time>2021-07-06T13:11:35Z</time>
      </trkpt>
      <trkpt lat="41.17599" lon="-8.54477">
        <ele>119.2805</ele>
        <time>2021-07-06T13:11:46Z</time>
      </trkpt>
      <trkpt lat="41.17517" lon="-8.54524">
        <ele>119.8901</ele>
        <time>2021-07-06T13:11:57Z</time>
      </trkpt>
      <trkpt lat="41.17465" lon="-8.5458">
        <ele>122.3923</ele>
        <time>2021-07-06T13:12:08Z</time>
      </trkpt>
      <trkpt lat="41.17436" lon="-8.54594">
        <ele>123.6351</ele>
        <time>2021-07-06T13:12:19Z</time>
      </trkpt>
      <trkpt lat="41.17371" lon="-8.54619">
        <ele>125.0689</ele>
        <time>2021-07-06T13:12:30Z</time>
      </trkpt>
      <trkpt lat="41.17349" lon="-8.54639">
        <ele>128.8045</ele>
        <time>2021-07-06T13:12:41Z</time>
      </trkpt>
      <trkpt lat="41.17292" lon="-8.54722">
        <ele>125.5399</ele>
        <time>2021-07-06T13:12:52Z</time>
      </trkpt>
      <trkpt lat="41.17281" lon="-8.54853">
        <ele>128.9216</ele>
        <time>2021-07-06T13:13:03Z</time>
      </trkpt>
      <trkpt lat="41.17312" lon="-8.54956">
        <ele>126.0446</ele>
        <time>2021-07-06T13:13:14Z</time>
      </trkpt>
      <trkpt lat="41.17329" lon="-8.55005">
        <ele>122.953</ele>
        <time>2021-07-06T13:13:25Z</time>
      </trkpt>
      <trkpt lat="41.17366" lon="-8.55127">
        <ele>119.7803</ele>
        <time>2021-07-06T13:13:36Z</time>
      </trkpt>
      <trkpt lat="41.17387" lon="-8.55248">
        <ele>109.7005</ele>
        <time>2021-07-06T13:13:47Z</time>
      </trkpt>
      <trkpt lat="41.17371" lon="-8.55388">
        <ele>105.7791</ele>
        <time>2021-07-06T13:13:58Z</time>
      </trkpt>
      <trkpt lat="41.17361" lon="-8.55461">
        <ele>104.022</ele>
        <time>2021-07-06T13:14:09Z</time>
      </trkpt>
      <trkpt lat="41.17357" lon="-8.55488">
        <ele>106.083</ele>
        <time>2021-07-06T13:14:20Z</time>
      </trkpt>
      <trkpt lat="41.17413" lon="-8.55583">
        <ele>105.1718</ele>
        <time>2021-07-06T13:14:31Z</time>
      </trkpt>
      <trkpt lat="41.17488" lon="-8.55662">
        <ele>96.24344</ele>
        <time>2021-07-06T13:14:42Z</time>
      </trkpt>
      <trkpt lat="41.17538" lon="-8.55713">
        <ele>91.9276</ele>
        <time>2021-07-06T13:14:53Z</time>
      </trkpt>
      <trkpt lat="41.17594" lon="-8.55764">
        <ele>89.27618</ele>
        <time>2021-07-06T13:15:04Z</time>
      </trkpt>
      <trkpt lat="41.17645" lon="-8.55826">
        <ele>84.93011</ele>
        <time>2021-07-06T13:15:15Z</time>
      </trkpt>
      <trkpt lat="41.17681" lon="-8.55872">
        <ele>86.90288</ele>
        <time>2021-07-06T13:15:26Z</time>
      </trkpt>
      <trkpt lat="41.17707" lon="-8.55911">
        <ele>90.46016</ele>
        <time>2021-07-06T13:15:37Z</time>
      </trkpt>
      <trkpt lat="41.17741" lon="-8.55964">
        <ele>88.25494</ele>
        <time>2021-07-06T13:15:48Z</time>
      </trkpt>
      <trkpt lat="41.17803" lon="-8.56058">
        <ele>74.51334</ele>
        <time>2021-07-06T13:15:59Z</time>
      </trkpt>
      <trkpt lat="41.17776" lon="-8.56198">
        <ele>67.30147</ele>
        <time>2021-07-06T13:16:10Z</time>
      </trkpt>
      <trkpt lat="41.17827" lon="-8.56341">
        <ele>72.73495</ele>
        <time>2021-07-06T13:16:21Z</time>
      </trkpt>
      <trkpt lat="41.17867" lon="-8.56411">
        <ele>74.80265</ele>
        <time>2021-07-06T13:16:32Z</time>
      </trkpt>
      <trkpt lat="41.17889" lon="-8.5652">
        <ele>73.36188</ele>
        <time>2021-07-06T13:16:43Z</time>
      </trkpt>
      <trkpt lat="41.18016" lon="-8.56729">
        <ele>79.51684</ele>
        <time>2021-07-06T13:16:54Z</time>
      </trkpt>
      <trkpt lat="41.18101" lon="-8.56838">
        <ele>85.20645</ele>
        <time>2021-07-06T13:17:05Z</time>
      </trkpt>
      <trkpt lat="41.18036" lon="-8.5693">
        <ele>92.78872</ele>
        <time>2021-07-06T13:17:16Z</time>
      </trkpt>
      <trkpt lat="41.17972" lon="-8.57036">
        <ele>99.70289</ele>
        <time>2021-07-06T13:17:27Z</time>
      </trkpt>
      <trkpt lat="41.18013" lon="-8.5718">
        <ele>99.59989</ele>
        <time>2021-07-06T13:17:38Z</time>
      </trkpt>
      <trkpt lat="41.18009" lon="-8.57352">
        <ele>108.189</ele>
        <time>2021-07-06T13:17:49Z</time>
      </trkpt>
      <trkpt lat="41.18053" lon="-8.57511">
        <ele>113.1151</ele>
        <time>2021-07-06T13:18:00Z</time>
      </trkpt>
      <trkpt lat="41.181" lon="-8.57679">
        <ele>119.4901</ele>
        <time>2021-07-06T13:18:11Z</time>
      </trkpt>
      <trkpt lat="41.18081" lon="-8.57864">
        <ele>131.2633</ele>
        <time>2021-07-06T13:18:22Z</time>
      </trkpt>
      <trkpt lat="41.18063" lon="-8.58047">
        <ele>138.5594</ele>
        <time>2021-07-06T13:18:33Z</time>
      </trkpt>
      <trkpt lat="41.18056" lon="-8.58155">
        <ele>141.1014</ele>
        <time>2021-07-06T13:18:44Z</time>
      </trkpt>
      <trkpt lat="41.18047" lon="-8.58215">
        <ele>146.8225</ele>
        <time>2021-07-06T13:18:55Z</time>
      </trkpt>
      <trkpt lat="41.17935" lon="-8.58245">
        <ele>154.2717</ele>
        <time>2021-07-06T13:19:06Z</time>
      </trkpt>
      <trkpt lat="41.17795" lon="-8.58284">
        <ele>159.2347</ele>
        <time>2021-07-06T13:19:17Z</time>
      </trkpt>
      <trkpt lat="41.17788" lon="-8.58286">
        <ele>157.7215</ele>
        <time>2021-07-06T13:19:28Z</time>
      </trkpt>
      <trkpt lat="41.17784" lon="-8.58285">
        <ele>157.8942</ele>
        <time>2021-07-06T13:19:42Z</time>
      </trkpt>
      <trkpt lat="41.1765" lon="-8.58352">
        <ele>156.0904</ele>
        <time>2021-07-06T13:19:53Z</time>
      </trkpt>
      <trkpt lat="41.17521" lon="-8.58419">
        <ele>151.3548</ele>
        <time>2021-07-06T13:20:04Z</time>
      </trkpt>
      <trkpt lat="41.17481" lon="-8.58439">
        <ele>148.604</ele>
        <time>2021-07-06T13:20:15Z</time>
      </trkpt>
      <trkpt lat="41.17402" lon="-8.58478">
        <ele>149.3932</ele>
        <time>2021-07-06T13:20:26Z</time>
      </trkpt>
      <trkpt lat="41.17292" lon="-8.58536">
        <ele>143.4282</ele>
        <time>2021-07-06T13:20:37Z</time>
      </trkpt>
      <trkpt lat="41.17188" lon="-8.58588">
        <ele>142.6931</ele>
        <time>2021-07-06T13:20:48Z</time>
      </trkpt>
      <trkpt lat="41.17114" lon="-8.58625">
        <ele>145.441</ele>
        <time>2021-07-06T13:20:59Z</time>
      </trkpt>
      <trkpt lat="41.17106" lon="-8.58629">
        <ele>145.4686</ele>
        <time>2021-07-06T13:21:10Z</time>
      </trkpt>
      <trkpt lat="41.17099" lon="-8.58633">
        <ele>144.764</ele>
        <time>2021-07-06T13:21:23Z</time>
      </trkpt>
      <trkpt lat="41.17017" lon="-8.58673">
        <ele>145.9143</ele>
        <time>2021-07-06T13:21:34Z</time>
      </trkpt>
      <trkpt lat="41.16915" lon="-8.58726">
        <ele>147.3908</ele>
        <time>2021-07-06T13:21:45Z</time>
      </trkpt>
      <trkpt lat="41.16778" lon="-8.58796">
        <ele>154.4436</ele>
        <time>2021-07-06T13:21:56Z</time>
      </trkpt>
      <trkpt lat="41.16716" lon="-8.58826">
        <ele>153.5946</ele>
        <time>2021-07-06T13:22:07Z</time>
      </trkpt>
      <trkpt lat="41.16685" lon="-8.58836">
        <ele>153.309</ele>
        <time>2021-07-06T13:22:18Z</time>
      </trkpt>
      <trkpt lat="41.16586" lon="-8.58879">
        <ele>144.4672</ele>
        <time>2021-07-06T13:22:29Z</time>
      </trkpt>
      <trkpt lat="41.16535" lon="-8.58898">
        <ele>145.9782</ele>
        <time>2021-07-06T13:22:40Z</time>
      </trkpt>
      <trkpt lat="41.16461" lon="-8.5892">
        <ele>149.2843</ele>
        <time>2021-07-06T13:22:51Z</time>
      </trkpt>
      <trkpt lat="41.16449" lon="-8.58929">
        <ele>145.2768</ele>
        <time>2021-07-06T13:23:02Z</time>
      </trkpt>
      <trkpt lat="41.16446" lon="-8.58933">
        <ele>142.861</ele>
        <time>2021-07-06T13:23:21Z</time>
      </trkpt>
      <trkpt lat="41.16338" lon="-8.59021">
        <ele>142.4772</ele>
        <time>2021-07-06T13:23:32Z</time>
      </trkpt>
      <trkpt lat="41.16274" lon="-8.59076">
        <ele>145.4682</ele>
        <time>2021-07-06T13:23:43Z</time>
      </trkpt>
      <trkpt lat="41.16248" lon="-8.59104">
        <ele>147.6614</ele>
        <time>2021-07-06T13:23:54Z</time>
      </trkpt>
      <trkpt lat="41.16244" lon="-8.59107">
        <ele>147.8798</ele>
        <time>2021-07-06T13:24:07Z</time>
      </trkpt>
      <trkpt lat="41.16199" lon="-8.59145">
        <ele>152.3704</ele>
        <time>2021-07-06T13:24:18Z</time>
      </trkpt>
      <trkpt lat="41.16134" lon="-8.59198">
        <ele>150.8769</ele>
        <time>2021-07-06T13:24:29Z</time>
      </trkpt>
      <trkpt lat="41.161" lon="-8.59226">
        <ele>149.8749</ele>
        <time>2021-07-06T13:24:40Z</time>
      </trkpt>
      <trkpt lat="41.16084" lon="-8.59264">
        <ele>153.8796</ele>
        <time>2021-07-06T13:24:51Z</time>
      </trkpt>
      <trkpt lat="41.16052" lon="-8.59375">
        <ele>161.2098</ele>
        <time>2021-07-06T13:25:02Z</time>
      </trkpt>
      <trkpt lat="41.16072" lon="-8.59521">
        <ele>153.3657</ele>
        <time>2021-07-06T13:25:13Z</time>
      </trkpt>
      <trkpt lat="41.16094" lon="-8.59693">
        <ele>149.2037</ele>
        <time>2021-07-06T13:25:24Z</time>
      </trkpt>
      <trkpt lat="41.16106" lon="-8.59789">
        <ele>148.9453</ele>
        <time>2021-07-06T13:25:35Z</time>
      </trkpt>
      <trkpt lat="41.16104" lon="-8.59796">
        <ele>156.5842</ele>
        <time>2021-07-06T13:25:50Z</time>
      </trkpt>
      <trkpt lat="41.16124" lon="-8.59934">
        <ele>148.4949</ele>
        <time>2021-07-06T13:26:01Z</time>
      </trkpt>
      <trkpt lat="41.16132" lon="-8.59988">
        <ele>151.8222</ele>
        <time>2021-07-06T13:26:12Z</time>
      </trkpt>
      <trkpt lat="41.1614" lon="-8.60051">
        <ele>150.7568</ele>
        <time>2021-07-06T13:26:23Z</time>
      </trkpt>
      <trkpt lat="41.16164" lon="-8.60247">
        <ele>152.3431</ele>
        <time>2021-07-06T13:26:34Z</time>
      </trkpt>
      <trkpt lat="41.16177" lon="-8.60355">
        <ele>153.6328</ele>
        <time>2021-07-06T13:26:45Z</time>
      </trkpt>
      <trkpt lat="41.1618" lon="-8.60371">
        <ele>156.0975</ele>
        <time>2021-07-06T13:26:56Z</time>
      </trkpt>
      <trkpt lat="41.16182" lon="-8.60375">
        <ele>164.4535</ele>
        <time>2021-07-06T13:27:23Z</time>
      </trkpt>
      <trkpt lat="41.16196" lon="-8.60506">
        <ele>158.8532</ele>
        <time>2021-07-06T13:27:34Z</time>
      </trkpt>
      <trkpt lat="41.16204" lon="-8.60573">
        <ele>160.355</ele>
        <time>2021-07-06T13:27:45Z</time>
      </trkpt>
      <trkpt lat="41.16211" lon="-8.60619">
        <ele>158.3547</ele>
        <time>2021-07-06T13:27:56Z</time>
      </trkpt>
      <trkpt lat="41.16211" lon="-8.60619">
        <ele>164.3463</ele>
        <time>2021-07-06T13:28:55Z</time>
      </trkpt>
      <trkpt lat="41.16212" lon="-8.60625">
        <ele>160.9483</ele>
        <time>2021-07-06T13:29:20Z</time>
      </trkpt>
      <trkpt lat="41.16224" lon="-8.60615">
        <ele>159.1379</ele>
        <time>2021-07-06T13:29:31Z</time>
      </trkpt>
      <trkpt lat="41.16219" lon="-8.60614">
        <ele>153.6492</ele>
        <time>2021-07-06T13:29:43Z</time>
      </trkpt>
      <trkpt lat="41.1622" lon="-8.60623">
        <ele>145.8185</ele>
        <time>2021-07-06T13:29:54Z</time>
      </trkpt>
      <trkpt lat="41.16191" lon="-8.60637">
        <ele>146.892</ele>
        <time>2021-07-06T13:30:05Z</time>
      </trkpt>
      <trkpt lat="41.16186" lon="-8.60635">
        <ele>144.5954</ele>
        <time>2021-07-06T13:30:16Z</time>
      </trkpt>
      <trkpt lat="41.16174" lon="-8.60646">
        <ele>148.5101</ele>
        <time>2021-07-06T13:30:27Z</time>
      </trkpt>
      <trkpt lat="41.16177" lon="-8.60648">
        <ele>146.5139</ele>
        <time>2021-07-06T13:30:46Z</time>
      </trkpt>
      <trkpt lat="41.16171" lon="-8.60645">
        <ele>146.2018</ele>
        <time>2021-07-06T13:30:57Z</time>
      </trkpt>
      <trkpt lat="41.16169" lon="-8.60642">
        <ele>146.6534</ele>
        <time>2021-07-06T13:31:11Z</time>
      </trkpt>
      <trkpt lat="41.16168" lon="-8.60647">
        <ele>145.8992</ele>
        <time>2021-07-06T13:31:23Z</time>
      </trkpt>
      <trkpt lat="41.16167" lon="-8.60652">
        <ele>149.7081</ele>
        <time>2021-07-06T13:31:37Z</time>
      </trkpt>
      <trkpt lat="41.16173" lon="-8.60652">
        <ele>142.6652</ele>
        <time>2021-07-06T13:31:49Z</time>
      </trkpt>
      <trkpt lat="41.16178" lon="-8.60642">
        <ele>147.6484</ele>
        <time>2021-07-06T13:32:15Z</time>
      </trkpt>
      <trkpt lat="41.16175" lon="-8.60649">
        <ele>146.3093</ele>
        <time>2021-07-06T13:32:26Z</time>
      </trkpt>
      <trkpt lat="41.16174" lon="-8.60654">
        <ele>146.2733</ele>
        <time>2021-07-06T13:32:38Z</time>
      </trkpt>
      <trkpt lat="41.16171" lon="-8.60649">
        <ele>146.242</ele>
        <time>2021-07-06T13:32:49Z</time>
      </trkpt>
      <trkpt lat="41.16175" lon="-8.60652">
        <ele>146.2135</ele>
        <time>2021-07-06T13:33:06Z</time>
      </trkpt>
      <trkpt lat="41.16176" lon="-8.60646">
        <ele>145.3851</ele>
        <time>2021-07-06T13:33:18Z</time>
      </trkpt>
      <trkpt lat="41.16177" lon="-8.60653">
        <ele>145.806</ele>
        <time>2021-07-06T13:33:29Z</time>
      </trkpt>
      <trkpt lat="41.16179" lon="-8.60635">
        <ele>145.9908</ele>
        <time>2021-07-06T13:33:40Z</time>
      </trkpt>
      <trkpt lat="41.16186" lon="-8.60632">
        <ele>146.8868</ele>
        <time>2021-07-06T13:33:51Z</time>
      </trkpt>
      <trkpt lat="41.16191" lon="-8.60632">
        <ele>146.7265</ele>
        <time>2021-07-06T13:34:02Z</time>
      </trkpt>
      <trkpt lat="41.16214" lon="-8.60612">
        <ele>145.2965</ele>
        <time>2021-07-06T13:34:13Z</time>
      </trkpt>
      <trkpt lat="41.16219" lon="-8.60613">
        <ele>146.4893</ele>
        <time>2021-07-06T13:34:24Z</time>
      </trkpt>
      <trkpt lat="41.16219" lon="-8.60618">
        <ele>145.8809</ele>
        <time>2021-07-06T13:35:16Z</time>
      </trkpt>
      <trkpt lat="41.16223" lon="-8.6063">
        <ele>145.4949</ele>
        <time>2021-07-06T13:35:27Z</time>
      </trkpt>
      <trkpt lat="41.16211" lon="-8.60633">
        <ele>143.3048</ele>
        <time>2021-07-06T13:35:38Z</time>
      </trkpt>
      <trkpt lat="41.16183" lon="-8.60635">
        <ele>149.291</ele>
        <time>2021-07-06T13:35:49Z</time>
      </trkpt>
      <trkpt lat="41.16175" lon="-8.60632">
        <ele>146.7899</ele>
        <time>2021-07-06T13:36:00Z</time>
      </trkpt>
      <trkpt lat="41.16178" lon="-8.60627">
        <ele>146.0095</ele>
        <time>2021-07-06T13:36:11Z</time>
      </trkpt>
      <trkpt lat="41.16181" lon="-8.60629">
        <ele>146.9503</ele>
        <time>2021-07-06T13:36:26Z</time>
      </trkpt>
      <trkpt lat="41.16178" lon="-8.60625">
        <ele>145.9662</ele>
        <time>2021-07-06T13:36:59Z</time>
      </trkpt>
      <trkpt lat="41.16181" lon="-8.60632">
        <ele>145.256</ele>
        <time>2021-07-06T13:37:10Z</time>
      </trkpt>
      <trkpt lat="41.16183" lon="-8.60613">
        <ele>144.6618</ele>
        <time>2021-07-06T13:37:21Z</time>
      </trkpt>
      <trkpt lat="41.16175" lon="-8.60622">
        <ele>147.2684</ele>
        <time>2021-07-06T13:37:32Z</time>
      </trkpt>
      <trkpt lat="41.16179" lon="-8.60622">
        <ele>147.4519</ele>
        <time>2021-07-06T13:38:01Z</time>
      </trkpt>
      <trkpt lat="41.1618" lon="-8.60621">
        <ele>147.6988</ele>
        <time>2021-07-06T13:38:59Z</time>
      </trkpt>
      <trkpt lat="41.1618" lon="-8.60626">
        <ele>146.9794</ele>
        <time>2021-07-06T13:39:18Z</time>
      </trkpt>
      <trkpt lat="41.16178" lon="-8.60621">
        <ele>145.519</ele>
        <time>2021-07-06T13:39:36Z</time>
      </trkpt>
      <trkpt lat="41.16179" lon="-8.60622">
        <ele>147.4264</ele>
        <time>2021-07-06T13:40:35Z</time>
      </trkpt>
      <trkpt lat="41.16178" lon="-8.60615">
        <ele>143.3274</ele>
        <time>2021-07-06T13:41:05Z</time>
      </trkpt>
      <trkpt lat="41.16177" lon="-8.6062">
        <ele>146.794</ele>
        <time>2021-07-06T13:41:16Z</time>
      </trkpt>
      <trkpt lat="41.16172" lon="-8.60622">
        <ele>148.3368</ele>
        <time>2021-07-06T13:41:35Z</time>
      </trkpt>
      <trkpt lat="41.16174" lon="-8.60616">
        <ele>147.6303</ele>
        <time>2021-07-06T13:41:46Z</time>
      </trkpt>
      <trkpt lat="41.16178" lon="-8.60614">
        <ele>147.3704</ele>
        <time>2021-07-06T13:41:57Z</time>
      </trkpt>
      <trkpt lat="41.16183" lon="-8.60613">
        <ele>148.2576</ele>
        <time>2021-07-06T13:42:32Z</time>
      </trkpt>
      <trkpt lat="41.16176" lon="-8.60618">
        <ele>147.6855</ele>
        <time>2021-07-06T13:42:43Z</time>
      </trkpt>
      <trkpt lat="41.16172" lon="-8.60619">
        <ele>147.961</ele>
        <time>2021-07-06T13:42:55Z</time>
      </trkpt>
      <trkpt lat="41.16175" lon="-8.60618">
        <ele>147.5351</ele>
        <time>2021-07-06T13:43:10Z</time>
      </trkpt>
      <trkpt lat="41.16178" lon="-8.60622">
        <ele>147.5262</ele>
        <time>2021-07-06T13:43:21Z</time>
      </trkpt>
      <trkpt lat="41.16181" lon="-8.60627">
        <ele>147.2623</ele>
        <time>2021-07-06T13:43:32Z</time>
      </trkpt>
      <trkpt lat="41.16183" lon="-8.60631">
        <ele>146.0291</ele>
        <time>2021-07-06T13:43:43Z</time>
      </trkpt>
      <trkpt lat="41.1618" lon="-8.60627">
        <ele>145.8193</ele>
        <time>2021-07-06T13:43:54Z</time>
      </trkpt>
      <trkpt lat="41.16171" lon="-8.60617">
        <ele>147.8746</ele>
        <time>2021-07-06T13:44:09Z</time>
      </trkpt>
      <trkpt lat="41.16175" lon="-8.60618">
        <ele>146.6805</ele>
        <time>2021-07-06T13:44:23Z</time>
      </trkpt>
      <trkpt lat="41.16179" lon="-8.60618">
        <ele>147.6599</ele>
        <time>2021-07-06T13:44:38Z</time>
      </trkpt>
      <trkpt lat="41.16176" lon="-8.6062">
        <ele>147.5919</ele>
        <time>2021-07-06T13:45:26Z</time>
      </trkpt>
      <trkpt lat="41.16174" lon="-8.60615">
        <ele>145.2525</ele>
        <time>2021-07-06T13:45:41Z</time>
      </trkpt>
      <trkpt lat="41.16171" lon="-8.60618">
        <ele>147.4047</ele>
        <time>2021-07-06T13:45:53Z</time>
      </trkpt>
      <trkpt lat="41.16175" lon="-8.60619">
        <ele>146.087</ele>
        <time>2021-07-06T13:46:19Z</time>
      </trkpt>
      <trkpt lat="41.16177" lon="-8.60626">
        <ele>146.6079</ele>
        <time>2021-07-06T13:46:32Z</time>
      </trkpt>
      <trkpt lat="41.16182" lon="-8.60629">
        <ele>146.6461</ele>
        <time>2021-07-06T13:46:43Z</time>
      </trkpt>
      <trkpt lat="41.16184" lon="-8.60633">
        <ele>147.6501</ele>
        <time>2021-07-06T13:46:56Z</time>
      </trkpt>
      <trkpt lat="41.16188" lon="-8.60631">
        <ele>147.009</ele>
        <time>2021-07-06T13:47:18Z</time>
      </trkpt>
      <trkpt lat="41.16191" lon="-8.60632">
        <ele>146.4843</ele>
        <time>2021-07-06T13:47:43Z</time>
      </trkpt>
      <trkpt lat="41.16188" lon="-8.60633">
        <ele>146.0905</ele>
        <time>2021-07-06T13:48:16Z</time>
      </trkpt>
      <trkpt lat="41.16184" lon="-8.60635">
        <ele>144.4106</ele>
        <time>2021-07-06T13:48:38Z</time>
      </trkpt>
      <trkpt lat="41.16182" lon="-8.60631">
        <ele>145.7147</ele>
        <time>2021-07-06T13:49:00Z</time>
      </trkpt>
      <trkpt lat="41.16178" lon="-8.6062">
        <ele>147.2836</ele>
        <time>2021-07-06T13:49:11Z</time>
      </trkpt>
      <trkpt lat="41.16178" lon="-8.60615">
        <ele>147.0128</ele>
        <time>2021-07-06T13:49:23Z</time>
      </trkpt>
      <trkpt lat="41.16184" lon="-8.60611">
        <ele>147.471</ele>
        <time>2021-07-06T13:49:34Z</time>
      </trkpt>
      <trkpt lat="41.1618" lon="-8.60609">
        <ele>147.2035</ele>
        <time>2021-07-06T13:50:00Z</time>
      </trkpt>
      <trkpt lat="41.16186" lon="-8.60609">
        <ele>147.4819</ele>
        <time>2021-07-06T13:50:11Z</time>
      </trkpt>
      <trkpt lat="41.1618" lon="-8.6061">
        <ele>147.2689</ele>
        <time>2021-07-06T13:50:22Z</time>
      </trkpt>
      <trkpt lat="41.16176" lon="-8.60614">
        <ele>147.2265</ele>
        <time>2021-07-06T13:50:33Z</time>
      </trkpt>
      <trkpt lat="41.16176" lon="-8.6062">
        <ele>147.262</ele>
        <time>2021-07-06T13:50:52Z</time>
      </trkpt>
      <trkpt lat="41.16177" lon="-8.60624">
        <ele>147.7301</ele>
        <time>2021-07-06T13:51:05Z</time>
      </trkpt>
      <trkpt lat="41.1618" lon="-8.60627">
        <ele>143.9674</ele>
        <time>2021-07-06T13:51:16Z</time>
      </trkpt>
      <trkpt lat="41.16174" lon="-8.60623">
        <ele>147.0264</ele>
        <time>2021-07-06T13:51:27Z</time>
      </trkpt>
      <trkpt lat="41.1617" lon="-8.60622">
        <ele>147.1184</ele>
        <time>2021-07-06T13:51:44Z</time>
      </trkpt>
      <trkpt lat="41.1617" lon="-8.60627">
        <ele>146.9493</ele>
        <time>2021-07-06T13:51:55Z</time>
      </trkpt>
      <trkpt lat="41.1617" lon="-8.60622">
        <ele>147.5449</ele>
        <time>2021-07-06T13:52:18Z</time>
      </trkpt>
      <trkpt lat="41.16174" lon="-8.60622">
        <ele>147.1666</ele>
        <time>2021-07-06T13:52:35Z</time>
      </trkpt>
      <trkpt lat="41.1618" lon="-8.60624">
        <ele>146.95</ele>
        <time>2021-07-06T13:52:46Z</time>
      </trkpt>
      <trkpt lat="41.16182" lon="-8.60628">
        <ele>145.7708</ele>
        <time>2021-07-06T13:52:58Z</time>
      </trkpt>
      <trkpt lat="41.16183" lon="-8.60633">
        <ele>146.4959</ele>
        <time>2021-07-06T13:53:09Z</time>
      </trkpt>
      <trkpt lat="41.16182" lon="-8.60624">
        <ele>146.199</ele>
        <time>2021-07-06T13:53:24Z</time>
      </trkpt>
      <trkpt lat="41.16166" lon="-8.60623">
        <ele>146.64</ele>
        <time>2021-07-06T13:53:35Z</time>
      </trkpt>
      <trkpt lat="41.1618" lon="-8.60615">
        <ele>147.3665</ele>
        <time>2021-07-06T13:53:46Z</time>
      </trkpt>
      <trkpt lat="41.16176" lon="-8.60619">
        <ele>146.9359</ele>
        <time>2021-07-06T13:54:09Z</time>
      </trkpt>
      <trkpt lat="41.16175" lon="-8.60613">
        <ele>146.3413</ele>
        <time>2021-07-06T13:54:20Z</time>
      </trkpt>
      <trkpt lat="41.16177" lon="-8.6062">
        <ele>147.2501</ele>
        <time>2021-07-06T13:54:31Z</time>
      </trkpt>
      <trkpt lat="41.16182" lon="-8.60635">
        <ele>146.5073</ele>
        <time>2021-07-06T13:54:42Z</time>
      </trkpt>
      <trkpt lat="41.16186" lon="-8.60634">
        <ele>146.7013</ele>
        <time>2021-07-06T13:55:28Z</time>
      </trkpt>
      <trkpt lat="41.16189" lon="-8.60637">
        <ele>146.0589</ele>
        <time>2021-07-06T13:56:02Z</time>
      </trkpt>
      <trkpt lat="41.16187" lon="-8.60637">
        <ele>147.3033</ele>
        <time>2021-07-06T13:57:01Z</time>
      </trkpt>
      <trkpt lat="41.16189" lon="-8.60633">
        <ele>146.8877</ele>
        <time>2021-07-06T13:57:43Z</time>
      </trkpt>
    </trkseg>
  </trk>
</gpx>